<?xml version="1.0" encoding="utf-8"?>
<gpx xmlns:xsi="http://www.w3.org/2001/XMLSchema-instance" xmlns:xsd="http://www.w3.org/2001/XMLSchema" xsi:schemaLocation="http://www.topografix.com/GPX/1/1 http://www.topografix.com/GPX/1/1/gpx.xsd" version="1.1" creator="SportTracks 3.1" xmlns="http://www.topografix.com/GPX/1/1">
 <metadata />
 <trk>
  <name />
  <cmt />
  <trkseg>
   <trkpt lat="46.2420768737793" lon="6.98733997344971">
    <ele>308</ele>
    <time>2012-03-15T15:44:32Z</time>
   </trkpt>
   <trkpt lat="46.2420768737793" lon="6.98733806610107">
    <ele>309.885711669922</ele>
    <time>2012-03-15T15:44:33Z</time>
   </trkpt>
   <trkpt lat="46.2420692443848" lon="6.98732805252075">
    <ele>315.542877197266</ele>
    <time>2012-03-15T15:44:36Z</time>
   </trkpt>
   <trkpt lat="46.2420654296875" lon="6.98732376098633">
    <ele>317.428588867188</ele>
    <time>2012-03-15T15:44:37Z</time>
   </trkpt>
   <trkpt lat="46.2420616149902" lon="6.9873194694519">
    <ele>319.314300537109</ele>
    <time>2012-03-15T15:44:38Z</time>
   </trkpt>
   <trkpt lat="46.2420616149902" lon="6.98731374740601">
    <ele>321.200012207031</ele>
    <time>2012-03-15T15:44:39Z</time>
   </trkpt>
   <trkpt lat="46.2420501708984" lon="6.98729038238525">
    <ele>321.200012207031</ele>
    <time>2012-03-15T15:44:42Z</time>
   </trkpt>
   <trkpt lat="46.2420387268066" lon="6.98728132247925">
    <ele>321.114929199219</ele>
    <time>2012-03-15T15:44:43Z</time>
   </trkpt>
   <trkpt lat="46.2420234680176" lon="6.98721885681152">
    <ele>320.859680175781</ele>
    <time>2012-03-15T15:44:46Z</time>
   </trkpt>
   <trkpt lat="46.241943359375" lon="6.98710918426514">
    <ele>320.349182128906</ele>
    <time>2012-03-15T15:44:52Z</time>
   </trkpt>
   <trkpt lat="46.2418670654297" lon="6.98699808120728">
    <ele>319.923767089844</ele>
    <time>2012-03-15T15:44:57Z</time>
   </trkpt>
   <trkpt lat="46.2418746948242" lon="6.9869556427002">
    <ele>319.838684082031</ele>
    <time>2012-03-15T15:44:58Z</time>
   </trkpt>
   <trkpt lat="46.2418937683106" lon="6.9868745803833">
    <ele>319.668518066406</ele>
    <time>2012-03-15T15:45:00Z</time>
   </trkpt>
   <trkpt lat="46.2418174743652" lon="6.98672342300415">
    <ele>319.328186035156</ele>
    <time>2012-03-15T15:45:04Z</time>
   </trkpt>
   <trkpt lat="46.2417907714844" lon="6.98668432235718">
    <ele>319.243103027344</ele>
    <time>2012-03-15T15:45:05Z</time>
   </trkpt>
   <trkpt lat="46.2416801452637" lon="6.98642539978027">
    <ele>318.732604980469</ele>
    <time>2012-03-15T15:45:11Z</time>
   </trkpt>
   <trkpt lat="46.2415390014648" lon="6.98613548278809">
    <ele>318.051940917969</ele>
    <time>2012-03-15T15:45:19Z</time>
   </trkpt>
   <trkpt lat="46.2414932250977" lon="6.98606967926025">
    <ele>317.796691894531</ele>
    <time>2012-03-15T15:45:22Z</time>
   </trkpt>
   <trkpt lat="46.2414398193359" lon="6.9860029220581">
    <ele>317.456359863281</ele>
    <time>2012-03-15T15:45:26Z</time>
   </trkpt>
   <trkpt lat="46.2413597106934" lon="6.9858980178833">
    <ele>316.860778808594</ele>
    <time>2012-03-15T15:45:33Z</time>
   </trkpt>
   <trkpt lat="46.2412948608398" lon="6.98582935333252">
    <ele>316.435363769531</ele>
    <time>2012-03-15T15:45:38Z</time>
   </trkpt>
   <trkpt lat="46.2412796020508" lon="6.98580932617188">
    <ele>316.265197753906</ele>
    <time>2012-03-15T15:45:40Z</time>
   </trkpt>
   <trkpt lat="46.2412757873535" lon="6.98580646514893">
    <ele>315.839782714844</ele>
    <time>2012-03-15T15:45:45Z</time>
   </trkpt>
   <trkpt lat="46.2412757873535" lon="6.98580646514893">
    <ele>315.754699707031</ele>
    <time>2012-03-15T15:45:46Z</time>
   </trkpt>
   <trkpt lat="46.2412757873535" lon="6.98580646514893">
    <ele>315.329284667969</ele>
    <time>2012-03-15T15:45:51Z</time>
   </trkpt>
   <trkpt lat="46.2412757873535" lon="6.98580121994018">
    <ele>314.308288574219</ele>
    <time>2012-03-15T15:46:03Z</time>
   </trkpt>
   <trkpt lat="46.241268157959" lon="6.98579406738281">
    <ele>313.542541503906</ele>
    <time>2012-03-15T15:46:12Z</time>
   </trkpt>
   <trkpt lat="46.241268157959" lon="6.98579406738281">
    <ele>313.117126464844</ele>
    <time>2012-03-15T15:46:17Z</time>
   </trkpt>
   <trkpt lat="46.2408332824707" lon="6.98537445068359">
    <ele>305.799987792969</ele>
    <time>2012-03-15T15:47:43Z</time>
   </trkpt>
   <trkpt lat="46.2407913208008" lon="6.98534393310547">
    <ele>305.799987792969</ele>
    <time>2012-03-15T15:47:44Z</time>
   </trkpt>
   <trkpt lat="46.2405281066894" lon="6.98514127731323">
    <ele>306.053833007812</ele>
    <time>2012-03-15T15:47:50Z</time>
   </trkpt>
   <trkpt lat="46.240177154541" lon="6.9848575592041">
    <ele>306.392303466797</ele>
    <time>2012-03-15T15:47:58Z</time>
   </trkpt>
   <trkpt lat="46.2400016784668" lon="6.98461532592774">
    <ele>306.603851318359</ele>
    <time>2012-03-15T15:48:03Z</time>
   </trkpt>
   <trkpt lat="46.2399711608887" lon="6.98456430435181">
    <ele>306.646148681641</ele>
    <time>2012-03-15T15:48:04Z</time>
   </trkpt>
   <trkpt lat="46.2397499084473" lon="6.98409795761108">
    <ele>306.984619140625</ele>
    <time>2012-03-15T15:48:12Z</time>
   </trkpt>
   <trkpt lat="46.2395782470703" lon="6.9836893081665">
    <ele>307.28076171875</ele>
    <time>2012-03-15T15:48:19Z</time>
   </trkpt>
   <trkpt lat="46.2394371032715" lon="6.9833493232727">
    <ele>307.534606933594</ele>
    <time>2012-03-15T15:48:25Z</time>
   </trkpt>
   <trkpt lat="46.2393951416016" lon="6.98324489593506">
    <ele>307.619232177734</ele>
    <time>2012-03-15T15:48:27Z</time>
   </trkpt>
   <trkpt lat="46.239372253418" lon="6.98319959640503">
    <ele>307.661529541016</ele>
    <time>2012-03-15T15:48:28Z</time>
   </trkpt>
   <trkpt lat="46.2392463684082" lon="6.98310375213623">
    <ele>307.830780029297</ele>
    <time>2012-03-15T15:48:32Z</time>
   </trkpt>
   <trkpt lat="46.2392120361328" lon="6.98310422897339">
    <ele>307.873077392578</ele>
    <time>2012-03-15T15:48:33Z</time>
   </trkpt>
   <trkpt lat="46.2391777038574" lon="6.9831018447876">
    <ele>307.915374755859</ele>
    <time>2012-03-15T15:48:34Z</time>
   </trkpt>
   <trkpt lat="46.239143371582" lon="6.98310136795044">
    <ele>307.957702636719</ele>
    <time>2012-03-15T15:48:35Z</time>
   </trkpt>
   <trkpt lat="46.2391090393066" lon="6.98311376571655">
    <ele>308</ele>
    <time>2012-03-15T15:48:36Z</time>
   </trkpt>
   <trkpt lat="46.2390785217285" lon="6.9831280708313">
    <ele>308</ele>
    <time>2012-03-15T15:48:37Z</time>
   </trkpt>
   <trkpt lat="46.2389678955078" lon="6.9832353591919">
    <ele>309.222229003906</ele>
    <time>2012-03-15T15:48:42Z</time>
   </trkpt>
   <trkpt lat="46.238941192627" lon="6.98325538635254">
    <ele>309.466674804688</ele>
    <time>2012-03-15T15:48:43Z</time>
   </trkpt>
   <trkpt lat="46.2389221191406" lon="6.98327541351318">
    <ele>309.711120605469</ele>
    <time>2012-03-15T15:48:44Z</time>
   </trkpt>
   <trkpt lat="46.2389068603516" lon="6.98329544067383">
    <ele>309.95556640625</ele>
    <time>2012-03-15T15:48:45Z</time>
   </trkpt>
   <trkpt lat="46.2388916015625" lon="6.98331546783447">
    <ele>310.200012207031</ele>
    <time>2012-03-15T15:48:46Z</time>
   </trkpt>
   <trkpt lat="46.2388572692871" lon="6.98336601257324">
    <ele>310.200012207031</ele>
    <time>2012-03-15T15:48:48Z</time>
   </trkpt>
   <trkpt lat="46.2388114929199" lon="6.98342180252075">
    <ele>310.987518310547</ele>
    <time>2012-03-15T15:48:51Z</time>
   </trkpt>
   <trkpt lat="46.2387924194336" lon="6.98343896865845">
    <ele>311.25</ele>
    <time>2012-03-15T15:48:52Z</time>
   </trkpt>
   <trkpt lat="46.23876953125" lon="6.98346281051636">
    <ele>311.512512207031</ele>
    <time>2012-03-15T15:48:53Z</time>
   </trkpt>
   <trkpt lat="46.2387466430664" lon="6.9834794998169">
    <ele>311.774993896484</ele>
    <time>2012-03-15T15:48:54Z</time>
   </trkpt>
   <trkpt lat="46.2387313842773" lon="6.98350095748901">
    <ele>312.037506103516</ele>
    <time>2012-03-15T15:48:55Z</time>
   </trkpt>
   <trkpt lat="46.2386283874512" lon="6.98357200622559">
    <ele>313.350006103516</ele>
    <time>2012-03-15T15:49:00Z</time>
   </trkpt>
   <trkpt lat="46.2386054992676" lon="6.98358345031738">
    <ele>313.612487792969</ele>
    <time>2012-03-15T15:49:01Z</time>
   </trkpt>
   <trkpt lat="46.2385940551758" lon="6.98359727859497">
    <ele>313.875</ele>
    <time>2012-03-15T15:49:02Z</time>
   </trkpt>
   <trkpt lat="46.2385787963867" lon="6.98361825942993">
    <ele>314.137481689453</ele>
    <time>2012-03-15T15:49:03Z</time>
   </trkpt>
   <trkpt lat="46.2385597229004" lon="6.98363590240478">
    <ele>314.399993896484</ele>
    <time>2012-03-15T15:49:04Z</time>
   </trkpt>
   <trkpt lat="46.2385406494141" lon="6.98364686965942">
    <ele>314.399993896484</ele>
    <time>2012-03-15T15:49:05Z</time>
   </trkpt>
   <trkpt lat="46.2384605407715" lon="6.9837121963501">
    <ele>315.542846679688</ele>
    <time>2012-03-15T15:49:09Z</time>
   </trkpt>
   <trkpt lat="46.2384414672852" lon="6.98371839523315">
    <ele>315.828552246094</ele>
    <time>2012-03-15T15:49:10Z</time>
   </trkpt>
   <trkpt lat="46.2384262084961" lon="6.98373460769653">
    <ele>316.114288330078</ele>
    <time>2012-03-15T15:49:11Z</time>
   </trkpt>
   <trkpt lat="46.2384071350098" lon="6.98374509811401">
    <ele>316.399993896484</ele>
    <time>2012-03-15T15:49:12Z</time>
   </trkpt>
   <trkpt lat="46.238353729248" lon="6.98380422592163">
    <ele>316.399993896484</ele>
    <time>2012-03-15T15:49:16Z</time>
   </trkpt>
   <trkpt lat="46.2383155822754" lon="6.9838342666626">
    <ele>317.133331298828</ele>
    <time>2012-03-15T15:49:18Z</time>
   </trkpt>
   <trkpt lat="46.2383003234863" lon="6.98385095596314">
    <ele>317.5</ele>
    <time>2012-03-15T15:49:19Z</time>
   </trkpt>
   <trkpt lat="46.2382926940918" lon="6.98385620117188">
    <ele>317.866668701172</ele>
    <time>2012-03-15T15:49:20Z</time>
   </trkpt>
   <trkpt lat="46.2382774353027" lon="6.98387432098389">
    <ele>318.233337402344</ele>
    <time>2012-03-15T15:49:21Z</time>
   </trkpt>
   <trkpt lat="46.2382621765137" lon="6.98388624191284">
    <ele>318.600006103516</ele>
    <time>2012-03-15T15:49:22Z</time>
   </trkpt>
   <trkpt lat="46.2382049560547" lon="6.98390626907349">
    <ele>318.600006103516</ele>
    <time>2012-03-15T15:49:27Z</time>
   </trkpt>
   <trkpt lat="46.2381973266602" lon="6.98390913009644">
    <ele>319</ele>
    <time>2012-03-15T15:49:28Z</time>
   </trkpt>
   <trkpt lat="46.2381744384766" lon="6.98391485214233">
    <ele>319.399993896484</ele>
    <time>2012-03-15T15:49:29Z</time>
   </trkpt>
   <trkpt lat="46.2381553649902" lon="6.98392915725708">
    <ele>319.800018310547</ele>
    <time>2012-03-15T15:49:30Z</time>
   </trkpt>
   <trkpt lat="46.2381324768066" lon="6.98394775390625">
    <ele>320.200012207031</ele>
    <time>2012-03-15T15:49:31Z</time>
   </trkpt>
   <trkpt lat="46.2381210327148" lon="6.98395204544067">
    <ele>320.600006103516</ele>
    <time>2012-03-15T15:49:32Z</time>
   </trkpt>
   <trkpt lat="46.2380561828613" lon="6.98400592803955">
    <ele>320.600006103516</ele>
    <time>2012-03-15T15:49:36Z</time>
   </trkpt>
   <trkpt lat="46.238037109375" lon="6.98401927947998">
    <ele>321.040008544922</ele>
    <time>2012-03-15T15:49:37Z</time>
   </trkpt>
   <trkpt lat="46.2380180358887" lon="6.98403930664062">
    <ele>321.480010986328</ele>
    <time>2012-03-15T15:49:38Z</time>
   </trkpt>
   <trkpt lat="46.2379951477051" lon="6.98405265808106">
    <ele>321.919982910156</ele>
    <time>2012-03-15T15:49:39Z</time>
   </trkpt>
   <trkpt lat="46.2379760742188" lon="6.9840669631958">
    <ele>322.359985351562</ele>
    <time>2012-03-15T15:49:40Z</time>
   </trkpt>
   <trkpt lat="46.2379531860352" lon="6.98408842086792">
    <ele>322.799987792969</ele>
    <time>2012-03-15T15:49:41Z</time>
   </trkpt>
   <trkpt lat="46.2379188537598" lon="6.98410892486572">
    <ele>322.799987792969</ele>
    <time>2012-03-15T15:49:43Z</time>
   </trkpt>
   <trkpt lat="46.2378730773926" lon="6.98413419723511">
    <ele>323.657135009766</ele>
    <time>2012-03-15T15:49:46Z</time>
   </trkpt>
   <trkpt lat="46.2378540039062" lon="6.98413467407226">
    <ele>323.942840576172</ele>
    <time>2012-03-15T15:49:47Z</time>
   </trkpt>
   <trkpt lat="46.2378273010254" lon="6.98413133621216">
    <ele>324.228546142578</ele>
    <time>2012-03-15T15:49:48Z</time>
   </trkpt>
   <trkpt lat="46.2378044128418" lon="6.98413610458374">
    <ele>324.514282226562</ele>
    <time>2012-03-15T15:49:49Z</time>
   </trkpt>
   <trkpt lat="46.2377891540527" lon="6.98415088653564">
    <ele>324.799987792969</ele>
    <time>2012-03-15T15:49:50Z</time>
   </trkpt>
   <trkpt lat="46.237735748291" lon="6.9841890335083">
    <ele>324.799987792969</ele>
    <time>2012-03-15T15:49:53Z</time>
   </trkpt>
   <trkpt lat="46.2377014160156" lon="6.98419332504272">
    <ele>325.533325195312</ele>
    <time>2012-03-15T15:49:55Z</time>
   </trkpt>
   <trkpt lat="46.2376823425293" lon="6.98420524597168">
    <ele>325.899993896484</ele>
    <time>2012-03-15T15:49:56Z</time>
   </trkpt>
   <trkpt lat="46.237663269043" lon="6.98420476913452">
    <ele>326.266662597656</ele>
    <time>2012-03-15T15:49:57Z</time>
   </trkpt>
   <trkpt lat="46.2376480102539" lon="6.98421859741211">
    <ele>326.633331298828</ele>
    <time>2012-03-15T15:49:58Z</time>
   </trkpt>
   <trkpt lat="46.2376289367676" lon="6.98423385620117">
    <ele>327</ele>
    <time>2012-03-15T15:49:59Z</time>
   </trkpt>
   <trkpt lat="46.2375984191894" lon="6.98426866531372">
    <ele>327</ele>
    <time>2012-03-15T15:50:01Z</time>
   </trkpt>
   <trkpt lat="46.2375373840332" lon="6.98432683944702">
    <ele>328.100006103516</ele>
    <time>2012-03-15T15:50:05Z</time>
   </trkpt>
   <trkpt lat="46.2375221252441" lon="6.98434066772461">
    <ele>328.375</ele>
    <time>2012-03-15T15:50:06Z</time>
   </trkpt>
   <trkpt lat="46.2375106811523" lon="6.98435401916504">
    <ele>328.650024414062</ele>
    <time>2012-03-15T15:50:07Z</time>
   </trkpt>
   <trkpt lat="46.2374992370606" lon="6.9843635559082">
    <ele>328.925018310547</ele>
    <time>2012-03-15T15:50:08Z</time>
   </trkpt>
   <trkpt lat="46.2374801635742" lon="6.98437452316284">
    <ele>329.200012207031</ele>
    <time>2012-03-15T15:50:09Z</time>
   </trkpt>
   <trkpt lat="46.2374229431152" lon="6.98442316055298">
    <ele>329.200012207031</ele>
    <time>2012-03-15T15:50:12Z</time>
   </trkpt>
   <trkpt lat="46.2373847961426" lon="6.98445749282837">
    <ele>329.866668701172</ele>
    <time>2012-03-15T15:50:14Z</time>
   </trkpt>
   <trkpt lat="46.2373657226562" lon="6.98446655273438">
    <ele>330.200012207031</ele>
    <time>2012-03-15T15:50:15Z</time>
   </trkpt>
   <trkpt lat="46.2373466491699" lon="6.98447370529175">
    <ele>330.533355712891</ele>
    <time>2012-03-15T15:50:16Z</time>
   </trkpt>
   <trkpt lat="46.2373275756836" lon="6.98448419570923">
    <ele>330.866668701172</ele>
    <time>2012-03-15T15:50:17Z</time>
   </trkpt>
   <trkpt lat="46.2373161315918" lon="6.98448801040649">
    <ele>331.200012207031</ele>
    <time>2012-03-15T15:50:18Z</time>
   </trkpt>
   <trkpt lat="46.2372703552246" lon="6.98451900482178">
    <ele>331.200012207031</ele>
    <time>2012-03-15T15:50:21Z</time>
   </trkpt>
   <trkpt lat="46.2372398376465" lon="6.98454809188843">
    <ele>332.080017089844</ele>
    <time>2012-03-15T15:50:23Z</time>
   </trkpt>
   <trkpt lat="46.2372207641602" lon="6.98455762863159">
    <ele>332.519989013672</ele>
    <time>2012-03-15T15:50:24Z</time>
   </trkpt>
   <trkpt lat="46.2371978759766" lon="6.98456382751465">
    <ele>332.959991455078</ele>
    <time>2012-03-15T15:50:25Z</time>
   </trkpt>
   <trkpt lat="46.2371788024902" lon="6.98456573486328">
    <ele>333.399993896484</ele>
    <time>2012-03-15T15:50:26Z</time>
   </trkpt>
   <trkpt lat="46.2371597290039" lon="6.98456811904907">
    <ele>333.399993896484</ele>
    <time>2012-03-15T15:50:27Z</time>
   </trkpt>
   <trkpt lat="46.237117767334" lon="6.98457288742065">
    <ele>334.342864990234</ele>
    <time>2012-03-15T15:50:30Z</time>
   </trkpt>
   <trkpt lat="46.2371025085449" lon="6.98457765579224">
    <ele>334.657135009766</ele>
    <time>2012-03-15T15:50:31Z</time>
   </trkpt>
   <trkpt lat="46.2370872497559" lon="6.98459005355835">
    <ele>334.971435546875</ele>
    <time>2012-03-15T15:50:32Z</time>
   </trkpt>
   <trkpt lat="46.2370758056641" lon="6.98459959030151">
    <ele>335.285705566406</ele>
    <time>2012-03-15T15:50:33Z</time>
   </trkpt>
   <trkpt lat="46.2370567321777" lon="6.98460817337036">
    <ele>335.600006103516</ele>
    <time>2012-03-15T15:50:34Z</time>
   </trkpt>
   <trkpt lat="46.2370262145996" lon="6.98461627960205">
    <ele>335.600006103516</ele>
    <time>2012-03-15T15:50:36Z</time>
   </trkpt>
   <trkpt lat="46.2369613647461" lon="6.98465490341186">
    <ele>336.600006103516</ele>
    <time>2012-03-15T15:50:40Z</time>
   </trkpt>
   <trkpt lat="46.2369422912598" lon="6.98465824127197">
    <ele>336.850006103516</ele>
    <time>2012-03-15T15:50:41Z</time>
   </trkpt>
   <trkpt lat="46.2369270324707" lon="6.98467111587524">
    <ele>337.100006103516</ele>
    <time>2012-03-15T15:50:42Z</time>
   </trkpt>
   <trkpt lat="46.2369079589844" lon="6.98468446731567">
    <ele>337.350006103516</ele>
    <time>2012-03-15T15:50:43Z</time>
   </trkpt>
   <trkpt lat="46.2368927001953" lon="6.98469114303589">
    <ele>337.600006103516</ele>
    <time>2012-03-15T15:50:44Z</time>
   </trkpt>
   <trkpt lat="46.2368850708008" lon="6.98470163345337">
    <ele>337.600006103516</ele>
    <time>2012-03-15T15:50:45Z</time>
   </trkpt>
   <trkpt lat="46.2368659973144" lon="6.98471403121948">
    <ele>337.914276123047</ele>
    <time>2012-03-15T15:50:46Z</time>
   </trkpt>
   <trkpt lat="46.2368316650391" lon="6.98473215103149">
    <ele>338.542846679688</ele>
    <time>2012-03-15T15:50:48Z</time>
   </trkpt>
   <trkpt lat="46.23681640625" lon="6.98474502563476">
    <ele>338.857147216797</ele>
    <time>2012-03-15T15:50:49Z</time>
   </trkpt>
   <trkpt lat="46.2368011474609" lon="6.98475933074951">
    <ele>339.171417236328</ele>
    <time>2012-03-15T15:50:50Z</time>
   </trkpt>
   <trkpt lat="46.2367858886719" lon="6.98476696014404">
    <ele>339.485717773438</ele>
    <time>2012-03-15T15:50:51Z</time>
   </trkpt>
   <trkpt lat="46.2367744445801" lon="6.98477792739868">
    <ele>339.799987792969</ele>
    <time>2012-03-15T15:50:52Z</time>
   </trkpt>
   <trkpt lat="46.236743927002" lon="6.98480415344238">
    <ele>339.799987792969</ele>
    <time>2012-03-15T15:50:54Z</time>
   </trkpt>
   <trkpt lat="46.236701965332" lon="6.98481702804565">
    <ele>340.321716308594</ele>
    <time>2012-03-15T15:50:56Z</time>
   </trkpt>
   <trkpt lat="46.2366561889648" lon="6.98483991622925">
    <ele>340.843475341797</ele>
    <time>2012-03-15T15:50:58Z</time>
   </trkpt>
   <trkpt lat="46.2366333007812" lon="6.98485231399536">
    <ele>341.104339599609</ele>
    <time>2012-03-15T15:50:59Z</time>
   </trkpt>
   <trkpt lat="46.2366218566894" lon="6.98486042022705">
    <ele>341.365203857422</ele>
    <time>2012-03-15T15:51:00Z</time>
   </trkpt>
   <trkpt lat="46.2366027832031" lon="6.98486185073852">
    <ele>341.626068115234</ele>
    <time>2012-03-15T15:51:01Z</time>
   </trkpt>
   <trkpt lat="46.2365837097168" lon="6.98486089706421">
    <ele>341.886932373047</ele>
    <time>2012-03-15T15:51:02Z</time>
   </trkpt>
   <trkpt lat="46.236515045166" lon="6.9848837852478">
    <ele>342.930419921875</ele>
    <time>2012-03-15T15:51:06Z</time>
   </trkpt>
   <trkpt lat="46.2364921569824" lon="6.98488998413086">
    <ele>343.191284179688</ele>
    <time>2012-03-15T15:51:07Z</time>
   </trkpt>
   <trkpt lat="46.2364768981934" lon="6.98488903045654">
    <ele>343.4521484375</ele>
    <time>2012-03-15T15:51:08Z</time>
   </trkpt>
   <trkpt lat="46.2364540100098" lon="6.98488569259644">
    <ele>343.713043212891</ele>
    <time>2012-03-15T15:51:09Z</time>
   </trkpt>
   <trkpt lat="46.2364349365234" lon="6.98488855361938">
    <ele>343.973907470703</ele>
    <time>2012-03-15T15:51:10Z</time>
   </trkpt>
   <trkpt lat="46.236385345459" lon="6.9848952293396">
    <ele>344.756500244141</ele>
    <time>2012-03-15T15:51:13Z</time>
   </trkpt>
   <trkpt lat="46.2363662719727" lon="6.98489475250244">
    <ele>345.017364501953</ele>
    <time>2012-03-15T15:51:14Z</time>
   </trkpt>
   <trkpt lat="46.2363510131836" lon="6.98489713668823">
    <ele>345.278259277344</ele>
    <time>2012-03-15T15:51:15Z</time>
   </trkpt>
   <trkpt lat="46.2363395690918" lon="6.98490142822266">
    <ele>345.539123535156</ele>
    <time>2012-03-15T15:51:16Z</time>
   </trkpt>
   <trkpt lat="46.2363243103027" lon="6.9848952293396">
    <ele>345.799987792969</ele>
    <time>2012-03-15T15:51:17Z</time>
   </trkpt>
   <trkpt lat="46.2362861633301" lon="6.98489809036255">
    <ele>345.799987792969</ele>
    <time>2012-03-15T15:51:19Z</time>
   </trkpt>
   <trkpt lat="46.2362327575684" lon="6.98488569259644">
    <ele>346.899993896484</ele>
    <time>2012-03-15T15:51:23Z</time>
   </trkpt>
   <trkpt lat="46.2362174987793" lon="6.98488855361938">
    <ele>347.174987792969</ele>
    <time>2012-03-15T15:51:24Z</time>
   </trkpt>
   <trkpt lat="46.236198425293" lon="6.98489427566528">
    <ele>347.450012207031</ele>
    <time>2012-03-15T15:51:25Z</time>
   </trkpt>
   <trkpt lat="46.2361831665039" lon="6.98489427566528">
    <ele>347.725006103516</ele>
    <time>2012-03-15T15:51:26Z</time>
   </trkpt>
   <trkpt lat="46.2361679077148" lon="6.98489427566528">
    <ele>348</ele>
    <time>2012-03-15T15:51:27Z</time>
   </trkpt>
   <trkpt lat="46.2361068725586" lon="6.98489618301392">
    <ele>348</ele>
    <time>2012-03-15T15:51:31Z</time>
   </trkpt>
   <trkpt lat="46.2360382080078" lon="6.98490810394287">
    <ele>349.142852783203</ele>
    <time>2012-03-15T15:51:35Z</time>
   </trkpt>
   <trkpt lat="46.2360191345215" lon="6.98491525650024">
    <ele>349.428558349609</ele>
    <time>2012-03-15T15:51:36Z</time>
   </trkpt>
   <trkpt lat="46.2360000610352" lon="6.98490953445435">
    <ele>349.714294433594</ele>
    <time>2012-03-15T15:51:37Z</time>
   </trkpt>
   <trkpt lat="46.2359771728516" lon="6.98491287231445">
    <ele>350</ele>
    <time>2012-03-15T15:51:38Z</time>
   </trkpt>
   <trkpt lat="46.2358779907227" lon="6.98492908477783">
    <ele>350</ele>
    <time>2012-03-15T15:51:42Z</time>
   </trkpt>
   <trkpt lat="46.2357749938965" lon="6.98494911193848">
    <ele>351.222229003906</ele>
    <time>2012-03-15T15:51:47Z</time>
   </trkpt>
   <trkpt lat="46.2357482910156" lon="6.98495864868164">
    <ele>351.466674804688</ele>
    <time>2012-03-15T15:51:48Z</time>
   </trkpt>
   <trkpt lat="46.235725402832" lon="6.98495721817017">
    <ele>351.711120605469</ele>
    <time>2012-03-15T15:51:49Z</time>
   </trkpt>
   <trkpt lat="46.2357025146484" lon="6.98495960235596">
    <ele>351.95556640625</ele>
    <time>2012-03-15T15:51:50Z</time>
   </trkpt>
   <trkpt lat="46.2356834411621" lon="6.98496198654175">
    <ele>352.200012207031</ele>
    <time>2012-03-15T15:51:51Z</time>
   </trkpt>
   <trkpt lat="46.2355842590332" lon="6.98499965667725">
    <ele>352.200012207031</ele>
    <time>2012-03-15T15:51:56Z</time>
   </trkpt>
   <trkpt lat="46.2355422973633" lon="6.98500967025757">
    <ele>352.866668701172</ele>
    <time>2012-03-15T15:51:58Z</time>
   </trkpt>
   <trkpt lat="46.2355194091797" lon="6.98502206802368">
    <ele>353.200012207031</ele>
    <time>2012-03-15T15:51:59Z</time>
   </trkpt>
   <trkpt lat="46.2354965209961" lon="6.98503494262695">
    <ele>353.533355712891</ele>
    <time>2012-03-15T15:52:00Z</time>
   </trkpt>
   <trkpt lat="46.2354774475098" lon="6.98504114151001">
    <ele>353.866668701172</ele>
    <time>2012-03-15T15:52:01Z</time>
   </trkpt>
   <trkpt lat="46.2354583740234" lon="6.98505401611328">
    <ele>354.200012207031</ele>
    <time>2012-03-15T15:52:02Z</time>
   </trkpt>
   <trkpt lat="46.2354164123535" lon="6.98507690429688">
    <ele>354.200012207031</ele>
    <time>2012-03-15T15:52:04Z</time>
   </trkpt>
   <trkpt lat="46.2352714538574" lon="6.98514175415039">
    <ele>355.600006103516</ele>
    <time>2012-03-15T15:52:11Z</time>
   </trkpt>
   <trkpt lat="46.2352485656738" lon="6.98515033721924">
    <ele>355.799987792969</ele>
    <time>2012-03-15T15:52:12Z</time>
   </trkpt>
   <trkpt lat="46.2352294921875" lon="6.98516511917114">
    <ele>356</ele>
    <time>2012-03-15T15:52:13Z</time>
   </trkpt>
   <trkpt lat="46.2352066040039" lon="6.98517465591431">
    <ele>356.199981689453</ele>
    <time>2012-03-15T15:52:14Z</time>
   </trkpt>
   <trkpt lat="46.235179901123" lon="6.98518228530884">
    <ele>356.399993896484</ele>
    <time>2012-03-15T15:52:15Z</time>
   </trkpt>
   <trkpt lat="46.2351341247559" lon="6.9851861000061">
    <ele>356.399993896484</ele>
    <time>2012-03-15T15:52:17Z</time>
   </trkpt>
   <trkpt lat="46.2349853515625" lon="6.98519515991211">
    <ele>357.600006103516</ele>
    <time>2012-03-15T15:52:23Z</time>
   </trkpt>
   <trkpt lat="46.2349624633789" lon="6.98519420623779">
    <ele>357.799987792969</ele>
    <time>2012-03-15T15:52:24Z</time>
   </trkpt>
   <trkpt lat="46.2349395751953" lon="6.98520183563232">
    <ele>358</ele>
    <time>2012-03-15T15:52:25Z</time>
   </trkpt>
   <trkpt lat="46.2349166870117" lon="6.98520421981812">
    <ele>358.199981689453</ele>
    <time>2012-03-15T15:52:26Z</time>
   </trkpt>
   <trkpt lat="46.2348937988281" lon="6.9852089881897">
    <ele>358.399993896484</ele>
    <time>2012-03-15T15:52:27Z</time>
   </trkpt>
   <trkpt lat="46.2348556518555" lon="6.98520517349243">
    <ele>358.399993896484</ele>
    <time>2012-03-15T15:52:29Z</time>
   </trkpt>
   <trkpt lat="46.2347717285156" lon="6.98519992828369">
    <ele>359.511108398438</ele>
    <time>2012-03-15T15:52:34Z</time>
   </trkpt>
   <trkpt lat="46.2347526550293" lon="6.98520565032959">
    <ele>359.733337402344</ele>
    <time>2012-03-15T15:52:35Z</time>
   </trkpt>
   <trkpt lat="46.2347297668457" lon="6.98521280288696">
    <ele>359.955535888672</ele>
    <time>2012-03-15T15:52:36Z</time>
   </trkpt>
   <trkpt lat="46.2347106933594" lon="6.98522090911865">
    <ele>360.177764892578</ele>
    <time>2012-03-15T15:52:37Z</time>
   </trkpt>
   <trkpt lat="46.2346954345703" lon="6.9852237701416">
    <ele>360.399993896484</ele>
    <time>2012-03-15T15:52:38Z</time>
   </trkpt>
   <trkpt lat="46.2346420288086" lon="6.98523044586182">
    <ele>360.399993896484</ele>
    <time>2012-03-15T15:52:41Z</time>
   </trkpt>
   <trkpt lat="46.2345657348633" lon="6.98524761199951">
    <ele>361.5</ele>
    <time>2012-03-15T15:52:45Z</time>
   </trkpt>
   <trkpt lat="46.234546661377" lon="6.98525190353394">
    <ele>361.774993896484</ele>
    <time>2012-03-15T15:52:46Z</time>
   </trkpt>
   <trkpt lat="46.2345275878906" lon="6.98525953292847">
    <ele>362.049987792969</ele>
    <time>2012-03-15T15:52:47Z</time>
   </trkpt>
   <trkpt lat="46.2345123291016" lon="6.9852728843689">
    <ele>362.325012207031</ele>
    <time>2012-03-15T15:52:48Z</time>
   </trkpt>
   <trkpt lat="46.2344932556152" lon="6.98527479171753">
    <ele>362.600006103516</ele>
    <time>2012-03-15T15:52:49Z</time>
   </trkpt>
   <trkpt lat="46.2344398498535" lon="6.98529291152954">
    <ele>362.600006103516</ele>
    <time>2012-03-15T15:52:52Z</time>
   </trkpt>
   <trkpt lat="46.2344245910644" lon="6.9852933883667">
    <ele>363</ele>
    <time>2012-03-15T15:52:53Z</time>
   </trkpt>
   <trkpt lat="46.2344093322754" lon="6.98528623580933">
    <ele>363.399993896484</ele>
    <time>2012-03-15T15:52:54Z</time>
   </trkpt>
   <trkpt lat="46.2343940734863" lon="6.9852876663208">
    <ele>363.800018310547</ele>
    <time>2012-03-15T15:52:55Z</time>
   </trkpt>
   <trkpt lat="46.2343711853027" lon="6.98529100418091">
    <ele>364.200012207031</ele>
    <time>2012-03-15T15:52:56Z</time>
   </trkpt>
   <trkpt lat="46.2343482971191" lon="6.98529386520386">
    <ele>364.600006103516</ele>
    <time>2012-03-15T15:52:57Z</time>
   </trkpt>
   <trkpt lat="46.2343292236328" lon="6.98529958724976">
    <ele>364.600006103516</ele>
    <time>2012-03-15T15:52:58Z</time>
   </trkpt>
   <trkpt lat="46.234260559082" lon="6.98529863357544">
    <ele>365.635284423828</ele>
    <time>2012-03-15T15:53:02Z</time>
   </trkpt>
   <trkpt lat="46.2342414855957" lon="6.9853048324585">
    <ele>365.894134521484</ele>
    <time>2012-03-15T15:53:03Z</time>
   </trkpt>
   <trkpt lat="46.2342262268066" lon="6.9852933883667">
    <ele>366.152954101562</ele>
    <time>2012-03-15T15:53:04Z</time>
   </trkpt>
   <trkpt lat="46.2342071533203" lon="6.9852876663208">
    <ele>366.411773681641</ele>
    <time>2012-03-15T15:53:05Z</time>
   </trkpt>
   <trkpt lat="46.2341842651367" lon="6.98528575897217">
    <ele>366.670593261719</ele>
    <time>2012-03-15T15:53:06Z</time>
   </trkpt>
   <trkpt lat="46.2340965270996" lon="6.98528003692627">
    <ele>367.964721679688</ele>
    <time>2012-03-15T15:53:11Z</time>
   </trkpt>
   <trkpt lat="46.2340774536133" lon="6.98528146743774">
    <ele>368.223541259766</ele>
    <time>2012-03-15T15:53:12Z</time>
   </trkpt>
   <trkpt lat="46.2340621948242" lon="6.98527479171753">
    <ele>368.482360839844</ele>
    <time>2012-03-15T15:53:13Z</time>
   </trkpt>
   <trkpt lat="46.2340469360352" lon="6.98527097702026">
    <ele>368.741180419922</ele>
    <time>2012-03-15T15:53:14Z</time>
   </trkpt>
   <trkpt lat="46.2340316772461" lon="6.98526906967163">
    <ele>369</ele>
    <time>2012-03-15T15:53:15Z</time>
   </trkpt>
   <trkpt lat="46.2339820861816" lon="6.98527526855469">
    <ele>369</ele>
    <time>2012-03-15T15:53:18Z</time>
   </trkpt>
   <trkpt lat="46.2339477539062" lon="6.98527479171753">
    <ele>369.666656494141</ele>
    <time>2012-03-15T15:53:20Z</time>
   </trkpt>
   <trkpt lat="46.2339286804199" lon="6.98527431488037">
    <ele>370</ele>
    <time>2012-03-15T15:53:21Z</time>
   </trkpt>
   <trkpt lat="46.2339096069336" lon="6.98526811599732">
    <ele>370.333343505859</ele>
    <time>2012-03-15T15:53:22Z</time>
   </trkpt>
   <trkpt lat="46.2338905334473" lon="6.98527431488037">
    <ele>370.666656494141</ele>
    <time>2012-03-15T15:53:23Z</time>
   </trkpt>
   <trkpt lat="46.2338676452637" lon="6.98527145385742">
    <ele>371</ele>
    <time>2012-03-15T15:53:24Z</time>
   </trkpt>
   <trkpt lat="46.233814239502" lon="6.9852876663208">
    <ele>371</ele>
    <time>2012-03-15T15:53:27Z</time>
   </trkpt>
   <trkpt lat="46.2337837219238" lon="6.98527812957764">
    <ele>371.733337402344</ele>
    <time>2012-03-15T15:53:29Z</time>
   </trkpt>
   <trkpt lat="46.2337646484375" lon="6.98528575897217">
    <ele>372.100006103516</ele>
    <time>2012-03-15T15:53:30Z</time>
   </trkpt>
   <trkpt lat="46.2337455749512" lon="6.98528861999512">
    <ele>372.466674804688</ele>
    <time>2012-03-15T15:53:31Z</time>
   </trkpt>
   <trkpt lat="46.2337226867676" lon="6.9852933883667">
    <ele>372.833343505859</ele>
    <time>2012-03-15T15:53:32Z</time>
   </trkpt>
   <trkpt lat="46.2337036132812" lon="6.98528718948364">
    <ele>373.200012207031</ele>
    <time>2012-03-15T15:53:33Z</time>
   </trkpt>
   <trkpt lat="46.2336692810059" lon="6.98528003692627">
    <ele>373.200012207031</ele>
    <time>2012-03-15T15:53:35Z</time>
   </trkpt>
   <trkpt lat="46.2336044311523" lon="6.98527717590332">
    <ele>374.141174316406</ele>
    <time>2012-03-15T15:53:39Z</time>
   </trkpt>
   <trkpt lat="46.233585357666" lon="6.9852819442749">
    <ele>374.376495361328</ele>
    <time>2012-03-15T15:53:40Z</time>
   </trkpt>
   <trkpt lat="46.2335662841797" lon="6.98528289794922">
    <ele>374.611785888672</ele>
    <time>2012-03-15T15:53:41Z</time>
   </trkpt>
   <trkpt lat="46.2335472106934" lon="6.98528337478638">
    <ele>374.847076416016</ele>
    <time>2012-03-15T15:53:42Z</time>
   </trkpt>
   <trkpt lat="46.2334365844727" lon="6.98528289794922">
    <ele>376.258850097656</ele>
    <time>2012-03-15T15:53:48Z</time>
   </trkpt>
   <trkpt lat="46.2334175109863" lon="6.98528099060059">
    <ele>376.494140625</ele>
    <time>2012-03-15T15:53:49Z</time>
   </trkpt>
   <trkpt lat="46.2333984375" lon="6.98527574539185">
    <ele>376.729431152344</ele>
    <time>2012-03-15T15:53:50Z</time>
   </trkpt>
   <trkpt lat="46.2333793640137" lon="6.98527765274048">
    <ele>376.964721679688</ele>
    <time>2012-03-15T15:53:51Z</time>
   </trkpt>
   <trkpt lat="46.2333602905273" lon="6.98528051376343">
    <ele>377.200012207031</ele>
    <time>2012-03-15T15:53:52Z</time>
   </trkpt>
   <trkpt lat="46.2333030700684" lon="6.98528051376343">
    <ele>377.200012207031</ele>
    <time>2012-03-15T15:53:55Z</time>
   </trkpt>
   <trkpt lat="46.2332992553711" lon="6.98528003692627">
    <ele>377.640014648438</ele>
    <time>2012-03-15T15:53:56Z</time>
   </trkpt>
   <trkpt lat="46.2332878112793" lon="6.98527097702026">
    <ele>378.080017089844</ele>
    <time>2012-03-15T15:53:57Z</time>
   </trkpt>
   <trkpt lat="46.2332725524902" lon="6.98525810241699">
    <ele>378.519989013672</ele>
    <time>2012-03-15T15:53:58Z</time>
   </trkpt>
   <trkpt lat="46.2332572937012" lon="6.98525953292847">
    <ele>378.959991455078</ele>
    <time>2012-03-15T15:53:59Z</time>
   </trkpt>
   <trkpt lat="46.2332458496094" lon="6.98526525497436">
    <ele>379.399993896484</ele>
    <time>2012-03-15T15:54:00Z</time>
   </trkpt>
   <trkpt lat="46.233211517334" lon="6.98526430130005">
    <ele>379.399993896484</ele>
    <time>2012-03-15T15:54:02Z</time>
   </trkpt>
   <trkpt lat="46.2331466674805" lon="6.98525905609131">
    <ele>380.199981689453</ele>
    <time>2012-03-15T15:54:05Z</time>
   </trkpt>
   <trkpt lat="46.2331314086914" lon="6.98525428771973">
    <ele>380.466674804688</ele>
    <time>2012-03-15T15:54:06Z</time>
   </trkpt>
   <trkpt lat="46.2331161499023" lon="6.98524045944214">
    <ele>380.733337402344</ele>
    <time>2012-03-15T15:54:07Z</time>
   </trkpt>
   <trkpt lat="46.2331047058106" lon="6.98522901535034">
    <ele>381</ele>
    <time>2012-03-15T15:54:08Z</time>
   </trkpt>
   <trkpt lat="46.2330093383789" lon="6.98520755767822">
    <ele>382.333312988281</ele>
    <time>2012-03-15T15:54:13Z</time>
   </trkpt>
   <trkpt lat="46.232982635498" lon="6.98519992828369">
    <ele>382.600006103516</ele>
    <time>2012-03-15T15:54:14Z</time>
   </trkpt>
   <trkpt lat="46.232967376709" lon="6.98519229888916">
    <ele>382.866668701172</ele>
    <time>2012-03-15T15:54:15Z</time>
   </trkpt>
   <trkpt lat="46.2329483032227" lon="6.98519468307495">
    <ele>383.133331298828</ele>
    <time>2012-03-15T15:54:16Z</time>
   </trkpt>
   <trkpt lat="46.2329216003418" lon="6.98520088195801">
    <ele>383.399993896484</ele>
    <time>2012-03-15T15:54:17Z</time>
   </trkpt>
   <trkpt lat="46.2328796386719" lon="6.98519468307495">
    <ele>383.399993896484</ele>
    <time>2012-03-15T15:54:19Z</time>
   </trkpt>
   <trkpt lat="46.2328567504883" lon="6.98519897460938">
    <ele>383.674987792969</ele>
    <time>2012-03-15T15:54:20Z</time>
   </trkpt>
   <trkpt lat="46.2328186035156" lon="6.98519229888916">
    <ele>384.225006103516</ele>
    <time>2012-03-15T15:54:22Z</time>
   </trkpt>
   <trkpt lat="46.2327995300293" lon="6.98519086837768">
    <ele>384.5</ele>
    <time>2012-03-15T15:54:23Z</time>
   </trkpt>
   <trkpt lat="46.2327842712402" lon="6.98518753051758">
    <ele>384.774993896484</ele>
    <time>2012-03-15T15:54:24Z</time>
   </trkpt>
   <trkpt lat="46.2327613830566" lon="6.985191822052">
    <ele>385.049987792969</ele>
    <time>2012-03-15T15:54:25Z</time>
   </trkpt>
   <trkpt lat="46.2327461242676" lon="6.98519134521484">
    <ele>385.324981689453</ele>
    <time>2012-03-15T15:54:26Z</time>
   </trkpt>
   <trkpt lat="46.2326698303223" lon="6.98520231246948">
    <ele>386.424987792969</ele>
    <time>2012-03-15T15:54:30Z</time>
   </trkpt>
   <trkpt lat="46.2326545715332" lon="6.98520088195801">
    <ele>386.700012207031</ele>
    <time>2012-03-15T15:54:31Z</time>
   </trkpt>
   <trkpt lat="46.2326354980469" lon="6.98520135879517">
    <ele>386.975006103516</ele>
    <time>2012-03-15T15:54:32Z</time>
   </trkpt>
   <trkpt lat="46.2326202392578" lon="6.98520183563232">
    <ele>387.25</ele>
    <time>2012-03-15T15:54:33Z</time>
   </trkpt>
   <trkpt lat="46.2326011657715" lon="6.98519706726074">
    <ele>387.524993896484</ele>
    <time>2012-03-15T15:54:34Z</time>
   </trkpt>
   <trkpt lat="46.2325019836426" lon="6.98519325256348">
    <ele>388.899993896484</ele>
    <time>2012-03-15T15:54:39Z</time>
   </trkpt>
   <trkpt lat="46.2324867248535" lon="6.98518991470337">
    <ele>389.174987792969</ele>
    <time>2012-03-15T15:54:40Z</time>
   </trkpt>
   <trkpt lat="46.2324676513672" lon="6.98518371582031">
    <ele>389.450012207031</ele>
    <time>2012-03-15T15:54:41Z</time>
   </trkpt>
   <trkpt lat="46.2324523925781" lon="6.98518133163452">
    <ele>389.725006103516</ele>
    <time>2012-03-15T15:54:42Z</time>
   </trkpt>
   <trkpt lat="46.2324371337891" lon="6.98518562316894">
    <ele>390</ele>
    <time>2012-03-15T15:54:43Z</time>
   </trkpt>
   <trkpt lat="46.2323532104492" lon="6.98516607284546">
    <ele>390</ele>
    <time>2012-03-15T15:54:48Z</time>
   </trkpt>
   <trkpt lat="46.2323379516602" lon="6.98516321182251">
    <ele>390.399993896484</ele>
    <time>2012-03-15T15:54:49Z</time>
   </trkpt>
   <trkpt lat="46.2323188781738" lon="6.98515844345093">
    <ele>390.799987792969</ele>
    <time>2012-03-15T15:54:50Z</time>
   </trkpt>
   <trkpt lat="46.2322998046875" lon="6.98515176773071">
    <ele>391.200012207031</ele>
    <time>2012-03-15T15:54:51Z</time>
   </trkpt>
   <trkpt lat="46.2322807312012" lon="6.98514986038208">
    <ele>391.600006103516</ele>
    <time>2012-03-15T15:54:52Z</time>
   </trkpt>
   <trkpt lat="46.2322616577148" lon="6.98514556884766">
    <ele>392</ele>
    <time>2012-03-15T15:54:53Z</time>
   </trkpt>
   <trkpt lat="46.2322082519531" lon="6.98513841629028">
    <ele>392</ele>
    <time>2012-03-15T15:54:56Z</time>
   </trkpt>
   <trkpt lat="46.2321701049805" lon="6.98514795303345">
    <ele>392.733337402344</ele>
    <time>2012-03-15T15:54:58Z</time>
   </trkpt>
   <trkpt lat="46.2321510314941" lon="6.9851541519165">
    <ele>393.100006103516</ele>
    <time>2012-03-15T15:54:59Z</time>
   </trkpt>
   <trkpt lat="46.2321319580078" lon="6.98516273498535">
    <ele>393.466674804688</ele>
    <time>2012-03-15T15:55:00Z</time>
   </trkpt>
   <trkpt lat="46.2321166992188" lon="6.98517084121704">
    <ele>393.833343505859</ele>
    <time>2012-03-15T15:55:01Z</time>
   </trkpt>
   <trkpt lat="46.2320976257324" lon="6.98517942428589">
    <ele>394.200012207031</ele>
    <time>2012-03-15T15:55:02Z</time>
   </trkpt>
   <trkpt lat="46.2320823669434" lon="6.98518705368042">
    <ele>394.200012207031</ele>
    <time>2012-03-15T15:55:03Z</time>
   </trkpt>
   <trkpt lat="46.2319564819336" lon="6.98525714874268">
    <ele>395.666687011719</ele>
    <time>2012-03-15T15:55:10Z</time>
   </trkpt>
   <trkpt lat="46.2319374084473" lon="6.98526954650879">
    <ele>395.876190185547</ele>
    <time>2012-03-15T15:55:11Z</time>
   </trkpt>
   <trkpt lat="46.2319221496582" lon="6.98528003692627">
    <ele>396.085723876953</ele>
    <time>2012-03-15T15:55:12Z</time>
   </trkpt>
   <trkpt lat="46.2319068908691" lon="6.98528861999512">
    <ele>396.295257568359</ele>
    <time>2012-03-15T15:55:13Z</time>
   </trkpt>
   <trkpt lat="46.2318878173828" lon="6.98529815673828">
    <ele>396.504760742188</ele>
    <time>2012-03-15T15:55:14Z</time>
   </trkpt>
   <trkpt lat="46.2317810058594" lon="6.98533916473389">
    <ele>397.761901855469</ele>
    <time>2012-03-15T15:55:20Z</time>
   </trkpt>
   <trkpt lat="46.231761932373" lon="6.98534870147705">
    <ele>397.971435546875</ele>
    <time>2012-03-15T15:55:21Z</time>
   </trkpt>
   <trkpt lat="46.231746673584" lon="6.98535776138306">
    <ele>398.180969238281</ele>
    <time>2012-03-15T15:55:22Z</time>
   </trkpt>
   <trkpt lat="46.2317314147949" lon="6.98536682128906">
    <ele>398.390472412109</ele>
    <time>2012-03-15T15:55:23Z</time>
   </trkpt>
   <trkpt lat="46.2317123413086" lon="6.98537683486938">
    <ele>398.600006103516</ele>
    <time>2012-03-15T15:55:24Z</time>
   </trkpt>
   <trkpt lat="46.2316474914551" lon="6.9854154586792">
    <ele>398.600006103516</ele>
    <time>2012-03-15T15:55:28Z</time>
   </trkpt>
   <trkpt lat="46.2315940856934" lon="6.98545789718628">
    <ele>399.661560058594</ele>
    <time>2012-03-15T15:55:31Z</time>
   </trkpt>
   <trkpt lat="46.2315788269043" lon="6.98547220230102">
    <ele>400.015380859375</ele>
    <time>2012-03-15T15:55:32Z</time>
   </trkpt>
   <trkpt lat="46.2315635681152" lon="6.98548650741577">
    <ele>400.369232177734</ele>
    <time>2012-03-15T15:55:33Z</time>
   </trkpt>
   <trkpt lat="46.2315444946289" lon="6.98550033569336">
    <ele>400.723083496094</ele>
    <time>2012-03-15T15:55:34Z</time>
   </trkpt>
   <trkpt lat="46.2315292358398" lon="6.98551368713379">
    <ele>401.076934814453</ele>
    <time>2012-03-15T15:55:35Z</time>
   </trkpt>
   <trkpt lat="46.2314987182617" lon="6.9855489730835">
    <ele>401.784637451172</ele>
    <time>2012-03-15T15:55:37Z</time>
   </trkpt>
   <trkpt lat="46.2314796447754" lon="6.98556613922119">
    <ele>402.138458251953</ele>
    <time>2012-03-15T15:55:38Z</time>
   </trkpt>
   <trkpt lat="46.2314643859863" lon="6.98558235168457">
    <ele>402.492309570312</ele>
    <time>2012-03-15T15:55:39Z</time>
   </trkpt>
   <trkpt lat="46.2314491271973" lon="6.98560380935669">
    <ele>402.846160888672</ele>
    <time>2012-03-15T15:55:40Z</time>
   </trkpt>
   <trkpt lat="46.2314338684082" lon="6.98562622070312">
    <ele>403.200012207031</ele>
    <time>2012-03-15T15:55:41Z</time>
   </trkpt>
   <trkpt lat="46.2313995361328" lon="6.98569536209106">
    <ele>403.200012207031</ele>
    <time>2012-03-15T15:55:44Z</time>
   </trkpt>
   <trkpt lat="46.2313117980957" lon="6.98585557937622">
    <ele>404.600006103516</ele>
    <time>2012-03-15T15:55:51Z</time>
   </trkpt>
   <trkpt lat="46.2312965393066" lon="6.98587656021118">
    <ele>404.799987792969</ele>
    <time>2012-03-15T15:55:52Z</time>
   </trkpt>
   <trkpt lat="46.2312812805176" lon="6.98589611053467">
    <ele>405</ele>
    <time>2012-03-15T15:55:53Z</time>
   </trkpt>
   <trkpt lat="46.2312622070312" lon="6.98591566085815">
    <ele>405.199981689453</ele>
    <time>2012-03-15T15:55:54Z</time>
   </trkpt>
   <trkpt lat="46.2312469482422" lon="6.98593378067017">
    <ele>405.399993896484</ele>
    <time>2012-03-15T15:55:55Z</time>
   </trkpt>
   <trkpt lat="46.2311935424805" lon="6.98598289489746">
    <ele>405.399993896484</ele>
    <time>2012-03-15T15:55:58Z</time>
   </trkpt>
   <trkpt lat="46.2310943603516" lon="6.98611450195312">
    <ele>406.799987792969</ele>
    <time>2012-03-15T15:56:05Z</time>
   </trkpt>
   <trkpt lat="46.231086730957" lon="6.98613977432251">
    <ele>407</ele>
    <time>2012-03-15T15:56:06Z</time>
   </trkpt>
   <trkpt lat="46.2310791015625" lon="6.98616600036621">
    <ele>407.200012207031</ele>
    <time>2012-03-15T15:56:07Z</time>
   </trkpt>
   <trkpt lat="46.231071472168" lon="6.98619174957275">
    <ele>407.399993896484</ele>
    <time>2012-03-15T15:56:08Z</time>
   </trkpt>
   <trkpt lat="46.2310676574707" lon="6.98621845245361">
    <ele>407.600006103516</ele>
    <time>2012-03-15T15:56:09Z</time>
   </trkpt>
   <trkpt lat="46.2310638427734" lon="6.98630714416504">
    <ele>407.600006103516</ele>
    <time>2012-03-15T15:56:12Z</time>
   </trkpt>
   <trkpt lat="46.2310447692871" lon="6.98645877838135">
    <ele>408.711120605469</ele>
    <time>2012-03-15T15:56:17Z</time>
   </trkpt>
   <trkpt lat="46.2310409545898" lon="6.98648738861084">
    <ele>408.933349609375</ele>
    <time>2012-03-15T15:56:18Z</time>
   </trkpt>
   <trkpt lat="46.2310333251953" lon="6.98651504516602">
    <ele>409.155548095703</ele>
    <time>2012-03-15T15:56:19Z</time>
   </trkpt>
   <trkpt lat="46.2310256958008" lon="6.98654317855835">
    <ele>409.377777099609</ele>
    <time>2012-03-15T15:56:20Z</time>
   </trkpt>
   <trkpt lat="46.2310104370117" lon="6.98656940460205">
    <ele>409.600006103516</ele>
    <time>2012-03-15T15:56:21Z</time>
   </trkpt>
   <trkpt lat="46.2309875488281" lon="6.98661231994629">
    <ele>409.600006103516</ele>
    <time>2012-03-15T15:56:23Z</time>
   </trkpt>
   <trkpt lat="46.2308883666992" lon="6.9866886138916">
    <ele>411.040008544922</ele>
    <time>2012-03-15T15:56:29Z</time>
   </trkpt>
   <trkpt lat="46.2308731079102" lon="6.98668193817139">
    <ele>411.279998779297</ele>
    <time>2012-03-15T15:56:30Z</time>
   </trkpt>
   <trkpt lat="46.2308540344238" lon="6.9866738319397">
    <ele>411.519989013672</ele>
    <time>2012-03-15T15:56:31Z</time>
   </trkpt>
   <trkpt lat="46.2308387756348" lon="6.98666191101074">
    <ele>411.760009765625</ele>
    <time>2012-03-15T15:56:32Z</time>
   </trkpt>
   <trkpt lat="46.2308235168457" lon="6.98664999008179">
    <ele>412</ele>
    <time>2012-03-15T15:56:33Z</time>
   </trkpt>
   <trkpt lat="46.2307891845703" lon="6.98661756515503">
    <ele>412</ele>
    <time>2012-03-15T15:56:35Z</time>
   </trkpt>
   <trkpt lat="46.2306823730469" lon="6.98649883270264">
    <ele>413.633331298828</ele>
    <time>2012-03-15T15:56:42Z</time>
   </trkpt>
   <trkpt lat="46.2306671142578" lon="6.98647975921631">
    <ele>413.866668701172</ele>
    <time>2012-03-15T15:56:43Z</time>
   </trkpt>
   <trkpt lat="46.230655670166" lon="6.98646116256714">
    <ele>414.099975585938</ele>
    <time>2012-03-15T15:56:44Z</time>
   </trkpt>
   <trkpt lat="46.2306365966797" lon="6.98644351959228">
    <ele>414.333312988281</ele>
    <time>2012-03-15T15:56:45Z</time>
   </trkpt>
   <trkpt lat="46.2306213378906" lon="6.98642492294312">
    <ele>414.566650390625</ele>
    <time>2012-03-15T15:56:46Z</time>
   </trkpt>
   <trkpt lat="46.2306022644043" lon="6.98640823364258">
    <ele>414.799987792969</ele>
    <time>2012-03-15T15:56:47Z</time>
   </trkpt>
   <trkpt lat="46.2305870056152" lon="6.98638916015625">
    <ele>414.799987792969</ele>
    <time>2012-03-15T15:56:48Z</time>
   </trkpt>
   <trkpt lat="46.2304954528809" lon="6.98626375198364">
    <ele>415.890899658203</ele>
    <time>2012-03-15T15:56:54Z</time>
   </trkpt>
   <trkpt lat="46.2304611206055" lon="6.98623466491699">
    <ele>416.254547119141</ele>
    <time>2012-03-15T15:56:56Z</time>
   </trkpt>
   <trkpt lat="46.2304420471191" lon="6.98622512817383">
    <ele>416.436340332031</ele>
    <time>2012-03-15T15:56:57Z</time>
   </trkpt>
   <trkpt lat="46.2304191589356" lon="6.98621797561646">
    <ele>416.6181640625</ele>
    <time>2012-03-15T15:56:58Z</time>
   </trkpt>
   <trkpt lat="46.230396270752" lon="6.98621463775635">
    <ele>416.799987792969</ele>
    <time>2012-03-15T15:56:59Z</time>
   </trkpt>
   <trkpt lat="46.2303733825684" lon="6.98621416091919">
    <ele>416.799987792969</ele>
    <time>2012-03-15T15:57:00Z</time>
   </trkpt>
   <trkpt lat="46.2302742004394" lon="6.98630428314209">
    <ele>417.466644287109</ele>
    <time>2012-03-15T15:57:05Z</time>
   </trkpt>
   <trkpt lat="46.2302780151367" lon="6.98648405075073">
    <ele>418.133331298828</ele>
    <time>2012-03-15T15:57:10Z</time>
   </trkpt>
   <trkpt lat="46.230281829834" lon="6.98652076721191">
    <ele>418.266662597656</ele>
    <time>2012-03-15T15:57:11Z</time>
   </trkpt>
   <trkpt lat="46.2302856445312" lon="6.9865574836731">
    <ele>418.399993896484</ele>
    <time>2012-03-15T15:57:12Z</time>
   </trkpt>
   <trkpt lat="46.2302932739258" lon="6.98659133911133">
    <ele>418.533325195312</ele>
    <time>2012-03-15T15:57:13Z</time>
   </trkpt>
   <trkpt lat="46.2303047180176" lon="6.98662328720093">
    <ele>418.666656494141</ele>
    <time>2012-03-15T15:57:14Z</time>
   </trkpt>
   <trkpt lat="46.2303123474121" lon="6.98665761947632">
    <ele>418.799987792969</ele>
    <time>2012-03-15T15:57:15Z</time>
   </trkpt>
   <trkpt lat="46.2303199768066" lon="6.98669147491455">
    <ele>418.799987792969</ele>
    <time>2012-03-15T15:57:16Z</time>
   </trkpt>
   <trkpt lat="46.2303428649902" lon="6.98682594299316">
    <ele>419.415374755859</ele>
    <time>2012-03-15T15:57:20Z</time>
   </trkpt>
   <trkpt lat="46.230354309082" lon="6.98691844940186">
    <ele>419.876922607422</ele>
    <time>2012-03-15T15:57:23Z</time>
   </trkpt>
   <trkpt lat="46.2303657531738" lon="6.98697757720947">
    <ele>420.184600830078</ele>
    <time>2012-03-15T15:57:25Z</time>
   </trkpt>
   <trkpt lat="46.2303771972656" lon="6.98701000213623">
    <ele>420.338439941406</ele>
    <time>2012-03-15T15:57:26Z</time>
   </trkpt>
   <trkpt lat="46.2303810119629" lon="6.98703718185425">
    <ele>420.492309570312</ele>
    <time>2012-03-15T15:57:27Z</time>
   </trkpt>
   <trkpt lat="46.2303848266602" lon="6.9870662689209">
    <ele>420.646148681641</ele>
    <time>2012-03-15T15:57:28Z</time>
   </trkpt>
   <trkpt lat="46.2303848266602" lon="6.98709774017334">
    <ele>420.799987792969</ele>
    <time>2012-03-15T15:57:29Z</time>
   </trkpt>
   <trkpt lat="46.2303886413574" lon="6.9871301651001">
    <ele>420.799987792969</ele>
    <time>2012-03-15T15:57:30Z</time>
   </trkpt>
   <trkpt lat="46.2303466796875" lon="6.98720073699951">
    <ele>421.307678222656</ele>
    <time>2012-03-15T15:57:33Z</time>
   </trkpt>
   <trkpt lat="46.2303237915039" lon="6.98721218109131">
    <ele>421.476928710938</ele>
    <time>2012-03-15T15:57:34Z</time>
   </trkpt>
   <trkpt lat="46.2302513122559" lon="6.98717927932739">
    <ele>422.323059082031</ele>
    <time>2012-03-15T15:57:39Z</time>
   </trkpt>
   <trkpt lat="46.2302436828613" lon="6.9871678352356">
    <ele>422.492309570312</ele>
    <time>2012-03-15T15:57:40Z</time>
   </trkpt>
   <trkpt lat="46.2302360534668" lon="6.98715257644653">
    <ele>422.661529541016</ele>
    <time>2012-03-15T15:57:41Z</time>
   </trkpt>
   <trkpt lat="46.230224609375" lon="6.98713731765747">
    <ele>422.830780029297</ele>
    <time>2012-03-15T15:57:42Z</time>
   </trkpt>
   <trkpt lat="46.2302169799805" lon="6.98712301254272">
    <ele>423</ele>
    <time>2012-03-15T15:57:43Z</time>
   </trkpt>
   <trkpt lat="46.2301788330078" lon="6.98705530166626">
    <ele>423</ele>
    <time>2012-03-15T15:57:46Z</time>
   </trkpt>
   <trkpt lat="46.2301635742188" lon="6.98700666427612">
    <ele>423.880004882812</ele>
    <time>2012-03-15T15:57:48Z</time>
   </trkpt>
   <trkpt lat="46.2301559448242" lon="6.98698472976685">
    <ele>424.320007324219</ele>
    <time>2012-03-15T15:57:49Z</time>
   </trkpt>
   <trkpt lat="46.2301445007324" lon="6.9869647026062">
    <ele>424.760009765625</ele>
    <time>2012-03-15T15:57:50Z</time>
   </trkpt>
   <trkpt lat="46.2301368713379" lon="6.98694276809692">
    <ele>425.200012207031</ele>
    <time>2012-03-15T15:57:51Z</time>
   </trkpt>
   <trkpt lat="46.2301292419434" lon="6.98692417144775">
    <ele>425.200012207031</ele>
    <time>2012-03-15T15:57:52Z</time>
   </trkpt>
   <trkpt lat="46.2301177978516" lon="6.98690032958984">
    <ele>425.700012207031</ele>
    <time>2012-03-15T15:57:53Z</time>
   </trkpt>
   <trkpt lat="46.230110168457" lon="6.98688411712646">
    <ele>426.200012207031</ele>
    <time>2012-03-15T15:57:54Z</time>
   </trkpt>
   <trkpt lat="46.2301025390625" lon="6.98686170578003">
    <ele>426.700012207031</ele>
    <time>2012-03-15T15:57:55Z</time>
   </trkpt>
   <trkpt lat="46.230094909668" lon="6.98683643341064">
    <ele>427.200012207031</ele>
    <time>2012-03-15T15:57:56Z</time>
   </trkpt>
   <trkpt lat="46.2300872802734" lon="6.98681545257568">
    <ele>427.700012207031</ele>
    <time>2012-03-15T15:57:57Z</time>
   </trkpt>
   <trkpt lat="46.2300834655762" lon="6.98679494857788">
    <ele>428.200012207031</ele>
    <time>2012-03-15T15:57:58Z</time>
   </trkpt>
   <trkpt lat="46.2300796508789" lon="6.98677206039429">
    <ele>428.700012207031</ele>
    <time>2012-03-15T15:57:59Z</time>
   </trkpt>
   <trkpt lat="46.2300796508789" lon="6.98675441741943">
    <ele>429.200012207031</ele>
    <time>2012-03-15T15:58:00Z</time>
   </trkpt>
   <trkpt lat="46.2300796508789" lon="6.98673486709595">
    <ele>429.700012207031</ele>
    <time>2012-03-15T15:58:01Z</time>
   </trkpt>
   <trkpt lat="46.2300720214844" lon="6.9867148399353">
    <ele>430.200012207031</ele>
    <time>2012-03-15T15:58:02Z</time>
   </trkpt>
   <trkpt lat="46.2300262451172" lon="6.98666286468506">
    <ele>430.200012207031</ele>
    <time>2012-03-15T15:58:06Z</time>
   </trkpt>
   <trkpt lat="46.2300109863281" lon="6.98664379119873">
    <ele>430.337524414062</ele>
    <time>2012-03-15T15:58:07Z</time>
   </trkpt>
   <trkpt lat="46.2299652099609" lon="6.98656702041626">
    <ele>430.75</ele>
    <time>2012-03-15T15:58:10Z</time>
   </trkpt>
   <trkpt lat="46.2299499511719" lon="6.98654651641846">
    <ele>430.887512207031</ele>
    <time>2012-03-15T15:58:11Z</time>
   </trkpt>
   <trkpt lat="46.2298889160156" lon="6.98645925521851">
    <ele>431.4375</ele>
    <time>2012-03-15T15:58:15Z</time>
   </trkpt>
   <trkpt lat="46.2298469543457" lon="6.98642683029175">
    <ele>431.712493896484</ele>
    <time>2012-03-15T15:58:17Z</time>
   </trkpt>
   <trkpt lat="46.2298240661621" lon="6.98641586303711">
    <ele>431.850006103516</ele>
    <time>2012-03-15T15:58:18Z</time>
   </trkpt>
   <trkpt lat="46.2298011779785" lon="6.986403465271">
    <ele>431.987487792969</ele>
    <time>2012-03-15T15:58:19Z</time>
   </trkpt>
   <trkpt lat="46.2297821044922" lon="6.98639297485352">
    <ele>432.125</ele>
    <time>2012-03-15T15:58:20Z</time>
   </trkpt>
   <trkpt lat="46.2297630310059" lon="6.98638105392456">
    <ele>432.262481689453</ele>
    <time>2012-03-15T15:58:21Z</time>
   </trkpt>
   <trkpt lat="46.2297477722168" lon="6.98637056350708">
    <ele>432.399993896484</ele>
    <time>2012-03-15T15:58:22Z</time>
   </trkpt>
   <trkpt lat="46.2297286987305" lon="6.98636245727539">
    <ele>432.399993896484</ele>
    <time>2012-03-15T15:58:23Z</time>
   </trkpt>
   <trkpt lat="46.2296524047852" lon="6.98637390136719">
    <ele>433.200012207031</ele>
    <time>2012-03-15T15:58:27Z</time>
   </trkpt>
   <trkpt lat="46.2296180725098" lon="6.98639535903931">
    <ele>433.600006103516</ele>
    <time>2012-03-15T15:58:29Z</time>
   </trkpt>
   <trkpt lat="46.2295989990234" lon="6.98640727996826">
    <ele>433.799987792969</ele>
    <time>2012-03-15T15:58:30Z</time>
   </trkpt>
   <trkpt lat="46.2295837402344" lon="6.98642110824585">
    <ele>434</ele>
    <time>2012-03-15T15:58:31Z</time>
   </trkpt>
   <trkpt lat="46.2295684814453" lon="6.98643636703491">
    <ele>434.200012207031</ele>
    <time>2012-03-15T15:58:32Z</time>
   </trkpt>
   <trkpt lat="46.2295608520508" lon="6.98644781112671">
    <ele>434.399993896484</ele>
    <time>2012-03-15T15:58:33Z</time>
   </trkpt>
   <trkpt lat="46.229549407959" lon="6.98645973205566">
    <ele>434.600006103516</ele>
    <time>2012-03-15T15:58:34Z</time>
   </trkpt>
   <trkpt lat="46.2295455932617" lon="6.98646354675293">
    <ele>434.600006103516</ele>
    <time>2012-03-15T15:58:35Z</time>
   </trkpt>
   <trkpt lat="46.2295341491699" lon="6.98646688461304">
    <ele>434.850006103516</ele>
    <time>2012-03-15T15:58:36Z</time>
   </trkpt>
   <trkpt lat="46.2294998168945" lon="6.98650312423706">
    <ele>435.600006103516</ele>
    <time>2012-03-15T15:58:39Z</time>
   </trkpt>
   <trkpt lat="46.2294883728027" lon="6.98652362823486">
    <ele>435.850006103516</ele>
    <time>2012-03-15T15:58:40Z</time>
   </trkpt>
   <trkpt lat="46.2294769287109" lon="6.98654222488403">
    <ele>436.100006103516</ele>
    <time>2012-03-15T15:58:41Z</time>
   </trkpt>
   <trkpt lat="46.2294654846191" lon="6.9865574836731">
    <ele>436.350006103516</ele>
    <time>2012-03-15T15:58:42Z</time>
   </trkpt>
   <trkpt lat="46.2294502258301" lon="6.98657608032226">
    <ele>436.600006103516</ele>
    <time>2012-03-15T15:58:43Z</time>
   </trkpt>
   <trkpt lat="46.2294311523438" lon="6.98658227920532">
    <ele>436.600006103516</ele>
    <time>2012-03-15T15:58:44Z</time>
   </trkpt>
   <trkpt lat="46.2294120788574" lon="6.98658132553101">
    <ele>436.914276123047</ele>
    <time>2012-03-15T15:58:45Z</time>
   </trkpt>
   <trkpt lat="46.2293739318848" lon="6.98657131195068">
    <ele>437.542846679688</ele>
    <time>2012-03-15T15:58:47Z</time>
   </trkpt>
   <trkpt lat="46.229362487793" lon="6.98656225204468">
    <ele>437.857147216797</ele>
    <time>2012-03-15T15:58:48Z</time>
   </trkpt>
   <trkpt lat="46.2293434143066" lon="6.98655939102173">
    <ele>438.171417236328</ele>
    <time>2012-03-15T15:58:49Z</time>
   </trkpt>
   <trkpt lat="46.229320526123" lon="6.98656558990478">
    <ele>438.485717773438</ele>
    <time>2012-03-15T15:58:50Z</time>
   </trkpt>
   <trkpt lat="46.2292976379394" lon="6.98656749725342">
    <ele>438.799987792969</ele>
    <time>2012-03-15T15:58:51Z</time>
   </trkpt>
   <trkpt lat="46.229248046875" lon="6.9865608215332">
    <ele>438.799987792969</ele>
    <time>2012-03-15T15:58:53Z</time>
   </trkpt>
   <trkpt lat="46.2292137145996" lon="6.98656368255615">
    <ele>439.199981689453</ele>
    <time>2012-03-15T15:58:54Z</time>
   </trkpt>
   <trkpt lat="46.2291870117188" lon="6.98655271530151">
    <ele>439.599975585938</ele>
    <time>2012-03-15T15:58:55Z</time>
   </trkpt>
   <trkpt lat="46.2291603088379" lon="6.98654127120972">
    <ele>440</ele>
    <time>2012-03-15T15:58:56Z</time>
   </trkpt>
   <trkpt lat="46.2291412353516" lon="6.98653316497803">
    <ele>440.399993896484</ele>
    <time>2012-03-15T15:58:57Z</time>
   </trkpt>
   <trkpt lat="46.2291221618652" lon="6.98652172088623">
    <ele>440.799987792969</ele>
    <time>2012-03-15T15:58:58Z</time>
   </trkpt>
   <trkpt lat="46.2291030883789" lon="6.98650979995728">
    <ele>440.799987792969</ele>
    <time>2012-03-15T15:58:59Z</time>
   </trkpt>
   <trkpt lat="46.2290687561035" lon="6.98648262023926">
    <ele>441.395538330078</ele>
    <time>2012-03-15T15:59:01Z</time>
   </trkpt>
   <trkpt lat="46.2290496826172" lon="6.98647022247314">
    <ele>441.693328857422</ele>
    <time>2012-03-15T15:59:02Z</time>
   </trkpt>
   <trkpt lat="46.2290344238281" lon="6.98645305633545">
    <ele>441.991088867188</ele>
    <time>2012-03-15T15:59:03Z</time>
   </trkpt>
   <trkpt lat="46.2290229797363" lon="6.98643207550049">
    <ele>442.288879394531</ele>
    <time>2012-03-15T15:59:04Z</time>
   </trkpt>
   <trkpt lat="46.2289733886719" lon="6.98636817932129">
    <ele>443.182220458984</ele>
    <time>2012-03-15T15:59:07Z</time>
   </trkpt>
   <trkpt lat="46.2289581298828" lon="6.98634624481201">
    <ele>443.47998046875</ele>
    <time>2012-03-15T15:59:08Z</time>
   </trkpt>
   <trkpt lat="46.2289428710938" lon="6.98632669448852">
    <ele>443.777770996094</ele>
    <time>2012-03-15T15:59:09Z</time>
   </trkpt>
   <trkpt lat="46.2289276123047" lon="6.98631000518799">
    <ele>444.075561523438</ele>
    <time>2012-03-15T15:59:10Z</time>
   </trkpt>
   <trkpt lat="46.2289123535156" lon="6.98629379272461">
    <ele>444.373321533203</ele>
    <time>2012-03-15T15:59:11Z</time>
   </trkpt>
   <trkpt lat="46.228832244873" lon="6.98620462417602">
    <ele>445.862213134766</ele>
    <time>2012-03-15T15:59:16Z</time>
   </trkpt>
   <trkpt lat="46.228816986084" lon="6.98618459701538">
    <ele>446.160003662109</ele>
    <time>2012-03-15T15:59:17Z</time>
   </trkpt>
   <trkpt lat="46.2288055419922" lon="6.98616409301758">
    <ele>446.457763671875</ele>
    <time>2012-03-15T15:59:18Z</time>
   </trkpt>
   <trkpt lat="46.2287902832031" lon="6.98614454269409">
    <ele>446.755554199219</ele>
    <time>2012-03-15T15:59:19Z</time>
   </trkpt>
   <trkpt lat="46.2287750244141" lon="6.98613023757935">
    <ele>447.053344726562</ele>
    <time>2012-03-15T15:59:20Z</time>
   </trkpt>
   <trkpt lat="46.2287216186523" lon="6.9860634803772">
    <ele>448.244445800781</ele>
    <time>2012-03-15T15:59:24Z</time>
   </trkpt>
   <trkpt lat="46.2287101745606" lon="6.98604583740234">
    <ele>448.542236328125</ele>
    <time>2012-03-15T15:59:25Z</time>
   </trkpt>
   <trkpt lat="46.2286987304688" lon="6.98602676391602">
    <ele>448.839996337891</ele>
    <time>2012-03-15T15:59:26Z</time>
   </trkpt>
   <trkpt lat="46.228687286377" lon="6.98600578308106">
    <ele>449.137786865234</ele>
    <time>2012-03-15T15:59:27Z</time>
   </trkpt>
   <trkpt lat="46.228630065918" lon="6.98589086532593">
    <ele>450.626678466797</ele>
    <time>2012-03-15T15:59:32Z</time>
   </trkpt>
   <trkpt lat="46.2286186218262" lon="6.98586797714233">
    <ele>450.924438476562</ele>
    <time>2012-03-15T15:59:33Z</time>
   </trkpt>
   <trkpt lat="46.2286109924316" lon="6.98584461212158">
    <ele>451.222229003906</ele>
    <time>2012-03-15T15:59:34Z</time>
   </trkpt>
   <trkpt lat="46.2286033630371" lon="6.98582315444946">
    <ele>451.52001953125</ele>
    <time>2012-03-15T15:59:35Z</time>
   </trkpt>
   <trkpt lat="46.2285995483398" lon="6.98579692840576">
    <ele>451.817779541016</ele>
    <time>2012-03-15T15:59:36Z</time>
   </trkpt>
   <trkpt lat="46.2285804748535" lon="6.98569250106812">
    <ele>453.008911132812</ele>
    <time>2012-03-15T15:59:40Z</time>
   </trkpt>
   <trkpt lat="46.2285766601562" lon="6.9856653213501">
    <ele>453.306671142578</ele>
    <time>2012-03-15T15:59:41Z</time>
   </trkpt>
   <trkpt lat="46.2285690307617" lon="6.98564195632935">
    <ele>453.604461669922</ele>
    <time>2012-03-15T15:59:42Z</time>
   </trkpt>
   <trkpt lat="46.2285614013672" lon="6.98561763763428">
    <ele>453.902221679688</ele>
    <time>2012-03-15T15:59:43Z</time>
   </trkpt>
   <trkpt lat="46.2285499572754" lon="6.98559284210205">
    <ele>454.200012207031</ele>
    <time>2012-03-15T15:59:44Z</time>
   </trkpt>
   <trkpt lat="46.2285308837891" lon="6.98554229736328">
    <ele>454.200012207031</ele>
    <time>2012-03-15T15:59:46Z</time>
   </trkpt>
   <trkpt lat="46.2285003662109" lon="6.98547744750976">
    <ele>455.034790039062</ele>
    <time>2012-03-15T15:59:49Z</time>
   </trkpt>
   <trkpt lat="46.2284889221191" lon="6.98545742034912">
    <ele>455.313049316406</ele>
    <time>2012-03-15T15:59:50Z</time>
   </trkpt>
   <trkpt lat="46.2284774780273" lon="6.985435962677">
    <ele>455.59130859375</ele>
    <time>2012-03-15T15:59:51Z</time>
   </trkpt>
   <trkpt lat="46.2284622192383" lon="6.98541593551636">
    <ele>455.869567871094</ele>
    <time>2012-03-15T15:59:52Z</time>
   </trkpt>
   <trkpt lat="46.228401184082" lon="6.98530578613281">
    <ele>457.260864257812</ele>
    <time>2012-03-15T15:59:57Z</time>
   </trkpt>
   <trkpt lat="46.2283897399902" lon="6.98528671264648">
    <ele>457.539154052734</ele>
    <time>2012-03-15T15:59:58Z</time>
   </trkpt>
   <trkpt lat="46.2283782958984" lon="6.985267162323">
    <ele>457.817413330078</ele>
    <time>2012-03-15T15:59:59Z</time>
   </trkpt>
   <trkpt lat="46.2283706665039" lon="6.98524475097656">
    <ele>458.095672607422</ele>
    <time>2012-03-15T16:00:00Z</time>
   </trkpt>
   <trkpt lat="46.2283630371094" lon="6.98522758483887">
    <ele>458.373931884766</ele>
    <time>2012-03-15T16:00:01Z</time>
   </trkpt>
   <trkpt lat="46.2283172607422" lon="6.98514270782471">
    <ele>459.486968994141</ele>
    <time>2012-03-15T16:00:05Z</time>
   </trkpt>
   <trkpt lat="46.2283058166504" lon="6.98512172698975">
    <ele>459.765228271484</ele>
    <time>2012-03-15T16:00:06Z</time>
   </trkpt>
   <trkpt lat="46.2282905578613" lon="6.98509883880615">
    <ele>460.043487548828</ele>
    <time>2012-03-15T16:00:07Z</time>
   </trkpt>
   <trkpt lat="46.228271484375" lon="6.98507976531982">
    <ele>460.321746826172</ele>
    <time>2012-03-15T16:00:08Z</time>
   </trkpt>
   <trkpt lat="46.2282562255859" lon="6.98506355285644">
    <ele>460.600006103516</ele>
    <time>2012-03-15T16:00:09Z</time>
   </trkpt>
   <trkpt lat="46.2282218933106" lon="6.98501300811768">
    <ele>460.600006103516</ele>
    <time>2012-03-15T16:00:12Z</time>
   </trkpt>
   <trkpt lat="46.2282066345215" lon="6.98500299453735">
    <ele>460.910003662109</ele>
    <time>2012-03-15T16:00:13Z</time>
   </trkpt>
   <trkpt lat="46.2281875610352" lon="6.98499298095703">
    <ele>461.220001220703</ele>
    <time>2012-03-15T16:00:14Z</time>
   </trkpt>
   <trkpt lat="46.2281646728516" lon="6.98498344421387">
    <ele>461.529998779297</ele>
    <time>2012-03-15T16:00:15Z</time>
   </trkpt>
   <trkpt lat="46.2281455993652" lon="6.98497486114502">
    <ele>461.839996337891</ele>
    <time>2012-03-15T16:00:16Z</time>
   </trkpt>
   <trkpt lat="46.2281265258789" lon="6.9849681854248">
    <ele>462.149993896484</ele>
    <time>2012-03-15T16:00:17Z</time>
   </trkpt>
   <trkpt lat="46.2280693054199" lon="6.98495721817017">
    <ele>463.079986572266</ele>
    <time>2012-03-15T16:00:20Z</time>
   </trkpt>
   <trkpt lat="46.2280540466309" lon="6.98495674133301">
    <ele>463.389984130859</ele>
    <time>2012-03-15T16:00:21Z</time>
   </trkpt>
   <trkpt lat="46.2280387878418" lon="6.98495626449585">
    <ele>463.700012207031</ele>
    <time>2012-03-15T16:00:22Z</time>
   </trkpt>
   <trkpt lat="46.2280158996582" lon="6.98495721817017">
    <ele>464.010009765625</ele>
    <time>2012-03-15T16:00:23Z</time>
   </trkpt>
   <trkpt lat="46.2279968261719" lon="6.98495960235596">
    <ele>464.320007324219</ele>
    <time>2012-03-15T16:00:24Z</time>
   </trkpt>
   <trkpt lat="46.2279243469238" lon="6.98497295379639">
    <ele>465.559997558594</ele>
    <time>2012-03-15T16:00:28Z</time>
   </trkpt>
   <trkpt lat="46.2279090881348" lon="6.98497676849365">
    <ele>465.869995117188</ele>
    <time>2012-03-15T16:00:29Z</time>
   </trkpt>
   <trkpt lat="46.2278900146484" lon="6.98497724533081">
    <ele>466.179992675781</ele>
    <time>2012-03-15T16:00:30Z</time>
   </trkpt>
   <trkpt lat="46.2278709411621" lon="6.98498058319092">
    <ele>466.489990234375</ele>
    <time>2012-03-15T16:00:31Z</time>
   </trkpt>
   <trkpt lat="46.227855682373" lon="6.98498392105102">
    <ele>466.799987792969</ele>
    <time>2012-03-15T16:00:32Z</time>
   </trkpt>
   <trkpt lat="46.2278022766113" lon="6.98499631881714">
    <ele>466.799987792969</ele>
    <time>2012-03-15T16:00:35Z</time>
   </trkpt>
   <trkpt lat="46.2277374267578" lon="6.98500680923462">
    <ele>467.899993896484</ele>
    <time>2012-03-15T16:00:38Z</time>
   </trkpt>
   <trkpt lat="46.2277183532715" lon="6.98500728607178">
    <ele>468.266662597656</ele>
    <time>2012-03-15T16:00:39Z</time>
   </trkpt>
   <trkpt lat="46.2277030944824" lon="6.98500823974609">
    <ele>468.633331298828</ele>
    <time>2012-03-15T16:00:40Z</time>
   </trkpt>
   <trkpt lat="46.2276840209961" lon="6.98500776290894">
    <ele>469</ele>
    <time>2012-03-15T16:00:41Z</time>
   </trkpt>
   <trkpt lat="46.227668762207" lon="6.98500823974609">
    <ele>469</ele>
    <time>2012-03-15T16:00:42Z</time>
   </trkpt>
   <trkpt lat="46.2276153564453" lon="6.98500442504883">
    <ele>469.857147216797</ele>
    <time>2012-03-15T16:00:45Z</time>
   </trkpt>
   <trkpt lat="46.227596282959" lon="6.98500204086304">
    <ele>470.142852783203</ele>
    <time>2012-03-15T16:00:46Z</time>
   </trkpt>
   <trkpt lat="46.2275772094727" lon="6.98499917984009">
    <ele>470.428558349609</ele>
    <time>2012-03-15T16:00:47Z</time>
   </trkpt>
   <trkpt lat="46.2275581359863" lon="6.98499441146851">
    <ele>470.714294433594</ele>
    <time>2012-03-15T16:00:48Z</time>
   </trkpt>
   <trkpt lat="46.2275390625" lon="6.98498916625976">
    <ele>471</ele>
    <time>2012-03-15T16:00:49Z</time>
   </trkpt>
   <trkpt lat="46.2275009155273" lon="6.98498201370239">
    <ele>471</ele>
    <time>2012-03-15T16:00:51Z</time>
   </trkpt>
   <trkpt lat="46.227424621582" lon="6.98497772216797">
    <ele>472.100006103516</ele>
    <time>2012-03-15T16:00:55Z</time>
   </trkpt>
   <trkpt lat="46.2274055480957" lon="6.98498153686524">
    <ele>472.375</ele>
    <time>2012-03-15T16:00:56Z</time>
   </trkpt>
   <trkpt lat="46.2273902893066" lon="6.98498487472534">
    <ele>472.650024414062</ele>
    <time>2012-03-15T16:00:57Z</time>
   </trkpt>
   <trkpt lat="46.227367401123" lon="6.98498916625976">
    <ele>472.925018310547</ele>
    <time>2012-03-15T16:00:58Z</time>
   </trkpt>
   <trkpt lat="46.2273483276367" lon="6.98499965667725">
    <ele>473.200012207031</ele>
    <time>2012-03-15T16:00:59Z</time>
   </trkpt>
   <trkpt lat="46.2272911071777" lon="6.98502731323242">
    <ele>473.200012207031</ele>
    <time>2012-03-15T16:01:02Z</time>
   </trkpt>
   <trkpt lat="46.2272682189941" lon="6.98504114151001">
    <ele>473.485717773438</ele>
    <time>2012-03-15T16:01:03Z</time>
   </trkpt>
   <trkpt lat="46.227222442627" lon="6.98509788513184">
    <ele>474.342864990234</ele>
    <time>2012-03-15T16:01:06Z</time>
   </trkpt>
   <trkpt lat="46.2272109985352" lon="6.9851188659668">
    <ele>474.628570556641</ele>
    <time>2012-03-15T16:01:07Z</time>
   </trkpt>
   <trkpt lat="46.2271957397461" lon="6.98514270782471">
    <ele>474.914306640625</ele>
    <time>2012-03-15T16:01:08Z</time>
   </trkpt>
   <trkpt lat="46.2271842956543" lon="6.98516654968262">
    <ele>475.200012207031</ele>
    <time>2012-03-15T16:01:09Z</time>
   </trkpt>
   <trkpt lat="46.2271728515625" lon="6.98519086837768">
    <ele>475.200012207031</ele>
    <time>2012-03-15T16:01:10Z</time>
   </trkpt>
   <trkpt lat="46.2271270751953" lon="6.98531675338745">
    <ele>476.494140625</ele>
    <time>2012-03-15T16:01:15Z</time>
   </trkpt>
   <trkpt lat="46.227123260498" lon="6.98534727096558">
    <ele>476.752960205078</ele>
    <time>2012-03-15T16:01:16Z</time>
   </trkpt>
   <trkpt lat="46.2271156311035" lon="6.98537826538086">
    <ele>477.011779785156</ele>
    <time>2012-03-15T16:01:17Z</time>
   </trkpt>
   <trkpt lat="46.2271118164062" lon="6.98540878295898">
    <ele>477.270599365234</ele>
    <time>2012-03-15T16:01:18Z</time>
   </trkpt>
   <trkpt lat="46.227108001709" lon="6.98543834686279">
    <ele>477.529418945312</ele>
    <time>2012-03-15T16:01:19Z</time>
   </trkpt>
   <trkpt lat="46.2270660400391" lon="6.98556089401245">
    <ele>478.564727783203</ele>
    <time>2012-03-15T16:01:23Z</time>
   </trkpt>
   <trkpt lat="46.2270622253418" lon="6.98559141159058">
    <ele>478.823547363281</ele>
    <time>2012-03-15T16:01:24Z</time>
   </trkpt>
   <trkpt lat="46.22705078125" lon="6.98561906814575">
    <ele>479.082366943359</ele>
    <time>2012-03-15T16:01:25Z</time>
   </trkpt>
   <trkpt lat="46.2270431518555" lon="6.98564672470093">
    <ele>479.341186523438</ele>
    <time>2012-03-15T16:01:26Z</time>
   </trkpt>
   <trkpt lat="46.2270355224609" lon="6.98567390441894">
    <ele>479.600006103516</ele>
    <time>2012-03-15T16:01:27Z</time>
   </trkpt>
   <trkpt lat="46.2270011901856" lon="6.98575973510742">
    <ele>479.600006103516</ele>
    <time>2012-03-15T16:01:30Z</time>
   </trkpt>
   <trkpt lat="46.226936340332" lon="6.98594903945923">
    <ele>480.69091796875</ele>
    <time>2012-03-15T16:01:36Z</time>
   </trkpt>
   <trkpt lat="46.2269287109375" lon="6.98598194122314">
    <ele>480.872741699219</ele>
    <time>2012-03-15T16:01:37Z</time>
   </trkpt>
   <trkpt lat="46.2269248962402" lon="6.98601579666138">
    <ele>481.054565429688</ele>
    <time>2012-03-15T16:01:38Z</time>
   </trkpt>
   <trkpt lat="46.226921081543" lon="6.98604917526245">
    <ele>481.236358642578</ele>
    <time>2012-03-15T16:01:39Z</time>
   </trkpt>
   <trkpt lat="46.2269172668457" lon="6.98608207702637">
    <ele>481.418182373047</ele>
    <time>2012-03-15T16:01:40Z</time>
   </trkpt>
   <trkpt lat="46.2269172668457" lon="6.98611497879028">
    <ele>481.600006103516</ele>
    <time>2012-03-15T16:01:41Z</time>
   </trkpt>
   <trkpt lat="46.2269096374512" lon="6.98622035980225">
    <ele>481.600006103516</ele>
    <time>2012-03-15T16:01:44Z</time>
   </trkpt>
   <trkpt lat="46.2269554138184" lon="6.98641157150268">
    <ele>482.800018310547</ele>
    <time>2012-03-15T16:01:50Z</time>
   </trkpt>
   <trkpt lat="46.2269668579102" lon="6.98643922805786">
    <ele>483</ele>
    <time>2012-03-15T16:01:51Z</time>
   </trkpt>
   <trkpt lat="46.226978302002" lon="6.98646545410156">
    <ele>483.200012207031</ele>
    <time>2012-03-15T16:01:52Z</time>
   </trkpt>
   <trkpt lat="46.2269897460938" lon="6.98649263381958">
    <ele>483.399993896484</ele>
    <time>2012-03-15T16:01:53Z</time>
   </trkpt>
   <trkpt lat="46.2270011901856" lon="6.98652172088623">
    <ele>483.600006103516</ele>
    <time>2012-03-15T16:01:54Z</time>
   </trkpt>
   <trkpt lat="46.22705078125" lon="6.98663949966431">
    <ele>483.600006103516</ele>
    <time>2012-03-15T16:01:58Z</time>
   </trkpt>
   <trkpt lat="46.2270736694336" lon="6.98668956756592">
    <ele>484.333343505859</ele>
    <time>2012-03-15T16:02:00Z</time>
   </trkpt>
   <trkpt lat="46.2270889282227" lon="6.98671388626099">
    <ele>484.700012207031</ele>
    <time>2012-03-15T16:02:01Z</time>
   </trkpt>
   <trkpt lat="46.2271041870117" lon="6.98673295974732">
    <ele>485.066650390625</ele>
    <time>2012-03-15T16:02:02Z</time>
   </trkpt>
   <trkpt lat="46.2271156311035" lon="6.98675346374512">
    <ele>485.433319091797</ele>
    <time>2012-03-15T16:02:03Z</time>
   </trkpt>
   <trkpt lat="46.2271308898926" lon="6.98677587509155">
    <ele>485.799987792969</ele>
    <time>2012-03-15T16:02:04Z</time>
   </trkpt>
   <trkpt lat="46.2271423339844" lon="6.98679971694946">
    <ele>485.799987792969</ele>
    <time>2012-03-15T16:02:05Z</time>
   </trkpt>
   <trkpt lat="46.2271957397461" lon="6.98693513870239">
    <ele>486.911102294922</ele>
    <time>2012-03-15T16:02:10Z</time>
   </trkpt>
   <trkpt lat="46.2272033691406" lon="6.98696279525757">
    <ele>487.133331298828</ele>
    <time>2012-03-15T16:02:11Z</time>
   </trkpt>
   <trkpt lat="46.2272071838379" lon="6.98698616027832">
    <ele>487.355529785156</ele>
    <time>2012-03-15T16:02:12Z</time>
   </trkpt>
   <trkpt lat="46.2272071838379" lon="6.98701333999634">
    <ele>487.577758789062</ele>
    <time>2012-03-15T16:02:13Z</time>
   </trkpt>
   <trkpt lat="46.2272071838379" lon="6.98704242706299">
    <ele>487.799987792969</ele>
    <time>2012-03-15T16:02:14Z</time>
   </trkpt>
   <trkpt lat="46.2271995544434" lon="6.98710203170776">
    <ele>487.799987792969</ele>
    <time>2012-03-15T16:02:16Z</time>
   </trkpt>
   <trkpt lat="46.227180480957" lon="6.98715353012085">
    <ele>488.533325195312</ele>
    <time>2012-03-15T16:02:18Z</time>
   </trkpt>
   <trkpt lat="46.2271728515625" lon="6.98717737197876">
    <ele>488.899993896484</ele>
    <time>2012-03-15T16:02:19Z</time>
   </trkpt>
   <trkpt lat="46.227165222168" lon="6.98720264434814">
    <ele>489.266662597656</ele>
    <time>2012-03-15T16:02:20Z</time>
   </trkpt>
   <trkpt lat="46.2271575927734" lon="6.98722505569458">
    <ele>489.633331298828</ele>
    <time>2012-03-15T16:02:21Z</time>
   </trkpt>
   <trkpt lat="46.2271499633789" lon="6.98724842071533">
    <ele>490</ele>
    <time>2012-03-15T16:02:22Z</time>
   </trkpt>
   <trkpt lat="46.2271423339844" lon="6.98729944229126">
    <ele>490</ele>
    <time>2012-03-15T16:02:24Z</time>
   </trkpt>
   <trkpt lat="46.2271461486816" lon="6.98736810684204">
    <ele>490.94287109375</ele>
    <time>2012-03-15T16:02:27Z</time>
   </trkpt>
   <trkpt lat="46.2271423339844" lon="6.98739051818848">
    <ele>491.257141113281</ele>
    <time>2012-03-15T16:02:28Z</time>
   </trkpt>
   <trkpt lat="46.2271385192871" lon="6.98741245269775">
    <ele>491.571441650391</ele>
    <time>2012-03-15T16:02:29Z</time>
   </trkpt>
   <trkpt lat="46.2271385192871" lon="6.98742485046387">
    <ele>491.885711669922</ele>
    <time>2012-03-15T16:02:30Z</time>
   </trkpt>
   <trkpt lat="46.2271347045898" lon="6.98744773864746">
    <ele>492.200012207031</ele>
    <time>2012-03-15T16:02:31Z</time>
   </trkpt>
   <trkpt lat="46.2271347045898" lon="6.98752117156982">
    <ele>492.200012207031</ele>
    <time>2012-03-15T16:02:34Z</time>
   </trkpt>
   <trkpt lat="46.2271385192871" lon="6.98756265640259">
    <ele>492.775024414062</ele>
    <time>2012-03-15T16:02:36Z</time>
   </trkpt>
   <trkpt lat="46.2271423339844" lon="6.98758840560913">
    <ele>493.0625</ele>
    <time>2012-03-15T16:02:37Z</time>
   </trkpt>
   <trkpt lat="46.2271385192871" lon="6.9876127243042">
    <ele>493.350006103516</ele>
    <time>2012-03-15T16:02:38Z</time>
   </trkpt>
   <trkpt lat="46.2271347045898" lon="6.98764133453369">
    <ele>493.637512207031</ele>
    <time>2012-03-15T16:02:39Z</time>
   </trkpt>
   <trkpt lat="46.2271308898926" lon="6.98767185211182">
    <ele>493.924987792969</ele>
    <time>2012-03-15T16:02:40Z</time>
   </trkpt>
   <trkpt lat="46.2271270751953" lon="6.98769569396973">
    <ele>494.212493896484</ele>
    <time>2012-03-15T16:02:41Z</time>
   </trkpt>
   <trkpt lat="46.2271194458008" lon="6.98781538009644">
    <ele>495.649993896484</ele>
    <time>2012-03-15T16:02:46Z</time>
   </trkpt>
   <trkpt lat="46.2271118164062" lon="6.9878420829773">
    <ele>495.9375</ele>
    <time>2012-03-15T16:02:47Z</time>
   </trkpt>
   <trkpt lat="46.2271156311035" lon="6.98787355422974">
    <ele>496.224975585938</ele>
    <time>2012-03-15T16:02:48Z</time>
   </trkpt>
   <trkpt lat="46.2271156311035" lon="6.98789882659912">
    <ele>496.512481689453</ele>
    <time>2012-03-15T16:02:49Z</time>
   </trkpt>
   <trkpt lat="46.2271156311035" lon="6.98792695999146">
    <ele>496.799987792969</ele>
    <time>2012-03-15T16:02:50Z</time>
   </trkpt>
   <trkpt lat="46.2271118164062" lon="6.98798322677612">
    <ele>496.799987792969</ele>
    <time>2012-03-15T16:02:52Z</time>
   </trkpt>
   <trkpt lat="46.2270660400391" lon="6.98809862136841">
    <ele>498.352935791016</ele>
    <time>2012-03-15T16:02:58Z</time>
   </trkpt>
   <trkpt lat="46.2270431518555" lon="6.98811149597168">
    <ele>498.611755371094</ele>
    <time>2012-03-15T16:02:59Z</time>
   </trkpt>
   <trkpt lat="46.2270240783691" lon="6.988112449646">
    <ele>498.870574951172</ele>
    <time>2012-03-15T16:03:00Z</time>
   </trkpt>
   <trkpt lat="46.2270050048828" lon="6.98810148239136">
    <ele>499.129425048828</ele>
    <time>2012-03-15T16:03:01Z</time>
   </trkpt>
   <trkpt lat="46.226993560791" lon="6.98808526992798">
    <ele>499.388244628906</ele>
    <time>2012-03-15T16:03:02Z</time>
   </trkpt>
   <trkpt lat="46.2269592285156" lon="6.9880428314209">
    <ele>500.164703369141</ele>
    <time>2012-03-15T16:03:05Z</time>
   </trkpt>
   <trkpt lat="46.2269439697266" lon="6.98802947998047">
    <ele>500.423522949219</ele>
    <time>2012-03-15T16:03:06Z</time>
   </trkpt>
   <trkpt lat="46.226936340332" lon="6.98801326751709">
    <ele>500.682373046875</ele>
    <time>2012-03-15T16:03:07Z</time>
   </trkpt>
   <trkpt lat="46.2269248962402" lon="6.98800849914551">
    <ele>500.941192626953</ele>
    <time>2012-03-15T16:03:08Z</time>
   </trkpt>
   <trkpt lat="46.2269096374512" lon="6.98799562454224">
    <ele>501.200012207031</ele>
    <time>2012-03-15T16:03:09Z</time>
   </trkpt>
   <trkpt lat="46.2268104553223" lon="6.98791551589966">
    <ele>501.200012207031</ele>
    <time>2012-03-15T16:03:14Z</time>
   </trkpt>
   <trkpt lat="46.2267951965332" lon="6.98789358139038">
    <ele>501.640014648438</ele>
    <time>2012-03-15T16:03:15Z</time>
   </trkpt>
   <trkpt lat="46.2267799377441" lon="6.98787641525268">
    <ele>502.080017089844</ele>
    <time>2012-03-15T16:03:16Z</time>
   </trkpt>
   <trkpt lat="46.2267646789551" lon="6.98786497116089">
    <ele>502.519989013672</ele>
    <time>2012-03-15T16:03:17Z</time>
   </trkpt>
   <trkpt lat="46.226749420166" lon="6.98784685134888">
    <ele>502.959991455078</ele>
    <time>2012-03-15T16:03:18Z</time>
   </trkpt>
   <trkpt lat="46.2267379760742" lon="6.98782539367676">
    <ele>503.399993896484</ele>
    <time>2012-03-15T16:03:19Z</time>
   </trkpt>
   <trkpt lat="46.2267227172852" lon="6.98780965805054">
    <ele>503.399993896484</ele>
    <time>2012-03-15T16:03:20Z</time>
   </trkpt>
   <trkpt lat="46.226692199707" lon="6.98776006698608">
    <ele>504.257141113281</ele>
    <time>2012-03-15T16:03:23Z</time>
   </trkpt>
   <trkpt lat="46.2266731262207" lon="6.98775100708008">
    <ele>504.542846679688</ele>
    <time>2012-03-15T16:03:24Z</time>
   </trkpt>
   <trkpt lat="46.2266502380371" lon="6.98773765563965">
    <ele>504.828552246094</ele>
    <time>2012-03-15T16:03:25Z</time>
   </trkpt>
   <trkpt lat="46.2266273498535" lon="6.98772859573364">
    <ele>505.114288330078</ele>
    <time>2012-03-15T16:03:26Z</time>
   </trkpt>
   <trkpt lat="46.2266006469727" lon="6.9877233505249">
    <ele>505.399993896484</ele>
    <time>2012-03-15T16:03:27Z</time>
   </trkpt>
   <trkpt lat="46.2265357971191" lon="6.98776245117188">
    <ele>505.399993896484</ele>
    <time>2012-03-15T16:03:31Z</time>
   </trkpt>
   <trkpt lat="46.2265129089356" lon="6.98782110214233">
    <ele>506.133331298828</ele>
    <time>2012-03-15T16:03:33Z</time>
   </trkpt>
   <trkpt lat="46.226505279541" lon="6.98785066604614">
    <ele>506.5</ele>
    <time>2012-03-15T16:03:34Z</time>
   </trkpt>
   <trkpt lat="46.2265090942383" lon="6.98787593841553">
    <ele>506.866668701172</ele>
    <time>2012-03-15T16:03:35Z</time>
   </trkpt>
   <trkpt lat="46.2265205383301" lon="6.9879002571106">
    <ele>507.233337402344</ele>
    <time>2012-03-15T16:03:36Z</time>
   </trkpt>
   <trkpt lat="46.2265357971191" lon="6.98792219161987">
    <ele>507.600006103516</ele>
    <time>2012-03-15T16:03:37Z</time>
   </trkpt>
   <trkpt lat="46.2265815734863" lon="6.98799133300781">
    <ele>507.600006103516</ele>
    <time>2012-03-15T16:03:40Z</time>
   </trkpt>
   <trkpt lat="46.2266273498535" lon="6.98805999755859">
    <ele>508.399993896484</ele>
    <time>2012-03-15T16:03:43Z</time>
   </trkpt>
   <trkpt lat="46.2266540527344" lon="6.98810434341431">
    <ele>508.933349609375</ele>
    <time>2012-03-15T16:03:45Z</time>
   </trkpt>
   <trkpt lat="46.2266616821289" lon="6.98812675476074">
    <ele>509.200012207031</ele>
    <time>2012-03-15T16:03:46Z</time>
   </trkpt>
   <trkpt lat="46.2266654968262" lon="6.9881443977356">
    <ele>509.466674804688</ele>
    <time>2012-03-15T16:03:47Z</time>
   </trkpt>
   <trkpt lat="46.2266693115234" lon="6.98817253112793">
    <ele>509.733337402344</ele>
    <time>2012-03-15T16:03:48Z</time>
   </trkpt>
   <trkpt lat="46.2266807556152" lon="6.98819828033447">
    <ele>510</ele>
    <time>2012-03-15T16:03:49Z</time>
   </trkpt>
   <trkpt lat="46.2266883850098" lon="6.9882287979126">
    <ele>510</ele>
    <time>2012-03-15T16:03:50Z</time>
   </trkpt>
   <trkpt lat="46.2266960144043" lon="6.98839569091797">
    <ele>511.222229003906</ele>
    <time>2012-03-15T16:03:55Z</time>
   </trkpt>
   <trkpt lat="46.226692199707" lon="6.98842906951904">
    <ele>511.466674804688</ele>
    <time>2012-03-15T16:03:56Z</time>
   </trkpt>
   <trkpt lat="46.2266883850098" lon="6.98845434188843">
    <ele>511.711120605469</ele>
    <time>2012-03-15T16:03:57Z</time>
   </trkpt>
   <trkpt lat="46.2266845703125" lon="6.98847770690918">
    <ele>511.95556640625</ele>
    <time>2012-03-15T16:03:58Z</time>
   </trkpt>
   <trkpt lat="46.226676940918" lon="6.98850202560425">
    <ele>512.200012207031</ele>
    <time>2012-03-15T16:03:59Z</time>
   </trkpt>
   <trkpt lat="46.2266654968262" lon="6.98854827880859">
    <ele>512.200012207031</ele>
    <time>2012-03-15T16:04:01Z</time>
   </trkpt>
   <trkpt lat="46.2266502380371" lon="6.98860454559326">
    <ele>512.933349609375</ele>
    <time>2012-03-15T16:04:03Z</time>
   </trkpt>
   <trkpt lat="46.2266387939453" lon="6.98863172531128">
    <ele>513.300048828125</ele>
    <time>2012-03-15T16:04:04Z</time>
   </trkpt>
   <trkpt lat="46.2266273498535" lon="6.98865556716919">
    <ele>513.666687011719</ele>
    <time>2012-03-15T16:04:05Z</time>
   </trkpt>
   <trkpt lat="46.2266159057617" lon="6.98867702484131">
    <ele>514.033325195312</ele>
    <time>2012-03-15T16:04:06Z</time>
   </trkpt>
   <trkpt lat="46.2266082763672" lon="6.98869943618774">
    <ele>514.400024414062</ele>
    <time>2012-03-15T16:04:07Z</time>
   </trkpt>
   <trkpt lat="46.2265892028809" lon="6.98876810073852">
    <ele>514.400024414062</ele>
    <time>2012-03-15T16:04:10Z</time>
   </trkpt>
   <trkpt lat="46.2265739440918" lon="6.98881769180298">
    <ele>515.133361816406</ele>
    <time>2012-03-15T16:04:12Z</time>
   </trkpt>
   <trkpt lat="46.2265663146973" lon="6.98884725570679">
    <ele>515.5</ele>
    <time>2012-03-15T16:04:13Z</time>
   </trkpt>
   <trkpt lat="46.2265625" lon="6.98887157440186">
    <ele>515.866638183594</ele>
    <time>2012-03-15T16:04:14Z</time>
   </trkpt>
   <trkpt lat="46.2265548706055" lon="6.98889255523682">
    <ele>516.233337402344</ele>
    <time>2012-03-15T16:04:15Z</time>
   </trkpt>
   <trkpt lat="46.2265472412109" lon="6.98891687393188">
    <ele>516.599975585938</ele>
    <time>2012-03-15T16:04:16Z</time>
   </trkpt>
   <trkpt lat="46.2265357971191" lon="6.98896884918213">
    <ele>516.599975585938</ele>
    <time>2012-03-15T16:04:18Z</time>
   </trkpt>
   <trkpt lat="46.2265167236328" lon="6.98907947540283">
    <ele>517.773315429688</ele>
    <time>2012-03-15T16:04:22Z</time>
   </trkpt>
   <trkpt lat="46.2265090942383" lon="6.98910140991211">
    <ele>518.066650390625</ele>
    <time>2012-03-15T16:04:23Z</time>
   </trkpt>
   <trkpt lat="46.2264862060547" lon="6.98912286758423">
    <ele>518.359985351562</ele>
    <time>2012-03-15T16:04:24Z</time>
   </trkpt>
   <trkpt lat="46.2264633178711" lon="6.98913812637329">
    <ele>518.6533203125</ele>
    <time>2012-03-15T16:04:25Z</time>
   </trkpt>
   <trkpt lat="46.2263717651367" lon="6.98914480209351">
    <ele>519.82666015625</ele>
    <time>2012-03-15T16:04:29Z</time>
   </trkpt>
   <trkpt lat="46.2263526916504" lon="6.98913812637329">
    <ele>520.119995117188</ele>
    <time>2012-03-15T16:04:30Z</time>
   </trkpt>
   <trkpt lat="46.2263374328613" lon="6.98912382125854">
    <ele>520.413330078125</ele>
    <time>2012-03-15T16:04:31Z</time>
   </trkpt>
   <trkpt lat="46.226318359375" lon="6.98910427093506">
    <ele>520.706665039062</ele>
    <time>2012-03-15T16:04:32Z</time>
   </trkpt>
   <trkpt lat="46.2263069152832" lon="6.98908615112305">
    <ele>521</ele>
    <time>2012-03-15T16:04:33Z</time>
   </trkpt>
   <trkpt lat="46.2262916564941" lon="6.98906755447388">
    <ele>521</ele>
    <time>2012-03-15T16:04:34Z</time>
   </trkpt>
   <trkpt lat="46.226261138916" lon="6.98902797698975">
    <ele>521.590454101562</ele>
    <time>2012-03-15T16:04:36Z</time>
   </trkpt>
   <trkpt lat="46.226245880127" lon="6.98901176452637">
    <ele>521.8857421875</ele>
    <time>2012-03-15T16:04:37Z</time>
   </trkpt>
   <trkpt lat="46.2262344360352" lon="6.98899412155151">
    <ele>522.180969238281</ele>
    <time>2012-03-15T16:04:38Z</time>
   </trkpt>
   <trkpt lat="46.2262191772461" lon="6.98898124694824">
    <ele>522.476196289062</ele>
    <time>2012-03-15T16:04:39Z</time>
   </trkpt>
   <trkpt lat="46.2262077331543" lon="6.98896408081055">
    <ele>522.771423339844</ele>
    <time>2012-03-15T16:04:40Z</time>
   </trkpt>
   <trkpt lat="46.2261505126953" lon="6.98889780044556">
    <ele>523.952392578125</ele>
    <time>2012-03-15T16:04:44Z</time>
   </trkpt>
   <trkpt lat="46.2261390686035" lon="6.98887777328491">
    <ele>524.247619628906</ele>
    <time>2012-03-15T16:04:45Z</time>
   </trkpt>
   <trkpt lat="46.2261238098144" lon="6.98885822296143">
    <ele>524.542846679688</ele>
    <time>2012-03-15T16:04:46Z</time>
   </trkpt>
   <trkpt lat="46.2261085510254" lon="6.98883819580078">
    <ele>524.838073730469</ele>
    <time>2012-03-15T16:04:47Z</time>
   </trkpt>
   <trkpt lat="46.2260971069336" lon="6.98882246017456">
    <ele>525.133361816406</ele>
    <time>2012-03-15T16:04:48Z</time>
   </trkpt>
   <trkpt lat="46.2260513305664" lon="6.98878383636475">
    <ele>526.01904296875</ele>
    <time>2012-03-15T16:04:51Z</time>
   </trkpt>
   <trkpt lat="46.2260360717773" lon="6.98876905441284">
    <ele>526.314270019531</ele>
    <time>2012-03-15T16:04:52Z</time>
   </trkpt>
   <trkpt lat="46.2260208129883" lon="6.98875665664673">
    <ele>526.609558105469</ele>
    <time>2012-03-15T16:04:53Z</time>
   </trkpt>
   <trkpt lat="46.2260055541992" lon="6.98874139785767">
    <ele>526.90478515625</ele>
    <time>2012-03-15T16:04:54Z</time>
   </trkpt>
   <trkpt lat="46.2259941101074" lon="6.9887228012085">
    <ele>527.200012207031</ele>
    <time>2012-03-15T16:04:55Z</time>
   </trkpt>
   <trkpt lat="46.2259521484375" lon="6.98867177963257">
    <ele>527.200012207031</ele>
    <time>2012-03-15T16:04:58Z</time>
   </trkpt>
   <trkpt lat="46.2259178161621" lon="6.98864984512329">
    <ele>527.933349609375</ele>
    <time>2012-03-15T16:05:00Z</time>
   </trkpt>
   <trkpt lat="46.2258987426758" lon="6.98863554000854">
    <ele>528.300048828125</ele>
    <time>2012-03-15T16:05:01Z</time>
   </trkpt>
   <trkpt lat="46.2258834838867" lon="6.98862361907959">
    <ele>528.666687011719</ele>
    <time>2012-03-15T16:05:02Z</time>
   </trkpt>
   <trkpt lat="46.2258682250977" lon="6.98861408233643">
    <ele>529.033325195312</ele>
    <time>2012-03-15T16:05:03Z</time>
   </trkpt>
   <trkpt lat="46.2258491516113" lon="6.98860120773315">
    <ele>529.400024414062</ele>
    <time>2012-03-15T16:05:04Z</time>
   </trkpt>
   <trkpt lat="46.2258338928223" lon="6.98858547210693">
    <ele>529.400024414062</ele>
    <time>2012-03-15T16:05:05Z</time>
   </trkpt>
   <trkpt lat="46.225757598877" lon="6.98848724365234">
    <ele>530.844482421875</ele>
    <time>2012-03-15T16:05:10Z</time>
   </trkpt>
   <trkpt lat="46.2257423400879" lon="6.98847341537476">
    <ele>531.133361816406</ele>
    <time>2012-03-15T16:05:11Z</time>
   </trkpt>
   <trkpt lat="46.2257232666016" lon="6.98845958709717">
    <ele>531.422241210938</ele>
    <time>2012-03-15T16:05:12Z</time>
   </trkpt>
   <trkpt lat="46.2257080078125" lon="6.98844528198242">
    <ele>531.711120605469</ele>
    <time>2012-03-15T16:05:13Z</time>
   </trkpt>
   <trkpt lat="46.2256927490234" lon="6.98843002319336">
    <ele>532</ele>
    <time>2012-03-15T16:05:14Z</time>
   </trkpt>
   <trkpt lat="46.2256393432617" lon="6.98838090896606">
    <ele>532</ele>
    <time>2012-03-15T16:05:17Z</time>
   </trkpt>
   <trkpt lat="46.2256278991699" lon="6.98836469650268">
    <ele>532.314270019531</ele>
    <time>2012-03-15T16:05:18Z</time>
   </trkpt>
   <trkpt lat="46.2256126403809" lon="6.98834609985352">
    <ele>532.628601074219</ele>
    <time>2012-03-15T16:05:19Z</time>
   </trkpt>
   <trkpt lat="46.2256011962891" lon="6.98833322525024">
    <ele>532.94287109375</ele>
    <time>2012-03-15T16:05:20Z</time>
   </trkpt>
   <trkpt lat="46.2255859375" lon="6.98832273483276">
    <ele>533.257141113281</ele>
    <time>2012-03-15T16:05:21Z</time>
   </trkpt>
   <trkpt lat="46.2255706787109" lon="6.98831081390381">
    <ele>533.571411132812</ele>
    <time>2012-03-15T16:05:22Z</time>
   </trkpt>
   <trkpt lat="46.2254867553711" lon="6.98824977874756">
    <ele>535.142883300781</ele>
    <time>2012-03-15T16:05:27Z</time>
   </trkpt>
   <trkpt lat="46.225471496582" lon="6.98824214935303">
    <ele>535.457153320312</ele>
    <time>2012-03-15T16:05:28Z</time>
   </trkpt>
   <trkpt lat="46.2254524230957" lon="6.98823881149292">
    <ele>535.771423339844</ele>
    <time>2012-03-15T16:05:29Z</time>
   </trkpt>
   <trkpt lat="46.2254371643066" lon="6.98823165893555">
    <ele>536.085754394531</ele>
    <time>2012-03-15T16:05:30Z</time>
   </trkpt>
   <trkpt lat="46.2254180908203" lon="6.98822546005249">
    <ele>536.400024414062</ele>
    <time>2012-03-15T16:05:31Z</time>
   </trkpt>
   <trkpt lat="46.2253608703613" lon="6.98821926116943">
    <ele>536.400024414062</ele>
    <time>2012-03-15T16:05:34Z</time>
   </trkpt>
   <trkpt lat="46.2253456115723" lon="6.9882287979126">
    <ele>536.766662597656</ele>
    <time>2012-03-15T16:05:35Z</time>
   </trkpt>
   <trkpt lat="46.2253227233887" lon="6.98825597763062">
    <ele>537.5</ele>
    <time>2012-03-15T16:05:37Z</time>
   </trkpt>
   <trkpt lat="46.2253036499023" lon="6.98826885223389">
    <ele>537.866638183594</ele>
    <time>2012-03-15T16:05:38Z</time>
   </trkpt>
   <trkpt lat="46.225284576416" lon="6.98828077316284">
    <ele>538.233337402344</ele>
    <time>2012-03-15T16:05:39Z</time>
   </trkpt>
   <trkpt lat="46.2252655029297" lon="6.98829698562622">
    <ele>538.599975585938</ele>
    <time>2012-03-15T16:05:40Z</time>
   </trkpt>
   <trkpt lat="46.2252197265625" lon="6.98840951919556">
    <ele>538.599975585938</ele>
    <time>2012-03-15T16:05:44Z</time>
   </trkpt>
   <trkpt lat="46.2252159118652" lon="6.9884614944458">
    <ele>539.316650390625</ele>
    <time>2012-03-15T16:05:46Z</time>
   </trkpt>
   <trkpt lat="46.225212097168" lon="6.98848819732666">
    <ele>539.674987792969</ele>
    <time>2012-03-15T16:05:47Z</time>
   </trkpt>
   <trkpt lat="46.2252044677734" lon="6.98850917816162">
    <ele>540.033325195312</ele>
    <time>2012-03-15T16:05:48Z</time>
   </trkpt>
   <trkpt lat="46.2251968383789" lon="6.98853015899658">
    <ele>540.391662597656</ele>
    <time>2012-03-15T16:05:49Z</time>
   </trkpt>
   <trkpt lat="46.2251853942871" lon="6.98855018615723">
    <ele>540.75</ele>
    <time>2012-03-15T16:05:50Z</time>
   </trkpt>
   <trkpt lat="46.2251243591309" lon="6.98856496810913">
    <ele>541.825012207031</ele>
    <time>2012-03-15T16:05:53Z</time>
   </trkpt>
   <trkpt lat="46.2251052856445" lon="6.98855018615723">
    <ele>542.183349609375</ele>
    <time>2012-03-15T16:05:54Z</time>
   </trkpt>
   <trkpt lat="46.2250900268555" lon="6.98852825164795">
    <ele>542.541687011719</ele>
    <time>2012-03-15T16:05:55Z</time>
   </trkpt>
   <trkpt lat="46.2250785827637" lon="6.98850679397583">
    <ele>542.900024414062</ele>
    <time>2012-03-15T16:05:56Z</time>
   </trkpt>
   <trkpt lat="46.2250671386719" lon="6.98847961425781">
    <ele>543.25830078125</ele>
    <time>2012-03-15T16:05:57Z</time>
   </trkpt>
   <trkpt lat="46.2250595092773" lon="6.98844766616821">
    <ele>543.616638183594</ele>
    <time>2012-03-15T16:05:58Z</time>
   </trkpt>
   <trkpt lat="46.2250556945801" lon="6.98842287063599">
    <ele>543.974975585938</ele>
    <time>2012-03-15T16:05:59Z</time>
   </trkpt>
   <trkpt lat="46.2250480651856" lon="6.98839139938354">
    <ele>544.333312988281</ele>
    <time>2012-03-15T16:06:00Z</time>
   </trkpt>
   <trkpt lat="46.2250366210938" lon="6.98836135864258">
    <ele>544.691650390625</ele>
    <time>2012-03-15T16:06:01Z</time>
   </trkpt>
   <trkpt lat="46.2250328063965" lon="6.98833703994751">
    <ele>545.049987792969</ele>
    <time>2012-03-15T16:06:02Z</time>
   </trkpt>
   <trkpt lat="46.225025177002" lon="6.98829889297485">
    <ele>545.766662597656</ele>
    <time>2012-03-15T16:06:04Z</time>
   </trkpt>
   <trkpt lat="46.2250137329102" lon="6.98827314376831">
    <ele>546.125</ele>
    <time>2012-03-15T16:06:05Z</time>
   </trkpt>
   <trkpt lat="46.2250099182129" lon="6.98825025558472">
    <ele>546.483337402344</ele>
    <time>2012-03-15T16:06:06Z</time>
   </trkpt>
   <trkpt lat="46.2249984741211" lon="6.98822593688965">
    <ele>546.841674804688</ele>
    <time>2012-03-15T16:06:07Z</time>
   </trkpt>
   <trkpt lat="46.2249908447266" lon="6.98820161819458">
    <ele>547.200012207031</ele>
    <time>2012-03-15T16:06:08Z</time>
   </trkpt>
   <trkpt lat="46.2249526977539" lon="6.98814153671265">
    <ele>547.200012207031</ele>
    <time>2012-03-15T16:06:11Z</time>
   </trkpt>
   <trkpt lat="46.2249336242676" lon="6.98809909820557">
    <ele>547.799987792969</ele>
    <time>2012-03-15T16:06:13Z</time>
   </trkpt>
   <trkpt lat="46.2249221801758" lon="6.98807859420776">
    <ele>548.100036621094</ele>
    <time>2012-03-15T16:06:14Z</time>
   </trkpt>
   <trkpt lat="46.2249145507812" lon="6.9880576133728">
    <ele>548.400024414062</ele>
    <time>2012-03-15T16:06:15Z</time>
   </trkpt>
   <trkpt lat="46.2249069213867" lon="6.98803091049194">
    <ele>548.700012207031</ele>
    <time>2012-03-15T16:06:16Z</time>
   </trkpt>
   <trkpt lat="46.2248992919922" lon="6.98800182342529">
    <ele>549</ele>
    <time>2012-03-15T16:06:17Z</time>
   </trkpt>
   <trkpt lat="46.2248725891113" lon="6.98790216445923">
    <ele>550.200012207031</ele>
    <time>2012-03-15T16:06:21Z</time>
   </trkpt>
   <trkpt lat="46.2248611450195" lon="6.98787689208984">
    <ele>550.5</ele>
    <time>2012-03-15T16:06:22Z</time>
   </trkpt>
   <trkpt lat="46.2248573303223" lon="6.98785305023193">
    <ele>550.800048828125</ele>
    <time>2012-03-15T16:06:23Z</time>
   </trkpt>
   <trkpt lat="46.2248497009277" lon="6.98783111572266">
    <ele>551.100036621094</ele>
    <time>2012-03-15T16:06:24Z</time>
   </trkpt>
   <trkpt lat="46.2248420715332" lon="6.98780632019043">
    <ele>551.400024414062</ele>
    <time>2012-03-15T16:06:25Z</time>
   </trkpt>
   <trkpt lat="46.2248268127441" lon="6.98777914047241">
    <ele>551.400024414062</ele>
    <time>2012-03-15T16:06:26Z</time>
   </trkpt>
   <trkpt lat="46.2248001098633" lon="6.98770236968994">
    <ele>552.224975585938</ele>
    <time>2012-03-15T16:06:29Z</time>
   </trkpt>
   <trkpt lat="46.2247886657715" lon="6.98767948150635">
    <ele>552.5</ele>
    <time>2012-03-15T16:06:30Z</time>
   </trkpt>
   <trkpt lat="46.2247772216797" lon="6.98766374588013">
    <ele>552.775024414062</ele>
    <time>2012-03-15T16:06:31Z</time>
   </trkpt>
   <trkpt lat="46.2247695922852" lon="6.9876446723938">
    <ele>553.049987792969</ele>
    <time>2012-03-15T16:06:32Z</time>
   </trkpt>
   <trkpt lat="46.2247581481934" lon="6.98761749267578">
    <ele>553.324951171875</ele>
    <time>2012-03-15T16:06:33Z</time>
   </trkpt>
   <trkpt lat="46.2247467041016" lon="6.98759126663208">
    <ele>553.599975585938</ele>
    <time>2012-03-15T16:06:34Z</time>
   </trkpt>
   <trkpt lat="46.224739074707" lon="6.98756694793701">
    <ele>553.599975585938</ele>
    <time>2012-03-15T16:06:35Z</time>
   </trkpt>
   <trkpt lat="46.2246704101562" lon="6.98745822906494">
    <ele>554.711059570312</ele>
    <time>2012-03-15T16:06:40Z</time>
   </trkpt>
   <trkpt lat="46.2246551513672" lon="6.98743343353272">
    <ele>554.933288574219</ele>
    <time>2012-03-15T16:06:41Z</time>
   </trkpt>
   <trkpt lat="46.2246437072754" lon="6.98741292953491">
    <ele>555.155517578125</ele>
    <time>2012-03-15T16:06:42Z</time>
   </trkpt>
   <trkpt lat="46.2246322631836" lon="6.98738479614258">
    <ele>555.377746582031</ele>
    <time>2012-03-15T16:06:43Z</time>
   </trkpt>
   <trkpt lat="46.2246246337891" lon="6.98735570907593">
    <ele>555.599975585938</ele>
    <time>2012-03-15T16:06:44Z</time>
   </trkpt>
   <trkpt lat="46.2246208190918" lon="6.98732614517212">
    <ele>555.599975585938</ele>
    <time>2012-03-15T16:06:45Z</time>
   </trkpt>
   <trkpt lat="46.2245979309082" lon="6.9872407913208">
    <ele>556.460876464844</ele>
    <time>2012-03-15T16:06:48Z</time>
   </trkpt>
   <trkpt lat="46.2245903015137" lon="6.98721551895142">
    <ele>556.747802734375</ele>
    <time>2012-03-15T16:06:49Z</time>
   </trkpt>
   <trkpt lat="46.2245903015137" lon="6.98718881607056">
    <ele>557.034790039062</ele>
    <time>2012-03-15T16:06:50Z</time>
   </trkpt>
   <trkpt lat="46.2245903015137" lon="6.9871621131897">
    <ele>557.321716308594</ele>
    <time>2012-03-15T16:06:51Z</time>
   </trkpt>
   <trkpt lat="46.2245864868164" lon="6.9871335029602">
    <ele>557.608703613281</ele>
    <time>2012-03-15T16:06:52Z</time>
   </trkpt>
   <trkpt lat="46.2245979309082" lon="6.98702383041382">
    <ele>558.756530761719</ele>
    <time>2012-03-15T16:06:56Z</time>
   </trkpt>
   <trkpt lat="46.2246017456055" lon="6.98699712753296">
    <ele>559.04345703125</ele>
    <time>2012-03-15T16:06:57Z</time>
   </trkpt>
   <trkpt lat="46.2246131896973" lon="6.98697280883789">
    <ele>559.330444335938</ele>
    <time>2012-03-15T16:06:58Z</time>
   </trkpt>
   <trkpt lat="46.2246246337891" lon="6.98695039749146">
    <ele>559.617370605469</ele>
    <time>2012-03-15T16:06:59Z</time>
   </trkpt>
   <trkpt lat="46.2246360778809" lon="6.98692989349365">
    <ele>559.904357910156</ele>
    <time>2012-03-15T16:07:00Z</time>
   </trkpt>
   <trkpt lat="46.2246971130371" lon="6.98685026168823">
    <ele>561.052185058594</ele>
    <time>2012-03-15T16:07:04Z</time>
   </trkpt>
   <trkpt lat="46.2247085571289" lon="6.98683071136475">
    <ele>561.339111328125</ele>
    <time>2012-03-15T16:07:05Z</time>
   </trkpt>
   <trkpt lat="46.224723815918" lon="6.98681640625">
    <ele>561.626098632812</ele>
    <time>2012-03-15T16:07:06Z</time>
   </trkpt>
   <trkpt lat="46.224739074707" lon="6.98680400848389">
    <ele>561.913024902344</ele>
    <time>2012-03-15T16:07:07Z</time>
   </trkpt>
   <trkpt lat="46.2247543334961" lon="6.9867901802063">
    <ele>562.200012207031</ele>
    <time>2012-03-15T16:07:08Z</time>
   </trkpt>
   <trkpt lat="46.2247924804688" lon="6.986741065979">
    <ele>562.200012207031</ele>
    <time>2012-03-15T16:07:11Z</time>
   </trkpt>
   <trkpt lat="46.2248382568359" lon="6.9866943359375">
    <ele>563.100036621094</ele>
    <time>2012-03-15T16:07:14Z</time>
   </trkpt>
   <trkpt lat="46.224853515625" lon="6.9866771697998">
    <ele>563.400024414062</ele>
    <time>2012-03-15T16:07:15Z</time>
   </trkpt>
   <trkpt lat="46.2248725891113" lon="6.98665475845337">
    <ele>563.700012207031</ele>
    <time>2012-03-15T16:07:16Z</time>
   </trkpt>
   <trkpt lat="46.2248916625977" lon="6.98663663864136">
    <ele>564</ele>
    <time>2012-03-15T16:07:17Z</time>
   </trkpt>
   <trkpt lat="46.2249565124512" lon="6.98657178878784">
    <ele>565.200012207031</ele>
    <time>2012-03-15T16:07:21Z</time>
   </trkpt>
   <trkpt lat="46.2249717712402" lon="6.98655986785889">
    <ele>565.5</ele>
    <time>2012-03-15T16:07:22Z</time>
   </trkpt>
   <trkpt lat="46.224983215332" lon="6.98654651641846">
    <ele>565.800048828125</ele>
    <time>2012-03-15T16:07:23Z</time>
   </trkpt>
   <trkpt lat="46.2249946594238" lon="6.98652744293213">
    <ele>566.100036621094</ele>
    <time>2012-03-15T16:07:24Z</time>
   </trkpt>
   <trkpt lat="46.2250061035156" lon="6.98649787902832">
    <ele>566.400024414062</ele>
    <time>2012-03-15T16:07:25Z</time>
   </trkpt>
   <trkpt lat="46.2250175476074" lon="6.98646640777588">
    <ele>566.400024414062</ele>
    <time>2012-03-15T16:07:26Z</time>
   </trkpt>
   <trkpt lat="46.2250328063965" lon="6.98639869689941">
    <ele>566.844482421875</ele>
    <time>2012-03-15T16:07:28Z</time>
   </trkpt>
   <trkpt lat="46.2250480651856" lon="6.98629760742188">
    <ele>567.511108398438</ele>
    <time>2012-03-15T16:07:31Z</time>
   </trkpt>
   <trkpt lat="46.2250518798828" lon="6.98626565933228">
    <ele>567.733337402344</ele>
    <time>2012-03-15T16:07:32Z</time>
   </trkpt>
   <trkpt lat="46.2250518798828" lon="6.98623085021973">
    <ele>567.95556640625</ele>
    <time>2012-03-15T16:07:33Z</time>
   </trkpt>
   <trkpt lat="46.2250556945801" lon="6.98619365692139">
    <ele>568.177795410156</ele>
    <time>2012-03-15T16:07:34Z</time>
   </trkpt>
   <trkpt lat="46.2250595092773" lon="6.98615598678589">
    <ele>568.400024414062</ele>
    <time>2012-03-15T16:07:35Z</time>
   </trkpt>
   <trkpt lat="46.2250556945801" lon="6.98612022399902">
    <ele>568.400024414062</ele>
    <time>2012-03-15T16:07:36Z</time>
   </trkpt>
   <trkpt lat="46.2250328063965" lon="6.98594427108765">
    <ele>569.400024414062</ele>
    <time>2012-03-15T16:07:41Z</time>
   </trkpt>
   <trkpt lat="46.2250289916992" lon="6.9859127998352">
    <ele>569.600036621094</ele>
    <time>2012-03-15T16:07:42Z</time>
   </trkpt>
   <trkpt lat="46.225025177002" lon="6.9858832359314">
    <ele>569.800048828125</ele>
    <time>2012-03-15T16:07:43Z</time>
   </trkpt>
   <trkpt lat="46.2250175476074" lon="6.98585271835327">
    <ele>570</ele>
    <time>2012-03-15T16:07:44Z</time>
   </trkpt>
   <trkpt lat="46.2250099182129" lon="6.98582220077515">
    <ele>570.200012207031</ele>
    <time>2012-03-15T16:07:45Z</time>
   </trkpt>
   <trkpt lat="46.2250022888184" lon="6.9857931137085">
    <ele>570.400024414062</ele>
    <time>2012-03-15T16:07:46Z</time>
   </trkpt>
   <trkpt lat="46.2249794006348" lon="6.98568487167358">
    <ele>570.400024414062</ele>
    <time>2012-03-15T16:07:50Z</time>
   </trkpt>
   <trkpt lat="46.2249717712402" lon="6.98565626144409">
    <ele>570.840026855469</ele>
    <time>2012-03-15T16:07:51Z</time>
   </trkpt>
   <trkpt lat="46.2249641418457" lon="6.98563003540039">
    <ele>571.280029296875</ele>
    <time>2012-03-15T16:07:52Z</time>
   </trkpt>
   <trkpt lat="46.2249565124512" lon="6.98560285568237">
    <ele>571.719970703125</ele>
    <time>2012-03-15T16:07:53Z</time>
   </trkpt>
   <trkpt lat="46.2249450683594" lon="6.98557090759277">
    <ele>572.159973144531</ele>
    <time>2012-03-15T16:07:54Z</time>
   </trkpt>
   <trkpt lat="46.2249412536621" lon="6.98553705215454">
    <ele>572.599975585938</ele>
    <time>2012-03-15T16:07:55Z</time>
   </trkpt>
   <trkpt lat="46.224925994873" lon="6.98543977737427">
    <ele>572.599975585938</ele>
    <time>2012-03-15T16:07:58Z</time>
   </trkpt>
   <trkpt lat="46.2249603271484" lon="6.98522758483887">
    <ele>574.140014648438</ele>
    <time>2012-03-15T16:08:05Z</time>
   </trkpt>
   <trkpt lat="46.2249755859375" lon="6.98520517349243">
    <ele>574.359985351562</ele>
    <time>2012-03-15T16:08:06Z</time>
   </trkpt>
   <trkpt lat="46.2249946594238" lon="6.98518896102905">
    <ele>574.579956054688</ele>
    <time>2012-03-15T16:08:07Z</time>
   </trkpt>
   <trkpt lat="46.2250099182129" lon="6.98517560958862">
    <ele>574.799987792969</ele>
    <time>2012-03-15T16:08:08Z</time>
   </trkpt>
   <trkpt lat="46.2250747680664" lon="6.98513603210449">
    <ele>574.799987792969</ele>
    <time>2012-03-15T16:08:11Z</time>
   </trkpt>
   <trkpt lat="46.2251510620117" lon="6.98507261276245">
    <ele>575.799987792969</ele>
    <time>2012-03-15T16:08:15Z</time>
   </trkpt>
   <trkpt lat="46.225170135498" lon="6.9850549697876">
    <ele>576.049987792969</ele>
    <time>2012-03-15T16:08:16Z</time>
   </trkpt>
   <trkpt lat="46.2251853942871" lon="6.98503541946411">
    <ele>576.299987792969</ele>
    <time>2012-03-15T16:08:17Z</time>
   </trkpt>
   <trkpt lat="46.2252044677734" lon="6.98501634597778">
    <ele>576.549987792969</ele>
    <time>2012-03-15T16:08:18Z</time>
   </trkpt>
   <trkpt lat="46.2252235412598" lon="6.9850001335144">
    <ele>576.799987792969</ele>
    <time>2012-03-15T16:08:19Z</time>
   </trkpt>
   <trkpt lat="46.2252807617188" lon="6.98490762710571">
    <ele>576.799987792969</ele>
    <time>2012-03-15T16:08:23Z</time>
   </trkpt>
   <trkpt lat="46.2253227233887" lon="6.98468780517578">
    <ele>577.890869140625</ele>
    <time>2012-03-15T16:08:29Z</time>
   </trkpt>
   <trkpt lat="46.2253265380859" lon="6.98460531234741">
    <ele>578.254516601562</ele>
    <time>2012-03-15T16:08:31Z</time>
   </trkpt>
   <trkpt lat="46.2253303527832" lon="6.98456382751465">
    <ele>578.436340332031</ele>
    <time>2012-03-15T16:08:32Z</time>
   </trkpt>
   <trkpt lat="46.2253303527832" lon="6.9845232963562">
    <ele>578.6181640625</ele>
    <time>2012-03-15T16:08:33Z</time>
   </trkpt>
   <trkpt lat="46.2253341674805" lon="6.9844856262207">
    <ele>578.799987792969</ele>
    <time>2012-03-15T16:08:34Z</time>
   </trkpt>
   <trkpt lat="46.2253379821777" lon="6.98441171646118">
    <ele>578.799987792969</ele>
    <time>2012-03-15T16:08:36Z</time>
   </trkpt>
   <trkpt lat="46.2253570556641" lon="6.98416137695312">
    <ele>580.072692871094</ele>
    <time>2012-03-15T16:08:43Z</time>
   </trkpt>
   <trkpt lat="46.2253570556641" lon="6.9841251373291">
    <ele>580.254516601562</ele>
    <time>2012-03-15T16:08:44Z</time>
   </trkpt>
   <trkpt lat="46.2253608703613" lon="6.9840898513794">
    <ele>580.436340332031</ele>
    <time>2012-03-15T16:08:45Z</time>
   </trkpt>
   <trkpt lat="46.2253646850586" lon="6.9840579032898">
    <ele>580.6181640625</ele>
    <time>2012-03-15T16:08:46Z</time>
   </trkpt>
   <trkpt lat="46.2253684997559" lon="6.98402690887451">
    <ele>580.799987792969</ele>
    <time>2012-03-15T16:08:47Z</time>
   </trkpt>
   <trkpt lat="46.2253761291504" lon="6.98390102386475">
    <ele>580.799987792969</ele>
    <time>2012-03-15T16:08:51Z</time>
   </trkpt>
   <trkpt lat="46.2253913879394" lon="6.98380184173584">
    <ele>581.900024414062</ele>
    <time>2012-03-15T16:08:54Z</time>
   </trkpt>
   <trkpt lat="46.2253952026367" lon="6.98377561569214">
    <ele>582.266662597656</ele>
    <time>2012-03-15T16:08:55Z</time>
   </trkpt>
   <trkpt lat="46.225399017334" lon="6.98374319076538">
    <ele>582.63330078125</ele>
    <time>2012-03-15T16:08:56Z</time>
   </trkpt>
   <trkpt lat="46.225399017334" lon="6.98370885848999">
    <ele>583</ele>
    <time>2012-03-15T16:08:57Z</time>
   </trkpt>
   <trkpt lat="46.2254066467285" lon="6.98367738723755">
    <ele>583</ele>
    <time>2012-03-15T16:08:58Z</time>
   </trkpt>
   <trkpt lat="46.2254104614258" lon="6.98355197906494">
    <ele>583.988220214844</ele>
    <time>2012-03-15T16:09:02Z</time>
   </trkpt>
   <trkpt lat="46.2254180908203" lon="6.98351907730102">
    <ele>584.235290527344</ele>
    <time>2012-03-15T16:09:03Z</time>
   </trkpt>
   <trkpt lat="46.2254180908203" lon="6.98348569869995">
    <ele>584.482360839844</ele>
    <time>2012-03-15T16:09:04Z</time>
   </trkpt>
   <trkpt lat="46.2254219055176" lon="6.9834566116333">
    <ele>584.729431152344</ele>
    <time>2012-03-15T16:09:05Z</time>
   </trkpt>
   <trkpt lat="46.2254219055176" lon="6.98342561721802">
    <ele>584.976501464844</ele>
    <time>2012-03-15T16:09:06Z</time>
   </trkpt>
   <trkpt lat="46.2254180908203" lon="6.98327302932739">
    <ele>586.211791992188</ele>
    <time>2012-03-15T16:09:11Z</time>
   </trkpt>
   <trkpt lat="46.2254104614258" lon="6.98324155807495">
    <ele>586.458862304688</ele>
    <time>2012-03-15T16:09:12Z</time>
   </trkpt>
   <trkpt lat="46.2254066467285" lon="6.98320817947388">
    <ele>586.705871582031</ele>
    <time>2012-03-15T16:09:13Z</time>
   </trkpt>
   <trkpt lat="46.2254028320312" lon="6.98317575454712">
    <ele>586.952941894531</ele>
    <time>2012-03-15T16:09:14Z</time>
   </trkpt>
   <trkpt lat="46.225399017334" lon="6.98314809799194">
    <ele>587.200012207031</ele>
    <time>2012-03-15T16:09:15Z</time>
   </trkpt>
   <trkpt lat="46.225399017334" lon="6.98309469223022">
    <ele>587.200012207031</ele>
    <time>2012-03-15T16:09:17Z</time>
   </trkpt>
   <trkpt lat="46.2253952026367" lon="6.98304462432861">
    <ele>587.8857421875</ele>
    <time>2012-03-15T16:09:19Z</time>
   </trkpt>
   <trkpt lat="46.2253875732422" lon="6.982985496521">
    <ele>588.571411132812</ele>
    <time>2012-03-15T16:09:21Z</time>
   </trkpt>
   <trkpt lat="46.2253799438477" lon="6.9829568862915">
    <ele>588.914245605469</ele>
    <time>2012-03-15T16:09:22Z</time>
   </trkpt>
   <trkpt lat="46.2253761291504" lon="6.98292827606201">
    <ele>589.257141113281</ele>
    <time>2012-03-15T16:09:23Z</time>
   </trkpt>
   <trkpt lat="46.2253761291504" lon="6.98290205001831">
    <ele>589.599975585938</ele>
    <time>2012-03-15T16:09:24Z</time>
   </trkpt>
   <trkpt lat="46.2253684997559" lon="6.9828724861145">
    <ele>589.599975585938</ele>
    <time>2012-03-15T16:09:25Z</time>
   </trkpt>
   <trkpt lat="46.2253570556641" lon="6.98281669616699">
    <ele>590.17138671875</ele>
    <time>2012-03-15T16:09:27Z</time>
   </trkpt>
   <trkpt lat="46.2253456115723" lon="6.98278903961182">
    <ele>590.457092285156</ele>
    <time>2012-03-15T16:09:28Z</time>
   </trkpt>
   <trkpt lat="46.2253379821777" lon="6.98276138305664">
    <ele>590.742858886719</ele>
    <time>2012-03-15T16:09:29Z</time>
   </trkpt>
   <trkpt lat="46.2253227233887" lon="6.98273324966431">
    <ele>591.028564453125</ele>
    <time>2012-03-15T16:09:30Z</time>
   </trkpt>
   <trkpt lat="46.2253074645996" lon="6.98270988464356">
    <ele>591.314270019531</ele>
    <time>2012-03-15T16:09:31Z</time>
   </trkpt>
   <trkpt lat="46.2252922058106" lon="6.98268175125122">
    <ele>591.599975585938</ele>
    <time>2012-03-15T16:09:32Z</time>
   </trkpt>
   <trkpt lat="46.225269317627" lon="6.98262929916382">
    <ele>591.599975585938</ele>
    <time>2012-03-15T16:09:34Z</time>
   </trkpt>
   <trkpt lat="46.2252502441406" lon="6.9825325012207">
    <ele>592.599975585938</ele>
    <time>2012-03-15T16:09:38Z</time>
   </trkpt>
   <trkpt lat="46.2252502441406" lon="6.982506275177">
    <ele>592.849975585938</ele>
    <time>2012-03-15T16:09:39Z</time>
   </trkpt>
   <trkpt lat="46.2252426147461" lon="6.9824652671814">
    <ele>593.099975585938</ele>
    <time>2012-03-15T16:09:40Z</time>
   </trkpt>
   <trkpt lat="46.2252349853516" lon="6.98242282867432">
    <ele>593.349975585938</ele>
    <time>2012-03-15T16:09:41Z</time>
   </trkpt>
   <trkpt lat="46.2252235412598" lon="6.9823899269104">
    <ele>593.599975585938</ele>
    <time>2012-03-15T16:09:42Z</time>
   </trkpt>
   <trkpt lat="46.2251930236816" lon="6.98224067687988">
    <ele>593.599975585938</ele>
    <time>2012-03-15T16:09:46Z</time>
   </trkpt>
   <trkpt lat="46.2251892089844" lon="6.98204755783081">
    <ele>594.509094238281</ele>
    <time>2012-03-15T16:09:51Z</time>
   </trkpt>
   <trkpt lat="46.2251968383789" lon="6.98195934295654">
    <ele>594.872680664062</ele>
    <time>2012-03-15T16:09:53Z</time>
   </trkpt>
   <trkpt lat="46.2251930236816" lon="6.98191118240356">
    <ele>595.054504394531</ele>
    <time>2012-03-15T16:09:54Z</time>
   </trkpt>
   <trkpt lat="46.2251968383789" lon="6.98186826705933">
    <ele>595.236328125</ele>
    <time>2012-03-15T16:09:55Z</time>
   </trkpt>
   <trkpt lat="46.2252044677734" lon="6.98182535171509">
    <ele>595.418151855469</ele>
    <time>2012-03-15T16:09:56Z</time>
   </trkpt>
   <trkpt lat="46.2252082824707" lon="6.98178482055664">
    <ele>595.599975585938</ele>
    <time>2012-03-15T16:09:57Z</time>
   </trkpt>
   <trkpt lat="46.2252502441406" lon="6.98156070709228">
    <ele>595.599975585938</ele>
    <time>2012-03-15T16:10:03Z</time>
   </trkpt>
   <trkpt lat="46.225269317627" lon="6.98149824142456">
    <ele>596.228576660156</ele>
    <time>2012-03-15T16:10:05Z</time>
   </trkpt>
   <trkpt lat="46.2252769470215" lon="6.98147058486938">
    <ele>596.542846679688</ele>
    <time>2012-03-15T16:10:06Z</time>
   </trkpt>
   <trkpt lat="46.225284576416" lon="6.98144245147705">
    <ele>596.857116699219</ele>
    <time>2012-03-15T16:10:07Z</time>
   </trkpt>
   <trkpt lat="46.2252922058106" lon="6.98141860961914">
    <ele>597.17138671875</ele>
    <time>2012-03-15T16:10:08Z</time>
   </trkpt>
   <trkpt lat="46.2252998352051" lon="6.98139667510986">
    <ele>597.485717773438</ele>
    <time>2012-03-15T16:10:09Z</time>
   </trkpt>
   <trkpt lat="46.2253532409668" lon="6.98130941390991">
    <ele>598.742858886719</ele>
    <time>2012-03-15T16:10:13Z</time>
   </trkpt>
   <trkpt lat="46.2253646850586" lon="6.981285572052">
    <ele>599.05712890625</ele>
    <time>2012-03-15T16:10:14Z</time>
   </trkpt>
   <trkpt lat="46.2253723144531" lon="6.9812593460083">
    <ele>599.371398925781</ele>
    <time>2012-03-15T16:10:15Z</time>
   </trkpt>
   <trkpt lat="46.2253875732422" lon="6.9812331199646">
    <ele>599.685729980469</ele>
    <time>2012-03-15T16:10:16Z</time>
   </trkpt>
   <trkpt lat="46.2254028320312" lon="6.98121166229248">
    <ele>600</ele>
    <time>2012-03-15T16:10:17Z</time>
   </trkpt>
   <trkpt lat="46.2254333496094" lon="6.98117065429688">
    <ele>600</ele>
    <time>2012-03-15T16:10:19Z</time>
   </trkpt>
   <trkpt lat="46.2255058288574" lon="6.98105192184448">
    <ele>601.333374023438</ele>
    <time>2012-03-15T16:10:24Z</time>
   </trkpt>
   <trkpt lat="46.2255172729492" lon="6.9810299873352">
    <ele>601.600036621094</ele>
    <time>2012-03-15T16:10:25Z</time>
   </trkpt>
   <trkpt lat="46.2255325317383" lon="6.98100852966309">
    <ele>601.86669921875</ele>
    <time>2012-03-15T16:10:26Z</time>
   </trkpt>
   <trkpt lat="46.2255477905273" lon="6.98098134994507">
    <ele>602.133361816406</ele>
    <time>2012-03-15T16:10:27Z</time>
   </trkpt>
   <trkpt lat="46.2255592346191" lon="6.98096084594726">
    <ele>602.400024414062</ele>
    <time>2012-03-15T16:10:28Z</time>
   </trkpt>
   <trkpt lat="46.2256240844727" lon="6.98086452484131">
    <ele>602.400024414062</ele>
    <time>2012-03-15T16:10:32Z</time>
   </trkpt>
   <trkpt lat="46.2256546020508" lon="6.9808144569397">
    <ele>603.359985351562</ele>
    <time>2012-03-15T16:10:34Z</time>
   </trkpt>
   <trkpt lat="46.2256698608398" lon="6.98079633712768">
    <ele>603.840026855469</ele>
    <time>2012-03-15T16:10:35Z</time>
   </trkpt>
   <trkpt lat="46.2256851196289" lon="6.98077774047852">
    <ele>604.320007324219</ele>
    <time>2012-03-15T16:10:36Z</time>
   </trkpt>
   <trkpt lat="46.2257041931152" lon="6.98075819015503">
    <ele>604.799987792969</ele>
    <time>2012-03-15T16:10:37Z</time>
   </trkpt>
   <trkpt lat="46.2257423400879" lon="6.98070478439331">
    <ele>604.799987792969</ele>
    <time>2012-03-15T16:10:39Z</time>
   </trkpt>
   <trkpt lat="46.2257881164551" lon="6.98062562942505">
    <ele>605.625</ele>
    <time>2012-03-15T16:10:42Z</time>
   </trkpt>
   <trkpt lat="46.2258033752441" lon="6.98060417175293">
    <ele>605.900024414062</ele>
    <time>2012-03-15T16:10:43Z</time>
   </trkpt>
   <trkpt lat="46.2258148193359" lon="6.98058700561524">
    <ele>606.174987792969</ele>
    <time>2012-03-15T16:10:44Z</time>
   </trkpt>
   <trkpt lat="46.225830078125" lon="6.98056745529175">
    <ele>606.450012207031</ele>
    <time>2012-03-15T16:10:45Z</time>
   </trkpt>
   <trkpt lat="46.2258453369141" lon="6.98054790496826">
    <ele>606.724975585938</ele>
    <time>2012-03-15T16:10:46Z</time>
   </trkpt>
   <trkpt lat="46.2258644104004" lon="6.98052597045898">
    <ele>607</ele>
    <time>2012-03-15T16:10:47Z</time>
   </trkpt>
   <trkpt lat="46.2259407043457" lon="6.98044490814209">
    <ele>608.099975585938</ele>
    <time>2012-03-15T16:10:51Z</time>
   </trkpt>
   <trkpt lat="46.2259559631348" lon="6.98042488098144">
    <ele>608.375</ele>
    <time>2012-03-15T16:10:52Z</time>
   </trkpt>
   <trkpt lat="46.2259674072266" lon="6.98039674758911">
    <ele>608.650024414062</ele>
    <time>2012-03-15T16:10:53Z</time>
   </trkpt>
   <trkpt lat="46.2259788513184" lon="6.9803729057312">
    <ele>608.924987792969</ele>
    <time>2012-03-15T16:10:54Z</time>
   </trkpt>
   <trkpt lat="46.2259902954102" lon="6.98034429550171">
    <ele>609.200012207031</ele>
    <time>2012-03-15T16:10:55Z</time>
   </trkpt>
   <trkpt lat="46.226001739502" lon="6.98025226593018">
    <ele>609.200012207031</ele>
    <time>2012-03-15T16:10:58Z</time>
   </trkpt>
   <trkpt lat="46.2259788513184" lon="6.98016738891602">
    <ele>610.200012207031</ele>
    <time>2012-03-15T16:11:01Z</time>
   </trkpt>
   <trkpt lat="46.225959777832" lon="6.98014974594116">
    <ele>610.533325195312</ele>
    <time>2012-03-15T16:11:02Z</time>
   </trkpt>
   <trkpt lat="46.2259368896484" lon="6.98014163970947">
    <ele>610.86669921875</ele>
    <time>2012-03-15T16:11:03Z</time>
   </trkpt>
   <trkpt lat="46.2259101867676" lon="6.98014116287232">
    <ele>611.200012207031</ele>
    <time>2012-03-15T16:11:04Z</time>
   </trkpt>
   <trkpt lat="46.2258262634277" lon="6.98019218444824">
    <ele>611.200012207031</ele>
    <time>2012-03-15T16:11:08Z</time>
   </trkpt>
   <trkpt lat="46.2257919311523" lon="6.98026371002197">
    <ele>612.05712890625</ele>
    <time>2012-03-15T16:11:11Z</time>
   </trkpt>
   <trkpt lat="46.2257766723633" lon="6.98029565811157">
    <ele>612.342895507812</ele>
    <time>2012-03-15T16:11:12Z</time>
   </trkpt>
   <trkpt lat="46.2257652282715" lon="6.98031759262085">
    <ele>612.628601074219</ele>
    <time>2012-03-15T16:11:13Z</time>
   </trkpt>
   <trkpt lat="46.2257461547852" lon="6.98033571243286">
    <ele>612.914306640625</ele>
    <time>2012-03-15T16:11:14Z</time>
   </trkpt>
   <trkpt lat="46.2257270812988" lon="6.98035669326782">
    <ele>613.200012207031</ele>
    <time>2012-03-15T16:11:15Z</time>
   </trkpt>
   <trkpt lat="46.225643157959" lon="6.98043727874756">
    <ele>613.200012207031</ele>
    <time>2012-03-15T16:11:20Z</time>
   </trkpt>
   <trkpt lat="46.2256050109863" lon="6.98047208786011">
    <ele>614.080017089844</ele>
    <time>2012-03-15T16:11:22Z</time>
   </trkpt>
   <trkpt lat="46.2255859375" lon="6.98048877716064">
    <ele>614.52001953125</ele>
    <time>2012-03-15T16:11:23Z</time>
   </trkpt>
   <trkpt lat="46.2255630493164" lon="6.98050355911255">
    <ele>614.960021972656</ele>
    <time>2012-03-15T16:11:24Z</time>
   </trkpt>
   <trkpt lat="46.2255439758301" lon="6.98052024841309">
    <ele>615.400024414062</ele>
    <time>2012-03-15T16:11:25Z</time>
   </trkpt>
   <trkpt lat="46.2255058288574" lon="6.98055267333984">
    <ele>615.400024414062</ele>
    <time>2012-03-15T16:11:27Z</time>
   </trkpt>
   <trkpt lat="46.2254104614258" lon="6.98063898086548">
    <ele>616.622192382812</ele>
    <time>2012-03-15T16:11:32Z</time>
   </trkpt>
   <trkpt lat="46.2253952026367" lon="6.98065710067749">
    <ele>616.866638183594</ele>
    <time>2012-03-15T16:11:33Z</time>
   </trkpt>
   <trkpt lat="46.2253761291504" lon="6.98067092895508">
    <ele>617.111083984375</ele>
    <time>2012-03-15T16:11:34Z</time>
   </trkpt>
   <trkpt lat="46.2253608703613" lon="6.98068618774414">
    <ele>617.355529785156</ele>
    <time>2012-03-15T16:11:35Z</time>
   </trkpt>
   <trkpt lat="46.2253456115723" lon="6.9807014465332">
    <ele>617.599975585938</ele>
    <time>2012-03-15T16:11:36Z</time>
   </trkpt>
   <trkpt lat="46.2252655029297" lon="6.98076438903809">
    <ele>617.599975585938</ele>
    <time>2012-03-15T16:11:40Z</time>
   </trkpt>
   <trkpt lat="46.2252502441406" lon="6.98078012466431">
    <ele>618</ele>
    <time>2012-03-15T16:11:41Z</time>
   </trkpt>
   <trkpt lat="46.225227355957" lon="6.98079442977905">
    <ele>618.399963378906</ele>
    <time>2012-03-15T16:11:42Z</time>
   </trkpt>
   <trkpt lat="46.225212097168" lon="6.98081254959106">
    <ele>618.799987792969</ele>
    <time>2012-03-15T16:11:43Z</time>
   </trkpt>
   <trkpt lat="46.2251930236816" lon="6.98082876205444">
    <ele>619.199951171875</ele>
    <time>2012-03-15T16:11:44Z</time>
   </trkpt>
   <trkpt lat="46.2251739501953" lon="6.98084592819214">
    <ele>619.599975585938</ele>
    <time>2012-03-15T16:11:45Z</time>
   </trkpt>
   <trkpt lat="46.2251510620117" lon="6.98085927963257">
    <ele>619.599975585938</ele>
    <time>2012-03-15T16:11:46Z</time>
   </trkpt>
   <trkpt lat="46.2250823974609" lon="6.98090410232544">
    <ele>620.343994140625</ele>
    <time>2012-03-15T16:11:49Z</time>
   </trkpt>
   <trkpt lat="46.2250671386719" lon="6.98092031478882">
    <ele>620.591979980469</ele>
    <time>2012-03-15T16:11:50Z</time>
   </trkpt>
   <trkpt lat="46.2250442504883" lon="6.98092746734619">
    <ele>620.839965820312</ele>
    <time>2012-03-15T16:11:51Z</time>
   </trkpt>
   <trkpt lat="46.225025177002" lon="6.9809365272522">
    <ele>621.087951660156</ele>
    <time>2012-03-15T16:11:52Z</time>
   </trkpt>
   <trkpt lat="46.2250022888184" lon="6.98095035552978">
    <ele>621.335998535156</ele>
    <time>2012-03-15T16:11:53Z</time>
   </trkpt>
   <trkpt lat="46.2249145507812" lon="6.98103761672974">
    <ele>622.575988769531</ele>
    <time>2012-03-15T16:11:58Z</time>
   </trkpt>
   <trkpt lat="46.2248992919922" lon="6.98105764389038">
    <ele>622.823974609375</ele>
    <time>2012-03-15T16:11:59Z</time>
   </trkpt>
   <trkpt lat="46.2248840332031" lon="6.98107576370239">
    <ele>623.071960449219</ele>
    <time>2012-03-15T16:12:00Z</time>
   </trkpt>
   <trkpt lat="46.2248687744141" lon="6.98109292984009">
    <ele>623.320007324219</ele>
    <time>2012-03-15T16:12:01Z</time>
   </trkpt>
   <trkpt lat="46.2248573303223" lon="6.98111057281494">
    <ele>623.567993164062</ele>
    <time>2012-03-15T16:12:02Z</time>
   </trkpt>
   <trkpt lat="46.2247734069824" lon="6.981201171875">
    <ele>624.807983398438</ele>
    <time>2012-03-15T16:12:07Z</time>
   </trkpt>
   <trkpt lat="46.2247543334961" lon="6.98122024536133">
    <ele>625.055969238281</ele>
    <time>2012-03-15T16:12:08Z</time>
   </trkpt>
   <trkpt lat="46.2247352600098" lon="6.98123741149902">
    <ele>625.304016113281</ele>
    <time>2012-03-15T16:12:09Z</time>
   </trkpt>
   <trkpt lat="46.2247161865234" lon="6.98126697540283">
    <ele>625.552001953125</ele>
    <time>2012-03-15T16:12:10Z</time>
   </trkpt>
   <trkpt lat="46.2246971130371" lon="6.98129415512085">
    <ele>625.799987792969</ele>
    <time>2012-03-15T16:12:11Z</time>
   </trkpt>
   <trkpt lat="46.2246398925781" lon="6.98136186599732">
    <ele>625.799987792969</ele>
    <time>2012-03-15T16:12:14Z</time>
   </trkpt>
   <trkpt lat="46.224536895752" lon="6.98154354095459">
    <ele>626.760009765625</ele>
    <time>2012-03-15T16:12:20Z</time>
   </trkpt>
   <trkpt lat="46.2244682312012" lon="6.98170185089111">
    <ele>627.559997558594</ele>
    <time>2012-03-15T16:12:25Z</time>
   </trkpt>
   <trkpt lat="46.2244529724121" lon="6.98173332214356">
    <ele>627.720031738281</ele>
    <time>2012-03-15T16:12:26Z</time>
   </trkpt>
   <trkpt lat="46.224437713623" lon="6.98176670074463">
    <ele>627.880004882812</ele>
    <time>2012-03-15T16:12:27Z</time>
   </trkpt>
   <trkpt lat="46.224422454834" lon="6.98180198669434">
    <ele>628.0400390625</ele>
    <time>2012-03-15T16:12:28Z</time>
   </trkpt>
   <trkpt lat="46.2244033813477" lon="6.98183870315552">
    <ele>628.200012207031</ele>
    <time>2012-03-15T16:12:29Z</time>
   </trkpt>
   <trkpt lat="46.2243461608887" lon="6.98204755783081">
    <ele>628.200012207031</ele>
    <time>2012-03-15T16:12:34Z</time>
   </trkpt>
   <trkpt lat="46.2243003845215" lon="6.98221921920776">
    <ele>628.475891113281</ele>
    <time>2012-03-15T16:12:38Z</time>
   </trkpt>
   <trkpt lat="46.2241706848144" lon="6.98248386383057">
    <ele>628.8896484375</ele>
    <time>2012-03-15T16:12:44Z</time>
   </trkpt>
   <trkpt lat="46.2240219116211" lon="6.98266267776489">
    <ele>629.234497070312</ele>
    <time>2012-03-15T16:12:49Z</time>
   </trkpt>
   <trkpt lat="46.2237701416016" lon="6.98289680480957">
    <ele>629.786193847656</ele>
    <time>2012-03-15T16:12:57Z</time>
   </trkpt>
   <trkpt lat="46.2236862182617" lon="6.98297834396362">
    <ele>629.993103027344</ele>
    <time>2012-03-15T16:13:00Z</time>
   </trkpt>
   <trkpt lat="46.2236557006836" lon="6.98300123214722">
    <ele>630.062072753906</ele>
    <time>2012-03-15T16:13:01Z</time>
   </trkpt>
   <trkpt lat="46.2236213684082" lon="6.98302030563354">
    <ele>630.131042480469</ele>
    <time>2012-03-15T16:13:02Z</time>
   </trkpt>
   <trkpt lat="46.2235908508301" lon="6.98304128646851">
    <ele>630.200012207031</ele>
    <time>2012-03-15T16:13:03Z</time>
   </trkpt>
   <trkpt lat="46.2234230041504" lon="6.98315525054932">
    <ele>630.200012207031</ele>
    <time>2012-03-15T16:13:09Z</time>
   </trkpt>
   <trkpt lat="46.2233734130859" lon="6.98319816589356">
    <ele>630.933349609375</ele>
    <time>2012-03-15T16:13:11Z</time>
   </trkpt>
   <trkpt lat="46.2233467102051" lon="6.98321533203125">
    <ele>631.300048828125</ele>
    <time>2012-03-15T16:13:12Z</time>
   </trkpt>
   <trkpt lat="46.2233200073242" lon="6.98323154449463">
    <ele>631.666687011719</ele>
    <time>2012-03-15T16:13:13Z</time>
   </trkpt>
   <trkpt lat="46.2232933044434" lon="6.98325109481812">
    <ele>632.033325195312</ele>
    <time>2012-03-15T16:13:14Z</time>
   </trkpt>
   <trkpt lat="46.2232627868652" lon="6.98326921463013">
    <ele>632.400024414062</ele>
    <time>2012-03-15T16:13:15Z</time>
   </trkpt>
   <trkpt lat="46.2231636047363" lon="6.98333168029785">
    <ele>632.400024414062</ele>
    <time>2012-03-15T16:13:19Z</time>
   </trkpt>
   <trkpt lat="46.2230415344238" lon="6.98340749740601">
    <ele>633.511108398438</ele>
    <time>2012-03-15T16:13:24Z</time>
   </trkpt>
   <trkpt lat="46.2230186462402" lon="6.98342609405518">
    <ele>633.733337402344</ele>
    <time>2012-03-15T16:13:25Z</time>
   </trkpt>
   <trkpt lat="46.2229881286621" lon="6.98344612121582">
    <ele>633.95556640625</ele>
    <time>2012-03-15T16:13:26Z</time>
   </trkpt>
   <trkpt lat="46.222957611084" lon="6.98346662521362">
    <ele>634.177795410156</ele>
    <time>2012-03-15T16:13:27Z</time>
   </trkpt>
   <trkpt lat="46.2229309082031" lon="6.983482837677">
    <ele>634.400024414062</ele>
    <time>2012-03-15T16:13:28Z</time>
   </trkpt>
   <trkpt lat="46.2227630615234" lon="6.98358869552612">
    <ele>634.400024414062</ele>
    <time>2012-03-15T16:13:34Z</time>
   </trkpt>
   <trkpt lat="46.2226295471191" lon="6.98372411727905">
    <ele>635.622192382812</ele>
    <time>2012-03-15T16:13:39Z</time>
   </trkpt>
   <trkpt lat="46.2226104736328" lon="6.98375749588013">
    <ele>635.866638183594</ele>
    <time>2012-03-15T16:13:40Z</time>
   </trkpt>
   <trkpt lat="46.2225875854492" lon="6.98379755020142">
    <ele>636.111083984375</ele>
    <time>2012-03-15T16:13:41Z</time>
   </trkpt>
   <trkpt lat="46.2225685119629" lon="6.98383617401123">
    <ele>636.355529785156</ele>
    <time>2012-03-15T16:13:42Z</time>
   </trkpt>
   <trkpt lat="46.2225532531738" lon="6.98387479782104">
    <ele>636.599975585938</ele>
    <time>2012-03-15T16:13:43Z</time>
   </trkpt>
   <trkpt lat="46.2224617004394" lon="6.98409271240234">
    <ele>636.599975585938</ele>
    <time>2012-03-15T16:13:48Z</time>
   </trkpt>
   <trkpt lat="46.2223892211914" lon="6.98439168930054">
    <ele>637.028564453125</ele>
    <time>2012-03-15T16:13:54Z</time>
   </trkpt>
   <trkpt lat="46.2223663330078" lon="6.98466300964356">
    <ele>637.385681152344</ele>
    <time>2012-03-15T16:13:59Z</time>
   </trkpt>
   <trkpt lat="46.2223663330078" lon="6.98472023010254">
    <ele>637.457092285156</ele>
    <time>2012-03-15T16:14:00Z</time>
   </trkpt>
   <trkpt lat="46.2223701477051" lon="6.98478078842163">
    <ele>637.528564453125</ele>
    <time>2012-03-15T16:14:01Z</time>
   </trkpt>
   <trkpt lat="46.2223815917969" lon="6.98495531082153">
    <ele>637.742858886719</ele>
    <time>2012-03-15T16:14:04Z</time>
   </trkpt>
   <trkpt lat="46.2223968505859" lon="6.98501682281494">
    <ele>637.814270019531</ele>
    <time>2012-03-15T16:14:05Z</time>
   </trkpt>
   <trkpt lat="46.2224464416504" lon="6.98538589477539">
    <ele>638.242858886719</ele>
    <time>2012-03-15T16:14:11Z</time>
   </trkpt>
   <trkpt lat="46.2224502563477" lon="6.98545789718628">
    <ele>638.314270019531</ele>
    <time>2012-03-15T16:14:12Z</time>
   </trkpt>
   <trkpt lat="46.2224502563477" lon="6.98552179336548">
    <ele>638.385681152344</ele>
    <time>2012-03-15T16:14:13Z</time>
   </trkpt>
   <trkpt lat="46.2224464416504" lon="6.98558568954468">
    <ele>638.457092285156</ele>
    <time>2012-03-15T16:14:14Z</time>
   </trkpt>
   <trkpt lat="46.2224311828613" lon="6.98564434051514">
    <ele>638.528564453125</ele>
    <time>2012-03-15T16:14:15Z</time>
   </trkpt>
   <trkpt lat="46.222412109375" lon="6.9857029914856">
    <ele>638.599975585938</ele>
    <time>2012-03-15T16:14:16Z</time>
   </trkpt>
   <trkpt lat="46.2223854064941" lon="6.985755443573">
    <ele>638.599975585938</ele>
    <time>2012-03-15T16:14:17Z</time>
   </trkpt>
   <trkpt lat="46.2222671508789" lon="6.98586368560791">
    <ele>638.875</ele>
    <time>2012-03-15T16:14:20Z</time>
   </trkpt>
   <trkpt lat="46.2219619750977" lon="6.98614883422852">
    <ele>639.608337402344</ele>
    <time>2012-03-15T16:14:28Z</time>
   </trkpt>
   <trkpt lat="46.2217102050781" lon="6.9863691329956">
    <ele>640.25</ele>
    <time>2012-03-15T16:14:35Z</time>
   </trkpt>
   <trkpt lat="46.2216033935547" lon="6.9864706993103">
    <ele>640.524963378906</ele>
    <time>2012-03-15T16:14:38Z</time>
   </trkpt>
   <trkpt lat="46.221565246582" lon="6.98650360107422">
    <ele>640.616638183594</ele>
    <time>2012-03-15T16:14:39Z</time>
   </trkpt>
   <trkpt lat="46.2215232849121" lon="6.98653507232666">
    <ele>640.708312988281</ele>
    <time>2012-03-15T16:14:40Z</time>
   </trkpt>
   <trkpt lat="46.2214851379394" lon="6.98656558990478">
    <ele>640.799987792969</ele>
    <time>2012-03-15T16:14:41Z</time>
   </trkpt>
   <trkpt lat="46.2214050292969" lon="6.98662328720093">
    <ele>640.799987792969</ele>
    <time>2012-03-15T16:14:43Z</time>
   </trkpt>
   <trkpt lat="46.2210998535156" lon="6.98684167861938">
    <ele>641.679992675781</ele>
    <time>2012-03-15T16:14:51Z</time>
   </trkpt>
   <trkpt lat="46.2208366394043" lon="6.98698711395264">
    <ele>642.450012207031</ele>
    <time>2012-03-15T16:14:58Z</time>
   </trkpt>
   <trkpt lat="46.2208023071289" lon="6.98700428009033">
    <ele>642.559997558594</ele>
    <time>2012-03-15T16:14:59Z</time>
   </trkpt>
   <trkpt lat="46.2207679748535" lon="6.9870195388794">
    <ele>642.669982910156</ele>
    <time>2012-03-15T16:15:00Z</time>
   </trkpt>
   <trkpt lat="46.2207336425781" lon="6.98703479766846">
    <ele>642.780029296875</ele>
    <time>2012-03-15T16:15:01Z</time>
   </trkpt>
   <trkpt lat="46.2206954956055" lon="6.98704624176025">
    <ele>642.890014648438</ele>
    <time>2012-03-15T16:15:02Z</time>
   </trkpt>
   <trkpt lat="46.2206573486328" lon="6.98705673217774">
    <ele>643</ele>
    <time>2012-03-15T16:15:03Z</time>
   </trkpt>
   <trkpt lat="46.2205238342285" lon="6.98708581924438">
    <ele>643</ele>
    <time>2012-03-15T16:15:07Z</time>
   </trkpt>
   <trkpt lat="46.220344543457" lon="6.98714828491211">
    <ele>644.111083984375</ele>
    <time>2012-03-15T16:15:12Z</time>
   </trkpt>
   <trkpt lat="46.2203140258789" lon="6.98715686798096">
    <ele>644.333312988281</ele>
    <time>2012-03-15T16:15:13Z</time>
   </trkpt>
   <trkpt lat="46.2202796936035" lon="6.98716831207275">
    <ele>644.555541992188</ele>
    <time>2012-03-15T16:15:14Z</time>
   </trkpt>
   <trkpt lat="46.2202453613281" lon="6.98717975616455">
    <ele>644.777770996094</ele>
    <time>2012-03-15T16:15:15Z</time>
   </trkpt>
   <trkpt lat="46.22021484375" lon="6.98718976974487">
    <ele>645</ele>
    <time>2012-03-15T16:15:16Z</time>
   </trkpt>
   <trkpt lat="46.2200088500977" lon="6.98725843429565">
    <ele>645</ele>
    <time>2012-03-15T16:15:22Z</time>
   </trkpt>
   <trkpt lat="46.2197570800781" lon="6.9873948097229">
    <ele>646.283325195312</ele>
    <time>2012-03-15T16:15:29Z</time>
   </trkpt>
   <trkpt lat="46.2197189331055" lon="6.98741388320923">
    <ele>646.466674804688</ele>
    <time>2012-03-15T16:15:30Z</time>
   </trkpt>
   <trkpt lat="46.2196846008301" lon="6.98743391036987">
    <ele>646.650024414062</ele>
    <time>2012-03-15T16:15:31Z</time>
   </trkpt>
   <trkpt lat="46.2196502685547" lon="6.98746204376221">
    <ele>646.833374023438</ele>
    <time>2012-03-15T16:15:32Z</time>
   </trkpt>
   <trkpt lat="46.2196159362793" lon="6.9874849319458">
    <ele>647.016662597656</ele>
    <time>2012-03-15T16:15:33Z</time>
   </trkpt>
   <trkpt lat="46.2195777893066" lon="6.98751068115234">
    <ele>647.200012207031</ele>
    <time>2012-03-15T16:15:34Z</time>
   </trkpt>
   <trkpt lat="46.2195434570312" lon="6.98753690719604">
    <ele>647.200012207031</ele>
    <time>2012-03-15T16:15:35Z</time>
   </trkpt>
   <trkpt lat="46.2192459106445" lon="6.98780536651611">
    <ele>648.584655761719</ele>
    <time>2012-03-15T16:15:44Z</time>
   </trkpt>
   <trkpt lat="46.2192115783691" lon="6.98783874511719">
    <ele>648.738464355469</ele>
    <time>2012-03-15T16:15:45Z</time>
   </trkpt>
   <trkpt lat="46.2191848754883" lon="6.98786878585815">
    <ele>648.892333984375</ele>
    <time>2012-03-15T16:15:46Z</time>
   </trkpt>
   <trkpt lat="46.2191543579102" lon="6.98789834976196">
    <ele>649.046142578125</ele>
    <time>2012-03-15T16:15:47Z</time>
   </trkpt>
   <trkpt lat="46.219123840332" lon="6.98792505264282">
    <ele>649.200012207031</ele>
    <time>2012-03-15T16:15:48Z</time>
   </trkpt>
   <trkpt lat="46.2190628051758" lon="6.98798704147339">
    <ele>649.200012207031</ele>
    <time>2012-03-15T16:15:51Z</time>
   </trkpt>
   <trkpt lat="46.2188377380371" lon="6.98817348480225">
    <ele>650.472717285156</ele>
    <time>2012-03-15T16:15:58Z</time>
   </trkpt>
   <trkpt lat="46.2188034057617" lon="6.98820066452026">
    <ele>650.654541015625</ele>
    <time>2012-03-15T16:15:59Z</time>
   </trkpt>
   <trkpt lat="46.2187728881836" lon="6.98822689056396">
    <ele>650.836364746094</ele>
    <time>2012-03-15T16:16:00Z</time>
   </trkpt>
   <trkpt lat="46.2187423706055" lon="6.98825120925903">
    <ele>651.018188476562</ele>
    <time>2012-03-15T16:16:01Z</time>
   </trkpt>
   <trkpt lat="46.2187080383301" lon="6.98827695846558">
    <ele>651.200012207031</ele>
    <time>2012-03-15T16:16:02Z</time>
   </trkpt>
   <trkpt lat="46.2185325622559" lon="6.98840570449829">
    <ele>651.200012207031</ele>
    <time>2012-03-15T16:16:07Z</time>
   </trkpt>
   <trkpt lat="46.2184638977051" lon="6.9884524345398">
    <ele>651.400024414062</ele>
    <time>2012-03-15T16:16:09Z</time>
   </trkpt>
   <trkpt lat="46.2182350158691" lon="6.98855209350586">
    <ele>652</ele>
    <time>2012-03-15T16:16:15Z</time>
   </trkpt>
   <trkpt lat="46.2179145812988" lon="6.98868417739868">
    <ele>652.799987792969</ele>
    <time>2012-03-15T16:16:23Z</time>
   </trkpt>
   <trkpt lat="46.2178764343262" lon="6.98870038986206">
    <ele>652.900024414062</ele>
    <time>2012-03-15T16:16:24Z</time>
   </trkpt>
   <trkpt lat="46.2178382873535" lon="6.98871517181396">
    <ele>653</ele>
    <time>2012-03-15T16:16:25Z</time>
   </trkpt>
   <trkpt lat="46.2178001403809" lon="6.98872709274292">
    <ele>653.100036621094</ele>
    <time>2012-03-15T16:16:26Z</time>
   </trkpt>
   <trkpt lat="46.2177658081055" lon="6.98874139785767">
    <ele>653.200012207031</ele>
    <time>2012-03-15T16:16:27Z</time>
   </trkpt>
   <trkpt lat="46.2176513671875" lon="6.98879861831665">
    <ele>653.200012207031</ele>
    <time>2012-03-15T16:16:30Z</time>
   </trkpt>
   <trkpt lat="46.2173843383789" lon="6.98890209197998">
    <ele>654.744812011719</ele>
    <time>2012-03-15T16:16:37Z</time>
   </trkpt>
   <trkpt lat="46.2171936035156" lon="6.98895502090454">
    <ele>655.848266601562</ele>
    <time>2012-03-15T16:16:42Z</time>
   </trkpt>
   <trkpt lat="46.217155456543" lon="6.98896646499634">
    <ele>656.068969726562</ele>
    <time>2012-03-15T16:16:43Z</time>
   </trkpt>
   <trkpt lat="46.2171211242676" lon="6.9889726638794">
    <ele>656.289672851562</ele>
    <time>2012-03-15T16:16:44Z</time>
   </trkpt>
   <trkpt lat="46.2170867919922" lon="6.98897838592529">
    <ele>656.510314941406</ele>
    <time>2012-03-15T16:16:45Z</time>
   </trkpt>
   <trkpt lat="46.2169952392578" lon="6.98899602890015">
    <ele>657.172424316406</ele>
    <time>2012-03-15T16:16:48Z</time>
   </trkpt>
   <trkpt lat="46.2169647216797" lon="6.98900175094604">
    <ele>657.39306640625</ele>
    <time>2012-03-15T16:16:49Z</time>
   </trkpt>
   <trkpt lat="46.2169342041016" lon="6.98900842666626">
    <ele>657.61376953125</ele>
    <time>2012-03-15T16:16:50Z</time>
   </trkpt>
   <trkpt lat="46.2169036865234" lon="6.98901653289795">
    <ele>657.83447265625</ele>
    <time>2012-03-15T16:16:51Z</time>
   </trkpt>
   <trkpt lat="46.2168731689453" lon="6.9890193939209">
    <ele>658.05517578125</ele>
    <time>2012-03-15T16:16:52Z</time>
   </trkpt>
   <trkpt lat="46.2167854309082" lon="6.98902750015259">
    <ele>658.717224121094</ele>
    <time>2012-03-15T16:16:55Z</time>
   </trkpt>
   <trkpt lat="46.2167549133301" lon="6.98902368545532">
    <ele>658.937927246094</ele>
    <time>2012-03-15T16:16:56Z</time>
   </trkpt>
   <trkpt lat="46.2167205810547" lon="6.98903179168701">
    <ele>659.158569335938</ele>
    <time>2012-03-15T16:16:57Z</time>
   </trkpt>
   <trkpt lat="46.2166938781738" lon="6.98903751373291">
    <ele>659.379272460938</ele>
    <time>2012-03-15T16:16:58Z</time>
   </trkpt>
   <trkpt lat="46.216667175293" lon="6.98904085159302">
    <ele>659.599975585938</ele>
    <time>2012-03-15T16:16:59Z</time>
   </trkpt>
   <trkpt lat="46.216609954834" lon="6.98904943466186">
    <ele>659.599975585938</ele>
    <time>2012-03-15T16:17:01Z</time>
   </trkpt>
   <trkpt lat="46.2164115905762" lon="6.98906946182251">
    <ele>660.933288574219</ele>
    <time>2012-03-15T16:17:07Z</time>
   </trkpt>
   <trkpt lat="46.216381072998" lon="6.98907518386841">
    <ele>661.155517578125</ele>
    <time>2012-03-15T16:17:08Z</time>
   </trkpt>
   <trkpt lat="46.2163581848144" lon="6.98907995223999">
    <ele>661.377746582031</ele>
    <time>2012-03-15T16:17:09Z</time>
   </trkpt>
   <trkpt lat="46.2163314819336" lon="6.98909187316894">
    <ele>661.599975585938</ele>
    <time>2012-03-15T16:17:10Z</time>
   </trkpt>
   <trkpt lat="46.2162437438965" lon="6.98910617828369">
    <ele>661.599975585938</ele>
    <time>2012-03-15T16:17:13Z</time>
   </trkpt>
   <trkpt lat="46.2161521911621" lon="6.98911619186401">
    <ele>662.440002441406</ele>
    <time>2012-03-15T16:17:16Z</time>
   </trkpt>
   <trkpt lat="46.2161254882812" lon="6.98912286758423">
    <ele>662.719970703125</ele>
    <time>2012-03-15T16:17:17Z</time>
   </trkpt>
   <trkpt lat="46.2160987854004" lon="6.98912858963013">
    <ele>663</ele>
    <time>2012-03-15T16:17:18Z</time>
   </trkpt>
   <trkpt lat="46.2160682678223" lon="6.98913478851318">
    <ele>663.279968261719</ele>
    <time>2012-03-15T16:17:19Z</time>
   </trkpt>
   <trkpt lat="46.2160415649414" lon="6.98914003372192">
    <ele>663.559997558594</ele>
    <time>2012-03-15T16:17:20Z</time>
   </trkpt>
   <trkpt lat="46.2159271240234" lon="6.98914527893066">
    <ele>664.679992675781</ele>
    <time>2012-03-15T16:17:24Z</time>
   </trkpt>
   <trkpt lat="46.2159004211426" lon="6.98915243148804">
    <ele>664.9599609375</ele>
    <time>2012-03-15T16:17:25Z</time>
   </trkpt>
   <trkpt lat="46.2158699035644" lon="6.98915815353394">
    <ele>665.239990234375</ele>
    <time>2012-03-15T16:17:26Z</time>
   </trkpt>
   <trkpt lat="46.2158432006836" lon="6.98916387557983">
    <ele>665.519958496094</ele>
    <time>2012-03-15T16:17:27Z</time>
   </trkpt>
   <trkpt lat="46.2158088684082" lon="6.98916959762573">
    <ele>665.799987792969</ele>
    <time>2012-03-15T16:17:28Z</time>
   </trkpt>
   <trkpt lat="46.2157287597656" lon="6.98917722702026">
    <ele>665.799987792969</ele>
    <time>2012-03-15T16:17:31Z</time>
   </trkpt>
   <trkpt lat="46.2156181335449" lon="6.98920106887817">
    <ele>666.94287109375</ele>
    <time>2012-03-15T16:17:35Z</time>
   </trkpt>
   <trkpt lat="46.2155838012695" lon="6.98920392990112">
    <ele>667.228576660156</ele>
    <time>2012-03-15T16:17:36Z</time>
   </trkpt>
   <trkpt lat="46.2155532836914" lon="6.98920631408691">
    <ele>667.514282226562</ele>
    <time>2012-03-15T16:17:37Z</time>
   </trkpt>
   <trkpt lat="46.2155265808106" lon="6.98920488357544">
    <ele>667.799987792969</ele>
    <time>2012-03-15T16:17:38Z</time>
   </trkpt>
   <trkpt lat="46.2154121398926" lon="6.98921632766724">
    <ele>667.799987792969</ele>
    <time>2012-03-15T16:17:42Z</time>
   </trkpt>
   <trkpt lat="46.2153511047363" lon="6.98922824859619">
    <ele>668.363647460938</ele>
    <time>2012-03-15T16:17:44Z</time>
   </trkpt>
   <trkpt lat="46.2153205871582" lon="6.98923254013062">
    <ele>668.645446777344</ele>
    <time>2012-03-15T16:17:45Z</time>
   </trkpt>
   <trkpt lat="46.2152976989746" lon="6.9892373085022">
    <ele>668.92724609375</ele>
    <time>2012-03-15T16:17:46Z</time>
   </trkpt>
   <trkpt lat="46.2152709960938" lon="6.9892430305481">
    <ele>669.209106445312</ele>
    <time>2012-03-15T16:17:47Z</time>
   </trkpt>
   <trkpt lat="46.2152442932129" lon="6.9892463684082">
    <ele>669.490905761719</ele>
    <time>2012-03-15T16:17:48Z</time>
   </trkpt>
   <trkpt lat="46.2150955200195" lon="6.98926258087158">
    <ele>670.900024414062</ele>
    <time>2012-03-15T16:17:53Z</time>
   </trkpt>
   <trkpt lat="46.2150688171387" lon="6.98926687240601">
    <ele>671.181823730469</ele>
    <time>2012-03-15T16:17:54Z</time>
   </trkpt>
   <trkpt lat="46.2150382995606" lon="6.98927116394043">
    <ele>671.463623046875</ele>
    <time>2012-03-15T16:17:55Z</time>
   </trkpt>
   <trkpt lat="46.2150077819824" lon="6.98927450180054">
    <ele>671.745422363281</ele>
    <time>2012-03-15T16:17:56Z</time>
   </trkpt>
   <trkpt lat="46.2149772644043" lon="6.98927640914917">
    <ele>672.027282714844</ele>
    <time>2012-03-15T16:17:57Z</time>
   </trkpt>
   <trkpt lat="46.2148933410644" lon="6.9892897605896">
    <ele>672.872741699219</ele>
    <time>2012-03-15T16:18:00Z</time>
   </trkpt>
   <trkpt lat="46.2148666381836" lon="6.98929214477539">
    <ele>673.154541015625</ele>
    <time>2012-03-15T16:18:01Z</time>
   </trkpt>
   <trkpt lat="46.2148399353027" lon="6.98929786682129">
    <ele>673.436340332031</ele>
    <time>2012-03-15T16:18:02Z</time>
   </trkpt>
   <trkpt lat="46.2148132324219" lon="6.98929929733276">
    <ele>673.718200683594</ele>
    <time>2012-03-15T16:18:03Z</time>
   </trkpt>
   <trkpt lat="46.214786529541" lon="6.98930072784424">
    <ele>674</ele>
    <time>2012-03-15T16:18:04Z</time>
   </trkpt>
   <trkpt lat="46.2146530151367" lon="6.98932361602783">
    <ele>674</ele>
    <time>2012-03-15T16:18:09Z</time>
   </trkpt>
   <trkpt lat="46.2146034240723" lon="6.98933267593384">
    <ele>674.666687011719</ele>
    <time>2012-03-15T16:18:11Z</time>
   </trkpt>
   <trkpt lat="46.2145767211914" lon="6.98933362960815">
    <ele>675</ele>
    <time>2012-03-15T16:18:12Z</time>
   </trkpt>
   <trkpt lat="46.2145500183106" lon="6.98933935165405">
    <ele>675.333312988281</ele>
    <time>2012-03-15T16:18:13Z</time>
   </trkpt>
   <trkpt lat="46.2145195007324" lon="6.98934459686279">
    <ele>675.666687011719</ele>
    <time>2012-03-15T16:18:14Z</time>
   </trkpt>
   <trkpt lat="46.2144927978516" lon="6.98935031890869">
    <ele>676</ele>
    <time>2012-03-15T16:18:15Z</time>
   </trkpt>
   <trkpt lat="46.2144355773926" lon="6.98935699462891">
    <ele>676</ele>
    <time>2012-03-15T16:18:17Z</time>
   </trkpt>
   <trkpt lat="46.2143058776856" lon="6.98937082290649">
    <ele>677.166687011719</ele>
    <time>2012-03-15T16:18:22Z</time>
   </trkpt>
   <trkpt lat="46.214282989502" lon="6.98937129974365">
    <ele>677.400024414062</ele>
    <time>2012-03-15T16:18:23Z</time>
   </trkpt>
   <trkpt lat="46.2142562866211" lon="6.98937511444092">
    <ele>677.633361816406</ele>
    <time>2012-03-15T16:18:24Z</time>
   </trkpt>
   <trkpt lat="46.2142295837402" lon="6.98937654495239">
    <ele>677.86669921875</ele>
    <time>2012-03-15T16:18:25Z</time>
   </trkpt>
   <trkpt lat="46.2140769958496" lon="6.98940372467041">
    <ele>679.266662597656</ele>
    <time>2012-03-15T16:18:31Z</time>
   </trkpt>
   <trkpt lat="46.2140502929688" lon="6.98940896987915">
    <ele>679.5</ele>
    <time>2012-03-15T16:18:32Z</time>
   </trkpt>
   <trkpt lat="46.2140235900879" lon="6.98941326141357">
    <ele>679.733337402344</ele>
    <time>2012-03-15T16:18:33Z</time>
   </trkpt>
   <trkpt lat="46.2139930725098" lon="6.98941946029663">
    <ele>679.966674804688</ele>
    <time>2012-03-15T16:18:34Z</time>
   </trkpt>
   <trkpt lat="46.2139663696289" lon="6.98942470550537">
    <ele>680.200012207031</ele>
    <time>2012-03-15T16:18:35Z</time>
   </trkpt>
   <trkpt lat="46.2138595581055" lon="6.9894289970398">
    <ele>680.200012207031</ele>
    <time>2012-03-15T16:18:39Z</time>
   </trkpt>
   <trkpt lat="46.213752746582" lon="6.989426612854">
    <ele>681.300048828125</ele>
    <time>2012-03-15T16:18:43Z</time>
   </trkpt>
   <trkpt lat="46.2137298583984" lon="6.98942756652832">
    <ele>681.575012207031</ele>
    <time>2012-03-15T16:18:44Z</time>
   </trkpt>
   <trkpt lat="46.2137031555176" lon="6.98942422866821">
    <ele>681.850036621094</ele>
    <time>2012-03-15T16:18:45Z</time>
   </trkpt>
   <trkpt lat="46.213680267334" lon="6.98941612243652">
    <ele>682.125</ele>
    <time>2012-03-15T16:18:46Z</time>
   </trkpt>
   <trkpt lat="46.2136535644531" lon="6.98940420150757">
    <ele>682.400024414062</ele>
    <time>2012-03-15T16:18:47Z</time>
   </trkpt>
   <trkpt lat="46.2135543823242" lon="6.98934268951416">
    <ele>682.400024414062</ele>
    <time>2012-03-15T16:18:51Z</time>
   </trkpt>
   <trkpt lat="46.2135353088379" lon="6.9893274307251">
    <ele>682.800048828125</ele>
    <time>2012-03-15T16:18:52Z</time>
   </trkpt>
   <trkpt lat="46.2135200500488" lon="6.9893069267273">
    <ele>683.200012207031</ele>
    <time>2012-03-15T16:18:53Z</time>
   </trkpt>
   <trkpt lat="46.2135047912598" lon="6.98928928375244">
    <ele>683.600036621094</ele>
    <time>2012-03-15T16:18:54Z</time>
   </trkpt>
   <trkpt lat="46.2134895324707" lon="6.98926639556885">
    <ele>684</ele>
    <time>2012-03-15T16:18:55Z</time>
   </trkpt>
   <trkpt lat="46.2134742736816" lon="6.98924112319946">
    <ele>684.400024414062</ele>
    <time>2012-03-15T16:18:56Z</time>
   </trkpt>
   <trkpt lat="46.2134552001953" lon="6.98921060562134">
    <ele>684.400024414062</ele>
    <time>2012-03-15T16:18:57Z</time>
   </trkpt>
   <trkpt lat="46.2133560180664" lon="6.98898029327393">
    <ele>685.683349609375</ele>
    <time>2012-03-15T16:19:04Z</time>
   </trkpt>
   <trkpt lat="46.2133483886719" lon="6.98894500732422">
    <ele>685.866638183594</ele>
    <time>2012-03-15T16:19:05Z</time>
   </trkpt>
   <trkpt lat="46.2133407592773" lon="6.9889063835144">
    <ele>686.049987792969</ele>
    <time>2012-03-15T16:19:06Z</time>
   </trkpt>
   <trkpt lat="46.2133407592773" lon="6.98887300491333">
    <ele>686.233337402344</ele>
    <time>2012-03-15T16:19:07Z</time>
   </trkpt>
   <trkpt lat="46.2133407592773" lon="6.98883628845215">
    <ele>686.416625976562</ele>
    <time>2012-03-15T16:19:08Z</time>
   </trkpt>
   <trkpt lat="46.2133331298828" lon="6.98879957199097">
    <ele>686.599975585938</ele>
    <time>2012-03-15T16:19:09Z</time>
   </trkpt>
   <trkpt lat="46.2133255004883" lon="6.98872756958008">
    <ele>686.599975585938</ele>
    <time>2012-03-15T16:19:11Z</time>
   </trkpt>
   <trkpt lat="46.213321685791" lon="6.9886531829834">
    <ele>687.266662597656</ele>
    <time>2012-03-15T16:19:13Z</time>
   </trkpt>
   <trkpt lat="46.2133255004883" lon="6.98861598968506">
    <ele>687.599975585938</ele>
    <time>2012-03-15T16:19:14Z</time>
   </trkpt>
   <trkpt lat="46.213321685791" lon="6.98857736587524">
    <ele>687.933288574219</ele>
    <time>2012-03-15T16:19:15Z</time>
   </trkpt>
   <trkpt lat="46.213321685791" lon="6.98853874206543">
    <ele>688.266662597656</ele>
    <time>2012-03-15T16:19:16Z</time>
   </trkpt>
   <trkpt lat="46.2133178710938" lon="6.98849678039551">
    <ele>688.599975585938</ele>
    <time>2012-03-15T16:19:17Z</time>
   </trkpt>
   <trkpt lat="46.2133140563965" lon="6.98845911026001">
    <ele>688.599975585938</ele>
    <time>2012-03-15T16:19:18Z</time>
   </trkpt>
   <trkpt lat="46.213306427002" lon="6.98824167251587">
    <ele>689.919982910156</ele>
    <time>2012-03-15T16:19:24Z</time>
   </trkpt>
   <trkpt lat="46.213306427002" lon="6.98820447921753">
    <ele>690.140014648438</ele>
    <time>2012-03-15T16:19:25Z</time>
   </trkpt>
   <trkpt lat="46.2133026123047" lon="6.98816680908203">
    <ele>690.359985351562</ele>
    <time>2012-03-15T16:19:26Z</time>
   </trkpt>
   <trkpt lat="46.2132949829102" lon="6.98812913894653">
    <ele>690.579956054688</ele>
    <time>2012-03-15T16:19:27Z</time>
   </trkpt>
   <trkpt lat="46.2132911682129" lon="6.98809146881104">
    <ele>690.799987792969</ele>
    <time>2012-03-15T16:19:28Z</time>
   </trkpt>
   <trkpt lat="46.2132606506348" lon="6.98798608779907">
    <ele>690.799987792969</ele>
    <time>2012-03-15T16:19:31Z</time>
   </trkpt>
   <trkpt lat="46.2131729125977" lon="6.9878396987915">
    <ele>692.174987792969</ele>
    <time>2012-03-15T16:19:36Z</time>
   </trkpt>
   <trkpt lat="46.2131500244141" lon="6.98781251907349">
    <ele>692.450012207031</ele>
    <time>2012-03-15T16:19:37Z</time>
   </trkpt>
   <trkpt lat="46.2131233215332" lon="6.98778867721558">
    <ele>692.724975585938</ele>
    <time>2012-03-15T16:19:38Z</time>
   </trkpt>
   <trkpt lat="46.2130966186523" lon="6.98777198791504">
    <ele>693</ele>
    <time>2012-03-15T16:19:39Z</time>
   </trkpt>
   <trkpt lat="46.2130241394043" lon="6.98771333694458">
    <ele>693</ele>
    <time>2012-03-15T16:19:42Z</time>
   </trkpt>
   <trkpt lat="46.2128944396973" lon="6.98761606216431">
    <ele>694.222229003906</ele>
    <time>2012-03-15T16:19:47Z</time>
   </trkpt>
   <trkpt lat="46.2128677368164" lon="6.98759698867798">
    <ele>694.466674804688</ele>
    <time>2012-03-15T16:19:48Z</time>
   </trkpt>
   <trkpt lat="46.2128410339356" lon="6.98757457733154">
    <ele>694.711120605469</ele>
    <time>2012-03-15T16:19:49Z</time>
   </trkpt>
   <trkpt lat="46.2128105163574" lon="6.98755931854248">
    <ele>694.95556640625</ele>
    <time>2012-03-15T16:19:50Z</time>
   </trkpt>
   <trkpt lat="46.2127876281738" lon="6.98753452301025">
    <ele>695.200012207031</ele>
    <time>2012-03-15T16:19:51Z</time>
   </trkpt>
   <trkpt lat="46.2127151489258" lon="6.98748445510864">
    <ele>695.200012207031</ele>
    <time>2012-03-15T16:19:54Z</time>
   </trkpt>
   <trkpt lat="46.2125930786133" lon="6.98738718032837">
    <ele>696.450012207031</ele>
    <time>2012-03-15T16:19:59Z</time>
   </trkpt>
   <trkpt lat="46.2125663757324" lon="6.98736763000488">
    <ele>696.700012207031</ele>
    <time>2012-03-15T16:20:00Z</time>
   </trkpt>
   <trkpt lat="46.2125396728516" lon="6.98734998703003">
    <ele>696.950012207031</ele>
    <time>2012-03-15T16:20:01Z</time>
   </trkpt>
   <trkpt lat="46.2125129699707" lon="6.98733186721802">
    <ele>697.200012207031</ele>
    <time>2012-03-15T16:20:02Z</time>
   </trkpt>
   <trkpt lat="46.2123107910156" lon="6.98718357086182">
    <ele>697.200012207031</ele>
    <time>2012-03-15T16:20:10Z</time>
   </trkpt>
   <trkpt lat="46.2122840881348" lon="6.9871621131897">
    <ele>697.640014648438</ele>
    <time>2012-03-15T16:20:11Z</time>
   </trkpt>
   <trkpt lat="46.2122535705566" lon="6.98714637756348">
    <ele>698.080017089844</ele>
    <time>2012-03-15T16:20:12Z</time>
   </trkpt>
   <trkpt lat="46.2122268676758" lon="6.98713302612305">
    <ele>698.52001953125</ele>
    <time>2012-03-15T16:20:13Z</time>
   </trkpt>
   <trkpt lat="46.2122001647949" lon="6.98711919784546">
    <ele>698.960021972656</ele>
    <time>2012-03-15T16:20:14Z</time>
   </trkpt>
   <trkpt lat="46.2121696472168" lon="6.98711061477661">
    <ele>699.400024414062</ele>
    <time>2012-03-15T16:20:15Z</time>
   </trkpt>
   <trkpt lat="46.2121391296387" lon="6.98710060119629">
    <ele>699.400024414062</ele>
    <time>2012-03-15T16:20:16Z</time>
   </trkpt>
   <trkpt lat="46.2119522094727" lon="6.98710107803345">
    <ele>700.719970703125</ele>
    <time>2012-03-15T16:20:22Z</time>
   </trkpt>
   <trkpt lat="46.2119216918945" lon="6.98710870742798">
    <ele>700.940002441406</ele>
    <time>2012-03-15T16:20:23Z</time>
   </trkpt>
   <trkpt lat="46.2118949890137" lon="6.98711776733398">
    <ele>701.159973144531</ele>
    <time>2012-03-15T16:20:24Z</time>
   </trkpt>
   <trkpt lat="46.2118682861328" lon="6.98712873458862">
    <ele>701.380004882812</ele>
    <time>2012-03-15T16:20:25Z</time>
   </trkpt>
   <trkpt lat="46.211841583252" lon="6.98714542388916">
    <ele>701.599975585938</ele>
    <time>2012-03-15T16:20:26Z</time>
   </trkpt>
   <trkpt lat="46.2117576599121" lon="6.98719358444214">
    <ele>701.599975585938</ele>
    <time>2012-03-15T16:20:29Z</time>
   </trkpt>
   <trkpt lat="46.2116432189941" lon="6.98725891113281">
    <ele>702.588195800781</ele>
    <time>2012-03-15T16:20:33Z</time>
   </trkpt>
   <trkpt lat="46.2116203308106" lon="6.98727178573608">
    <ele>702.835266113281</ele>
    <time>2012-03-15T16:20:34Z</time>
   </trkpt>
   <trkpt lat="46.2115936279297" lon="6.9872841835022">
    <ele>703.082336425781</ele>
    <time>2012-03-15T16:20:35Z</time>
   </trkpt>
   <trkpt lat="46.2115631103516" lon="6.98730421066284">
    <ele>703.329406738281</ele>
    <time>2012-03-15T16:20:36Z</time>
   </trkpt>
   <trkpt lat="46.2115364074707" lon="6.98732328414917">
    <ele>703.576477050781</ele>
    <time>2012-03-15T16:20:37Z</time>
   </trkpt>
   <trkpt lat="46.2114219665527" lon="6.98741245269775">
    <ele>704.811767578125</ele>
    <time>2012-03-15T16:20:42Z</time>
   </trkpt>
   <trkpt lat="46.2113952636719" lon="6.98742341995239">
    <ele>705.058837890625</ele>
    <time>2012-03-15T16:20:43Z</time>
   </trkpt>
   <trkpt lat="46.2113723754883" lon="6.98741960525513">
    <ele>705.305847167969</ele>
    <time>2012-03-15T16:20:44Z</time>
   </trkpt>
   <trkpt lat="46.2113571166992" lon="6.98739719390869">
    <ele>705.552917480469</ele>
    <time>2012-03-15T16:20:45Z</time>
   </trkpt>
   <trkpt lat="46.2113418579102" lon="6.98736810684204">
    <ele>705.799987792969</ele>
    <time>2012-03-15T16:20:46Z</time>
   </trkpt>
   <trkpt lat="46.2113380432129" lon="6.98733520507812">
    <ele>705.799987792969</ele>
    <time>2012-03-15T16:20:47Z</time>
   </trkpt>
   <trkpt lat="46.2113647460938" lon="6.98724794387817">
    <ele>706.815368652344</ele>
    <time>2012-03-15T16:20:50Z</time>
   </trkpt>
   <trkpt lat="46.2113761901856" lon="6.98721981048584">
    <ele>707.153869628906</ele>
    <time>2012-03-15T16:20:51Z</time>
   </trkpt>
   <trkpt lat="46.2113876342773" lon="6.98719024658203">
    <ele>707.492309570312</ele>
    <time>2012-03-15T16:20:52Z</time>
   </trkpt>
   <trkpt lat="46.2113952636719" lon="6.98716259002686">
    <ele>707.830749511719</ele>
    <time>2012-03-15T16:20:53Z</time>
   </trkpt>
   <trkpt lat="46.21142578125" lon="6.98707866668701">
    <ele>708.846130371094</ele>
    <time>2012-03-15T16:20:56Z</time>
   </trkpt>
   <trkpt lat="46.2114372253418" lon="6.98705148696899">
    <ele>709.184631347656</ele>
    <time>2012-03-15T16:20:57Z</time>
   </trkpt>
   <trkpt lat="46.2114486694336" lon="6.98702526092529">
    <ele>709.523071289062</ele>
    <time>2012-03-15T16:20:58Z</time>
   </trkpt>
   <trkpt lat="46.2114562988281" lon="6.98699426651001">
    <ele>709.861572265625</ele>
    <time>2012-03-15T16:20:59Z</time>
   </trkpt>
   <trkpt lat="46.2114639282227" lon="6.98696184158325">
    <ele>710.200012207031</ele>
    <time>2012-03-15T16:21:00Z</time>
   </trkpt>
   <trkpt lat="46.2115325927734" lon="6.98672962188721">
    <ele>710.200012207031</ele>
    <time>2012-03-15T16:21:08Z</time>
   </trkpt>
   <trkpt lat="46.2115440368652" lon="6.98667097091675">
    <ele>710.894775390625</ele>
    <time>2012-03-15T16:21:10Z</time>
   </trkpt>
   <trkpt lat="46.2115516662598" lon="6.98663711547852">
    <ele>711.242126464844</ele>
    <time>2012-03-15T16:21:11Z</time>
   </trkpt>
   <trkpt lat="46.2115592956543" lon="6.98660087585449">
    <ele>711.589477539062</ele>
    <time>2012-03-15T16:21:12Z</time>
   </trkpt>
   <trkpt lat="46.2115745544434" lon="6.98656988143921">
    <ele>711.936828613281</ele>
    <time>2012-03-15T16:21:13Z</time>
   </trkpt>
   <trkpt lat="46.2115898132324" lon="6.98654413223267">
    <ele>712.284240722656</ele>
    <time>2012-03-15T16:21:14Z</time>
   </trkpt>
   <trkpt lat="46.2116317749023" lon="6.98646831512451">
    <ele>713.326293945312</ele>
    <time>2012-03-15T16:21:17Z</time>
   </trkpt>
   <trkpt lat="46.2116394042969" lon="6.9864444732666">
    <ele>713.673706054688</ele>
    <time>2012-03-15T16:21:18Z</time>
   </trkpt>
   <trkpt lat="46.2116508483887" lon="6.98641490936279">
    <ele>714.021057128906</ele>
    <time>2012-03-15T16:21:19Z</time>
   </trkpt>
   <trkpt lat="46.211669921875" lon="6.98638677597046">
    <ele>714.368408203125</ele>
    <time>2012-03-15T16:21:20Z</time>
   </trkpt>
   <trkpt lat="46.2116889953613" lon="6.98636341094971">
    <ele>714.715759277344</ele>
    <time>2012-03-15T16:21:21Z</time>
   </trkpt>
   <trkpt lat="46.2117118835449" lon="6.98631620407104">
    <ele>715.410522460938</ele>
    <time>2012-03-15T16:21:23Z</time>
   </trkpt>
   <trkpt lat="46.211727142334" lon="6.98629379272461">
    <ele>715.757873535156</ele>
    <time>2012-03-15T16:21:24Z</time>
   </trkpt>
   <trkpt lat="46.2117500305176" lon="6.98627185821533">
    <ele>716.105224609375</ele>
    <time>2012-03-15T16:21:25Z</time>
   </trkpt>
   <trkpt lat="46.2117691040039" lon="6.98624420166016">
    <ele>716.45263671875</ele>
    <time>2012-03-15T16:21:26Z</time>
   </trkpt>
   <trkpt lat="46.211784362793" lon="6.98622226715088">
    <ele>716.799987792969</ele>
    <time>2012-03-15T16:21:27Z</time>
   </trkpt>
   <trkpt lat="46.2117958068848" lon="6.98619747161865">
    <ele>716.799987792969</ele>
    <time>2012-03-15T16:21:28Z</time>
   </trkpt>
   <trkpt lat="46.2118339538574" lon="6.98613357543945">
    <ele>717.742858886719</ele>
    <time>2012-03-15T16:21:31Z</time>
   </trkpt>
   <trkpt lat="46.2118453979492" lon="6.98611545562744">
    <ele>718.05712890625</ele>
    <time>2012-03-15T16:21:32Z</time>
   </trkpt>
   <trkpt lat="46.2118606567383" lon="6.98609304428101">
    <ele>718.371398925781</ele>
    <time>2012-03-15T16:21:33Z</time>
   </trkpt>
   <trkpt lat="46.2118721008301" lon="6.9860725402832">
    <ele>718.685729980469</ele>
    <time>2012-03-15T16:21:34Z</time>
   </trkpt>
   <trkpt lat="46.2118873596191" lon="6.98605298995972">
    <ele>719</ele>
    <time>2012-03-15T16:21:35Z</time>
   </trkpt>
   <trkpt lat="46.2119026184082" lon="6.98603391647339">
    <ele>719</ele>
    <time>2012-03-15T16:21:36Z</time>
   </trkpt>
   <trkpt lat="46.2119636535644" lon="6.98595762252808">
    <ele>720.142883300781</ele>
    <time>2012-03-15T16:21:40Z</time>
   </trkpt>
   <trkpt lat="46.2119941711426" lon="6.98592567443848">
    <ele>720.714294433594</ele>
    <time>2012-03-15T16:21:42Z</time>
   </trkpt>
   <trkpt lat="46.2120132446289" lon="6.9859094619751">
    <ele>721</ele>
    <time>2012-03-15T16:21:43Z</time>
   </trkpt>
   <trkpt lat="46.2121391296387" lon="6.98584985733032">
    <ele>721</ele>
    <time>2012-03-15T16:21:49Z</time>
   </trkpt>
   <trkpt lat="46.212158203125" lon="6.98584794998169">
    <ele>721.280029296875</ele>
    <time>2012-03-15T16:21:50Z</time>
   </trkpt>
   <trkpt lat="46.2121810913086" lon="6.98584794998169">
    <ele>721.559997558594</ele>
    <time>2012-03-15T16:21:51Z</time>
   </trkpt>
   <trkpt lat="46.2122039794922" lon="6.98584699630737">
    <ele>721.840026855469</ele>
    <time>2012-03-15T16:21:52Z</time>
   </trkpt>
   <trkpt lat="46.2122268676758" lon="6.98584032058716">
    <ele>722.119995117188</ele>
    <time>2012-03-15T16:21:53Z</time>
   </trkpt>
   <trkpt lat="46.2122459411621" lon="6.98584365844726">
    <ele>722.400024414062</ele>
    <time>2012-03-15T16:21:54Z</time>
   </trkpt>
   <trkpt lat="46.2123947143555" lon="6.98585224151611">
    <ele>724.080017089844</ele>
    <time>2012-03-15T16:22:00Z</time>
   </trkpt>
   <trkpt lat="46.2124176025391" lon="6.98585033416748">
    <ele>724.359985351562</ele>
    <time>2012-03-15T16:22:01Z</time>
   </trkpt>
   <trkpt lat="46.2124366760254" lon="6.98585033416748">
    <ele>724.640014648438</ele>
    <time>2012-03-15T16:22:02Z</time>
   </trkpt>
   <trkpt lat="46.212459564209" lon="6.98585033416748">
    <ele>724.919982910156</ele>
    <time>2012-03-15T16:22:03Z</time>
   </trkpt>
   <trkpt lat="46.2124786376953" lon="6.98585796356201">
    <ele>725.200012207031</ele>
    <time>2012-03-15T16:22:04Z</time>
   </trkpt>
   <trkpt lat="46.2125587463379" lon="6.98584890365601">
    <ele>725.200012207031</ele>
    <time>2012-03-15T16:22:07Z</time>
   </trkpt>
   <trkpt lat="46.2126617431641" lon="6.98583650588989">
    <ele>726.200012207031</ele>
    <time>2012-03-15T16:22:11Z</time>
   </trkpt>
   <trkpt lat="46.2126884460449" lon="6.98583030700684">
    <ele>726.450012207031</ele>
    <time>2012-03-15T16:22:12Z</time>
   </trkpt>
   <trkpt lat="46.2127113342285" lon="6.9858283996582">
    <ele>726.700012207031</ele>
    <time>2012-03-15T16:22:13Z</time>
   </trkpt>
   <trkpt lat="46.2127380371094" lon="6.98582744598389">
    <ele>726.950012207031</ele>
    <time>2012-03-15T16:22:14Z</time>
   </trkpt>
   <trkpt lat="46.2127647399902" lon="6.98582363128662">
    <ele>727.200012207031</ele>
    <time>2012-03-15T16:22:15Z</time>
   </trkpt>
   <trkpt lat="46.212947845459" lon="6.98579788208008">
    <ele>727.200012207031</ele>
    <time>2012-03-15T16:22:22Z</time>
   </trkpt>
   <trkpt lat="46.213077545166" lon="6.98576784133911">
    <ele>728.311096191406</ele>
    <time>2012-03-15T16:22:27Z</time>
   </trkpt>
   <trkpt lat="46.2131042480469" lon="6.98576259613037">
    <ele>728.533325195312</ele>
    <time>2012-03-15T16:22:28Z</time>
   </trkpt>
   <trkpt lat="46.2131271362305" lon="6.98574781417847">
    <ele>728.755554199219</ele>
    <time>2012-03-15T16:22:29Z</time>
   </trkpt>
   <trkpt lat="46.2131538391113" lon="6.9857292175293">
    <ele>728.977783203125</ele>
    <time>2012-03-15T16:22:30Z</time>
   </trkpt>
   <trkpt lat="46.2131805419922" lon="6.9857177734375">
    <ele>729.200012207031</ele>
    <time>2012-03-15T16:22:31Z</time>
   </trkpt>
   <trkpt lat="46.2132225036621" lon="6.98567724227905">
    <ele>729.200012207031</ele>
    <time>2012-03-15T16:22:33Z</time>
   </trkpt>
   <trkpt lat="46.2133598327637" lon="6.9854474067688">
    <ele>729.75</ele>
    <time>2012-03-15T16:22:40Z</time>
   </trkpt>
   <trkpt lat="46.2134857177734" lon="6.98519992828369">
    <ele>730.221435546875</ele>
    <time>2012-03-15T16:22:46Z</time>
   </trkpt>
   <trkpt lat="46.2136764526367" lon="6.985032081604">
    <ele>730.69287109375</ele>
    <time>2012-03-15T16:22:52Z</time>
   </trkpt>
   <trkpt lat="46.2138252258301" lon="6.98492670059204">
    <ele>731.085754394531</ele>
    <time>2012-03-15T16:22:57Z</time>
   </trkpt>
   <trkpt lat="46.2138557434082" lon="6.98490142822266">
    <ele>731.164306640625</ele>
    <time>2012-03-15T16:22:58Z</time>
   </trkpt>
   <trkpt lat="46.2138862609863" lon="6.98487901687622">
    <ele>731.242858886719</ele>
    <time>2012-03-15T16:22:59Z</time>
   </trkpt>
   <trkpt lat="46.2139167785644" lon="6.98486375808716">
    <ele>731.321472167969</ele>
    <time>2012-03-15T16:23:00Z</time>
   </trkpt>
   <trkpt lat="46.2139434814453" lon="6.98484420776367">
    <ele>731.400024414062</ele>
    <time>2012-03-15T16:23:01Z</time>
   </trkpt>
   <trkpt lat="46.2140350341797" lon="6.98474454879761">
    <ele>731.400024414062</ele>
    <time>2012-03-15T16:23:05Z</time>
   </trkpt>
   <trkpt lat="46.214111328125" lon="6.98461961746216">
    <ele>732.388244628906</ele>
    <time>2012-03-15T16:23:09Z</time>
   </trkpt>
   <trkpt lat="46.2141304016113" lon="6.98458957672119">
    <ele>732.635314941406</ele>
    <time>2012-03-15T16:23:10Z</time>
   </trkpt>
   <trkpt lat="46.2141456604004" lon="6.98455381393433">
    <ele>732.882385253906</ele>
    <time>2012-03-15T16:23:11Z</time>
   </trkpt>
   <trkpt lat="46.2141609191894" lon="6.98452091217041">
    <ele>733.12939453125</ele>
    <time>2012-03-15T16:23:12Z</time>
   </trkpt>
   <trkpt lat="46.2141761779785" lon="6.98448991775513">
    <ele>733.37646484375</ele>
    <time>2012-03-15T16:23:13Z</time>
   </trkpt>
   <trkpt lat="46.2142601013184" lon="6.98430061340332">
    <ele>734.858825683594</ele>
    <time>2012-03-15T16:23:19Z</time>
   </trkpt>
   <trkpt lat="46.2142753601074" lon="6.98426914215088">
    <ele>735.105834960938</ele>
    <time>2012-03-15T16:23:20Z</time>
   </trkpt>
   <trkpt lat="46.2142868041992" lon="6.98424005508423">
    <ele>735.352905273438</ele>
    <time>2012-03-15T16:23:21Z</time>
   </trkpt>
   <trkpt lat="46.214298248291" lon="6.98421239852905">
    <ele>735.599975585938</ele>
    <time>2012-03-15T16:23:22Z</time>
   </trkpt>
   <trkpt lat="46.2143669128418" lon="6.98406934738159">
    <ele>735.599975585938</ele>
    <time>2012-03-15T16:23:27Z</time>
   </trkpt>
   <trkpt lat="46.2144050598144" lon="6.98397541046143">
    <ele>736.387451171875</ele>
    <time>2012-03-15T16:23:30Z</time>
   </trkpt>
   <trkpt lat="46.2144203186035" lon="6.98394584655762">
    <ele>736.649963378906</ele>
    <time>2012-03-15T16:23:31Z</time>
   </trkpt>
   <trkpt lat="46.2144355773926" lon="6.98391819000244">
    <ele>736.912475585938</ele>
    <time>2012-03-15T16:23:32Z</time>
   </trkpt>
   <trkpt lat="46.2144470214844" lon="6.98388719558716">
    <ele>737.174987792969</ele>
    <time>2012-03-15T16:23:33Z</time>
   </trkpt>
   <trkpt lat="46.2144660949707" lon="6.9838604927063">
    <ele>737.4375</ele>
    <time>2012-03-15T16:23:34Z</time>
   </trkpt>
   <trkpt lat="46.2145347595215" lon="6.98370027542114">
    <ele>738.75</ele>
    <time>2012-03-15T16:23:39Z</time>
   </trkpt>
   <trkpt lat="46.2145462036133" lon="6.98366355895996">
    <ele>739.012512207031</ele>
    <time>2012-03-15T16:23:40Z</time>
   </trkpt>
   <trkpt lat="46.2145538330078" lon="6.98362588882446">
    <ele>739.274963378906</ele>
    <time>2012-03-15T16:23:41Z</time>
   </trkpt>
   <trkpt lat="46.2145576477051" lon="6.98358678817749">
    <ele>739.537475585938</ele>
    <time>2012-03-15T16:23:42Z</time>
   </trkpt>
   <trkpt lat="46.2145652770996" lon="6.9835467338562">
    <ele>739.799987792969</ele>
    <time>2012-03-15T16:23:43Z</time>
   </trkpt>
   <trkpt lat="46.2145690917969" lon="6.98343515396118">
    <ele>739.799987792969</ele>
    <time>2012-03-15T16:23:46Z</time>
   </trkpt>
   <trkpt lat="46.2146148681641" lon="6.98318862915039">
    <ele>740.890869140625</ele>
    <time>2012-03-15T16:23:52Z</time>
   </trkpt>
   <trkpt lat="46.2146224975586" lon="6.98315525054932">
    <ele>741.072692871094</ele>
    <time>2012-03-15T16:23:53Z</time>
   </trkpt>
   <trkpt lat="46.2146339416504" lon="6.98311853408814">
    <ele>741.254516601562</ele>
    <time>2012-03-15T16:23:54Z</time>
   </trkpt>
   <trkpt lat="46.2146530151367" lon="6.98308849334717">
    <ele>741.436340332031</ele>
    <time>2012-03-15T16:23:55Z</time>
   </trkpt>
   <trkpt lat="46.214672088623" lon="6.98306179046631">
    <ele>741.6181640625</ele>
    <time>2012-03-15T16:23:56Z</time>
   </trkpt>
   <trkpt lat="46.2146873474121" lon="6.98302698135376">
    <ele>741.799987792969</ele>
    <time>2012-03-15T16:23:57Z</time>
   </trkpt>
   <trkpt lat="46.2146987915039" lon="6.98299503326416">
    <ele>741.799987792969</ele>
    <time>2012-03-15T16:23:58Z</time>
   </trkpt>
   <trkpt lat="46.2147521972656" lon="6.98287343978882">
    <ele>742.900024414062</ele>
    <time>2012-03-15T16:24:02Z</time>
   </trkpt>
   <trkpt lat="46.2147674560547" lon="6.98284435272217">
    <ele>743.174987792969</ele>
    <time>2012-03-15T16:24:03Z</time>
   </trkpt>
   <trkpt lat="46.2147827148438" lon="6.98281240463257">
    <ele>743.450012207031</ele>
    <time>2012-03-15T16:24:04Z</time>
   </trkpt>
   <trkpt lat="46.2147941589356" lon="6.98277902603149">
    <ele>743.724975585938</ele>
    <time>2012-03-15T16:24:05Z</time>
   </trkpt>
   <trkpt lat="46.2148094177246" lon="6.9827446937561">
    <ele>744</ele>
    <time>2012-03-15T16:24:06Z</time>
   </trkpt>
   <trkpt lat="46.2148666381836" lon="6.98260688781738">
    <ele>745.099975585938</ele>
    <time>2012-03-15T16:24:10Z</time>
   </trkpt>
   <trkpt lat="46.2148857116699" lon="6.98257350921631">
    <ele>745.375</ele>
    <time>2012-03-15T16:24:11Z</time>
   </trkpt>
   <trkpt lat="46.2148971557617" lon="6.98253726959228">
    <ele>745.650024414062</ele>
    <time>2012-03-15T16:24:12Z</time>
   </trkpt>
   <trkpt lat="46.2149200439453" lon="6.98250818252564">
    <ele>745.924987792969</ele>
    <time>2012-03-15T16:24:13Z</time>
   </trkpt>
   <trkpt lat="46.2149391174316" lon="6.98247814178467">
    <ele>746.200012207031</ele>
    <time>2012-03-15T16:24:14Z</time>
   </trkpt>
   <trkpt lat="46.2150421142578" lon="6.98237562179565">
    <ele>746.200012207031</ele>
    <time>2012-03-15T16:24:19Z</time>
   </trkpt>
   <trkpt lat="46.215087890625" lon="6.98234272003174">
    <ele>746.86669921875</ele>
    <time>2012-03-15T16:24:21Z</time>
   </trkpt>
   <trkpt lat="46.2151107788086" lon="6.98233366012573">
    <ele>747.200012207031</ele>
    <time>2012-03-15T16:24:22Z</time>
   </trkpt>
   <trkpt lat="46.2151374816894" lon="6.9823145866394">
    <ele>747.533325195312</ele>
    <time>2012-03-15T16:24:23Z</time>
   </trkpt>
   <trkpt lat="46.215160369873" lon="6.98229789733887">
    <ele>747.86669921875</ele>
    <time>2012-03-15T16:24:24Z</time>
   </trkpt>
   <trkpt lat="46.2151832580566" lon="6.98228359222412">
    <ele>748.200012207031</ele>
    <time>2012-03-15T16:24:25Z</time>
   </trkpt>
   <trkpt lat="46.2152328491211" lon="6.98225545883179">
    <ele>748.200012207031</ele>
    <time>2012-03-15T16:24:27Z</time>
   </trkpt>
   <trkpt lat="46.2153854370117" lon="6.98217058181763">
    <ele>749.400024414062</ele>
    <time>2012-03-15T16:24:33Z</time>
   </trkpt>
   <trkpt lat="46.2154083251953" lon="6.98215532302856">
    <ele>749.600036621094</ele>
    <time>2012-03-15T16:24:34Z</time>
   </trkpt>
   <trkpt lat="46.2154388427734" lon="6.98214626312256">
    <ele>749.799987792969</ele>
    <time>2012-03-15T16:24:35Z</time>
   </trkpt>
   <trkpt lat="46.2154655456543" lon="6.98213195800781">
    <ele>750</ele>
    <time>2012-03-15T16:24:36Z</time>
   </trkpt>
   <trkpt lat="46.2154884338379" lon="6.98212099075317">
    <ele>750.200012207031</ele>
    <time>2012-03-15T16:24:37Z</time>
   </trkpt>
   <trkpt lat="46.2155799865723" lon="6.98201990127564">
    <ele>750.200012207031</ele>
    <time>2012-03-15T16:24:41Z</time>
   </trkpt>
   <trkpt lat="46.215576171875" lon="6.98184537887573">
    <ele>750.705261230469</ele>
    <time>2012-03-15T16:24:45Z</time>
   </trkpt>
   <trkpt lat="46.2155227661133" lon="6.98178768157959">
    <ele>750.957885742188</ele>
    <time>2012-03-15T16:24:47Z</time>
   </trkpt>
   <trkpt lat="46.2154579162598" lon="6.98176193237305">
    <ele>751.210510253906</ele>
    <time>2012-03-15T16:24:49Z</time>
   </trkpt>
   <trkpt lat="46.2153854370117" lon="6.98174715042114">
    <ele>751.463134765625</ele>
    <time>2012-03-15T16:24:51Z</time>
   </trkpt>
   <trkpt lat="46.215217590332" lon="6.98174381256104">
    <ele>752.0947265625</ele>
    <time>2012-03-15T16:24:56Z</time>
   </trkpt>
   <trkpt lat="46.2151832580566" lon="6.9817419052124">
    <ele>752.221008300781</ele>
    <time>2012-03-15T16:24:57Z</time>
   </trkpt>
   <trkpt lat="46.2151489257812" lon="6.98174142837524">
    <ele>752.347351074219</ele>
    <time>2012-03-15T16:24:58Z</time>
   </trkpt>
   <trkpt lat="46.2151145935059" lon="6.98174524307251">
    <ele>752.4736328125</ele>
    <time>2012-03-15T16:24:59Z</time>
   </trkpt>
   <trkpt lat="46.2150840759277" lon="6.98175001144409">
    <ele>752.599975585938</ele>
    <time>2012-03-15T16:25:00Z</time>
   </trkpt>
   <trkpt lat="46.2149848937988" lon="6.98173904418945">
    <ele>752.599975585938</ele>
    <time>2012-03-15T16:25:03Z</time>
   </trkpt>
   <trkpt lat="46.214729309082" lon="6.98173904418945">
    <ele>753.742858886719</ele>
    <time>2012-03-15T16:25:11Z</time>
   </trkpt>
   <trkpt lat="46.2146644592285" lon="6.98173761367798">
    <ele>754.028564453125</ele>
    <time>2012-03-15T16:25:13Z</time>
   </trkpt>
   <trkpt lat="46.2146339416504" lon="6.98173809051514">
    <ele>754.17138671875</ele>
    <time>2012-03-15T16:25:14Z</time>
   </trkpt>
   <trkpt lat="46.2146034240723" lon="6.98173713684082">
    <ele>754.314270019531</ele>
    <time>2012-03-15T16:25:15Z</time>
   </trkpt>
   <trkpt lat="46.2145729064941" lon="6.98173332214356">
    <ele>754.457092285156</ele>
    <time>2012-03-15T16:25:16Z</time>
   </trkpt>
   <trkpt lat="46.214542388916" lon="6.98173475265503">
    <ele>754.599975585938</ele>
    <time>2012-03-15T16:25:17Z</time>
   </trkpt>
   <trkpt lat="46.2144165039062" lon="6.9817328453064">
    <ele>754.599975585938</ele>
    <time>2012-03-15T16:25:21Z</time>
   </trkpt>
   <trkpt lat="46.2142677307129" lon="6.98171615600586">
    <ele>755.711059570312</ele>
    <time>2012-03-15T16:25:26Z</time>
   </trkpt>
   <trkpt lat="46.214241027832" lon="6.98171329498291">
    <ele>755.933288574219</ele>
    <time>2012-03-15T16:25:27Z</time>
   </trkpt>
   <trkpt lat="46.2142066955566" lon="6.98170852661133">
    <ele>756.155517578125</ele>
    <time>2012-03-15T16:25:28Z</time>
   </trkpt>
   <trkpt lat="46.2141799926758" lon="6.98169898986816">
    <ele>756.377746582031</ele>
    <time>2012-03-15T16:25:29Z</time>
   </trkpt>
   <trkpt lat="46.2141532897949" lon="6.98168325424194">
    <ele>756.599975585938</ele>
    <time>2012-03-15T16:25:30Z</time>
   </trkpt>
   <trkpt lat="46.2141227722168" lon="6.98166275024414">
    <ele>756.599975585938</ele>
    <time>2012-03-15T16:25:31Z</time>
   </trkpt>
   <trkpt lat="46.2138786315918" lon="6.98151159286499">
    <ele>757.953857421875</ele>
    <time>2012-03-15T16:25:39Z</time>
   </trkpt>
   <trkpt lat="46.2138481140137" lon="6.98149156570435">
    <ele>758.123046875</ele>
    <time>2012-03-15T16:25:40Z</time>
   </trkpt>
   <trkpt lat="46.2138175964356" lon="6.98147630691528">
    <ele>758.292297363281</ele>
    <time>2012-03-15T16:25:41Z</time>
   </trkpt>
   <trkpt lat="46.2137832641602" lon="6.98145771026611">
    <ele>758.461547851562</ele>
    <time>2012-03-15T16:25:42Z</time>
   </trkpt>
   <trkpt lat="46.213752746582" lon="6.98144912719726">
    <ele>758.630737304688</ele>
    <time>2012-03-15T16:25:43Z</time>
   </trkpt>
   <trkpt lat="46.2137184143066" lon="6.9814395904541">
    <ele>758.799987792969</ele>
    <time>2012-03-15T16:25:44Z</time>
   </trkpt>
   <trkpt lat="46.2136535644531" lon="6.98145866394043">
    <ele>758.799987792969</ele>
    <time>2012-03-15T16:25:46Z</time>
   </trkpt>
   <trkpt lat="46.213451385498" lon="6.98159313201904">
    <ele>760.327270507812</ele>
    <time>2012-03-15T16:25:53Z</time>
   </trkpt>
   <trkpt lat="46.2134246826172" lon="6.98160743713379">
    <ele>760.545471191406</ele>
    <time>2012-03-15T16:25:54Z</time>
   </trkpt>
   <trkpt lat="46.2133941650391" lon="6.98161745071411">
    <ele>760.763671875</ele>
    <time>2012-03-15T16:25:55Z</time>
   </trkpt>
   <trkpt lat="46.2133712768555" lon="6.9816370010376">
    <ele>760.981811523438</ele>
    <time>2012-03-15T16:25:56Z</time>
   </trkpt>
   <trkpt lat="46.2133445739746" lon="6.98165416717529">
    <ele>761.200012207031</ele>
    <time>2012-03-15T16:25:57Z</time>
   </trkpt>
   <trkpt lat="46.2133178710938" lon="6.98166799545288">
    <ele>761.200012207031</ele>
    <time>2012-03-15T16:25:58Z</time>
   </trkpt>
   <trkpt lat="46.2131271362305" lon="6.98171424865723">
    <ele>762.600036621094</ele>
    <time>2012-03-15T16:26:05Z</time>
   </trkpt>
   <trkpt lat="46.2130966186523" lon="6.98172903060913">
    <ele>762.800048828125</ele>
    <time>2012-03-15T16:26:06Z</time>
   </trkpt>
   <trkpt lat="46.2130661010742" lon="6.98174142837524">
    <ele>763</ele>
    <time>2012-03-15T16:26:07Z</time>
   </trkpt>
   <trkpt lat="46.2130432128906" lon="6.98174524307251">
    <ele>763.200012207031</ele>
    <time>2012-03-15T16:26:08Z</time>
   </trkpt>
   <trkpt lat="46.2130126953125" lon="6.98175811767578">
    <ele>763.400024414062</ele>
    <time>2012-03-15T16:26:09Z</time>
   </trkpt>
   <trkpt lat="46.2129707336426" lon="6.98177433013916">
    <ele>763.400024414062</ele>
    <time>2012-03-15T16:26:11Z</time>
   </trkpt>
   <trkpt lat="46.212947845459" lon="6.98178291320801">
    <ele>763.900024414062</ele>
    <time>2012-03-15T16:26:12Z</time>
   </trkpt>
   <trkpt lat="46.2129211425781" lon="6.9817852973938">
    <ele>764.400024414062</ele>
    <time>2012-03-15T16:26:13Z</time>
   </trkpt>
   <trkpt lat="46.2128982543945" lon="6.98179531097412">
    <ele>764.900024414062</ele>
    <time>2012-03-15T16:26:14Z</time>
   </trkpt>
   <trkpt lat="46.2128677368164" lon="6.98180627822876">
    <ele>765.400024414062</ele>
    <time>2012-03-15T16:26:15Z</time>
   </trkpt>
   <trkpt lat="46.2128143310547" lon="6.98183059692383">
    <ele>765.400024414062</ele>
    <time>2012-03-15T16:26:17Z</time>
   </trkpt>
   <trkpt lat="46.2127151489258" lon="6.98185539245606">
    <ele>766.600036621094</ele>
    <time>2012-03-15T16:26:21Z</time>
   </trkpt>
   <trkpt lat="46.2126884460449" lon="6.98186779022217">
    <ele>766.900024414062</ele>
    <time>2012-03-15T16:26:22Z</time>
   </trkpt>
   <trkpt lat="46.2126693725586" lon="6.98188018798828">
    <ele>767.200012207031</ele>
    <time>2012-03-15T16:26:23Z</time>
   </trkpt>
   <trkpt lat="46.212646484375" lon="6.98189544677734">
    <ele>767.5</ele>
    <time>2012-03-15T16:26:24Z</time>
   </trkpt>
   <trkpt lat="46.2126235961914" lon="6.9819130897522">
    <ele>767.799987792969</ele>
    <time>2012-03-15T16:26:25Z</time>
   </trkpt>
   <trkpt lat="46.212532043457" lon="6.98200702667236">
    <ele>769</ele>
    <time>2012-03-15T16:26:29Z</time>
   </trkpt>
   <trkpt lat="46.2125091552734" lon="6.98203897476196">
    <ele>769.299987792969</ele>
    <time>2012-03-15T16:26:30Z</time>
   </trkpt>
   <trkpt lat="46.2124938964844" lon="6.98206853866577">
    <ele>769.600036621094</ele>
    <time>2012-03-15T16:26:31Z</time>
   </trkpt>
   <trkpt lat="46.2124824523926" lon="6.98210000991821">
    <ele>769.900024414062</ele>
    <time>2012-03-15T16:26:32Z</time>
   </trkpt>
   <trkpt lat="46.2124671936035" lon="6.98213338851929">
    <ele>770.200012207031</ele>
    <time>2012-03-15T16:26:33Z</time>
   </trkpt>
   <trkpt lat="46.2124366760254" lon="6.98222875595093">
    <ele>771.099975585938</ele>
    <time>2012-03-15T16:26:36Z</time>
   </trkpt>
   <trkpt lat="46.2124252319336" lon="6.98226547241211">
    <ele>771.400024414062</ele>
    <time>2012-03-15T16:26:37Z</time>
   </trkpt>
   <trkpt lat="46.2124137878418" lon="6.98230075836182">
    <ele>771.700012207031</ele>
    <time>2012-03-15T16:26:38Z</time>
   </trkpt>
   <trkpt lat="46.2124061584473" lon="6.98233795166016">
    <ele>772</ele>
    <time>2012-03-15T16:26:39Z</time>
   </trkpt>
   <trkpt lat="46.212329864502" lon="6.98251152038574">
    <ele>772</ele>
    <time>2012-03-15T16:26:44Z</time>
   </trkpt>
   <trkpt lat="46.2122230529785" lon="6.98256540298462">
    <ele>772.761901855469</ele>
    <time>2012-03-15T16:26:48Z</time>
   </trkpt>
   <trkpt lat="46.2121124267578" lon="6.98264455795288">
    <ele>773.523803710938</ele>
    <time>2012-03-15T16:26:52Z</time>
   </trkpt>
   <trkpt lat="46.212085723877" lon="6.98265695571899">
    <ele>773.714294433594</ele>
    <time>2012-03-15T16:26:53Z</time>
   </trkpt>
   <trkpt lat="46.2120552062988" lon="6.98267269134522">
    <ele>773.90478515625</ele>
    <time>2012-03-15T16:26:54Z</time>
   </trkpt>
   <trkpt lat="46.212028503418" lon="6.98268985748291">
    <ele>774.09521484375</ele>
    <time>2012-03-15T16:26:55Z</time>
   </trkpt>
   <trkpt lat="46.2120056152344" lon="6.98270750045776">
    <ele>774.285705566406</ele>
    <time>2012-03-15T16:26:56Z</time>
   </trkpt>
   <trkpt lat="46.2118530273438" lon="6.98276376724243">
    <ele>775.428588867188</ele>
    <time>2012-03-15T16:27:02Z</time>
   </trkpt>
   <trkpt lat="46.2118263244629" lon="6.98276662826538">
    <ele>775.619018554688</ele>
    <time>2012-03-15T16:27:03Z</time>
   </trkpt>
   <trkpt lat="46.2118034362793" lon="6.98276901245117">
    <ele>775.809509277344</ele>
    <time>2012-03-15T16:27:04Z</time>
   </trkpt>
   <trkpt lat="46.2117767333984" lon="6.98277568817139">
    <ele>776</ele>
    <time>2012-03-15T16:27:05Z</time>
   </trkpt>
   <trkpt lat="46.2116775512695" lon="6.98279428482056">
    <ele>776</ele>
    <time>2012-03-15T16:27:09Z</time>
   </trkpt>
   <trkpt lat="46.2116241455078" lon="6.98280191421509">
    <ele>776.733337402344</ele>
    <time>2012-03-15T16:27:11Z</time>
   </trkpt>
   <trkpt lat="46.211597442627" lon="6.98280620574951">
    <ele>777.099975585938</ele>
    <time>2012-03-15T16:27:12Z</time>
   </trkpt>
   <trkpt lat="46.2115669250488" lon="6.98280906677246">
    <ele>777.466674804688</ele>
    <time>2012-03-15T16:27:13Z</time>
   </trkpt>
   <trkpt lat="46.211540222168" lon="6.98281764984131">
    <ele>777.833374023438</ele>
    <time>2012-03-15T16:27:14Z</time>
   </trkpt>
   <trkpt lat="46.2115135192871" lon="6.98281812667847">
    <ele>778.200012207031</ele>
    <time>2012-03-15T16:27:15Z</time>
   </trkpt>
   <trkpt lat="46.2114524841309" lon="6.98282957077026">
    <ele>778.200012207031</ele>
    <time>2012-03-15T16:27:17Z</time>
   </trkpt>
   <trkpt lat="46.2112846374512" lon="6.98287773132324">
    <ele>779.400024414062</ele>
    <time>2012-03-15T16:27:23Z</time>
   </trkpt>
   <trkpt lat="46.2112579345703" lon="6.98289108276367">
    <ele>779.600036621094</ele>
    <time>2012-03-15T16:27:24Z</time>
   </trkpt>
   <trkpt lat="46.2112274169922" lon="6.98290061950684">
    <ele>779.799987792969</ele>
    <time>2012-03-15T16:27:25Z</time>
   </trkpt>
   <trkpt lat="46.2112007141113" lon="6.98291635513306">
    <ele>780</ele>
    <time>2012-03-15T16:27:26Z</time>
   </trkpt>
   <trkpt lat="46.2111740112305" lon="6.98293876647949">
    <ele>780.200012207031</ele>
    <time>2012-03-15T16:27:27Z</time>
   </trkpt>
   <trkpt lat="46.2110824584961" lon="6.98300361633301">
    <ele>780.200012207031</ele>
    <time>2012-03-15T16:27:30Z</time>
   </trkpt>
   <trkpt lat="46.2109489440918" lon="6.98300361633301">
    <ele>781.422241210938</ele>
    <time>2012-03-15T16:27:35Z</time>
   </trkpt>
   <trkpt lat="46.2109222412109" lon="6.9829044342041">
    <ele>782.155578613281</ele>
    <time>2012-03-15T16:27:38Z</time>
   </trkpt>
   <trkpt lat="46.2109298706055" lon="6.98287010192871">
    <ele>782.400024414062</ele>
    <time>2012-03-15T16:27:39Z</time>
   </trkpt>
   <trkpt lat="46.2109298706055" lon="6.9828372001648">
    <ele>782.644409179688</ele>
    <time>2012-03-15T16:27:40Z</time>
   </trkpt>
   <trkpt lat="46.2109375" lon="6.98280334472656">
    <ele>782.888854980469</ele>
    <time>2012-03-15T16:27:41Z</time>
   </trkpt>
   <trkpt lat="46.2109413146973" lon="6.98277425765991">
    <ele>783.13330078125</ele>
    <time>2012-03-15T16:27:42Z</time>
   </trkpt>
   <trkpt lat="46.2109565734863" lon="6.9827070236206">
    <ele>783.622192382812</ele>
    <time>2012-03-15T16:27:44Z</time>
   </trkpt>
   <trkpt lat="46.2109603881836" lon="6.98266792297363">
    <ele>783.866638183594</ele>
    <time>2012-03-15T16:27:45Z</time>
   </trkpt>
   <trkpt lat="46.2109718322754" lon="6.98263120651245">
    <ele>784.111083984375</ele>
    <time>2012-03-15T16:27:46Z</time>
   </trkpt>
   <trkpt lat="46.2109756469727" lon="6.98259401321411">
    <ele>784.355529785156</ele>
    <time>2012-03-15T16:27:47Z</time>
   </trkpt>
   <trkpt lat="46.2109832763672" lon="6.98255634307861">
    <ele>784.599975585938</ele>
    <time>2012-03-15T16:27:48Z</time>
   </trkpt>
   <trkpt lat="46.2109985351562" lon="6.98252010345459">
    <ele>784.599975585938</ele>
    <time>2012-03-15T16:27:49Z</time>
   </trkpt>
   <trkpt lat="46.2110404968262" lon="6.98242282867432">
    <ele>785.699951171875</ele>
    <time>2012-03-15T16:27:52Z</time>
   </trkpt>
   <trkpt lat="46.2110595703125" lon="6.98238754272461">
    <ele>786.066650390625</ele>
    <time>2012-03-15T16:27:53Z</time>
   </trkpt>
   <trkpt lat="46.2110748291016" lon="6.9823489189148">
    <ele>786.433349609375</ele>
    <time>2012-03-15T16:27:54Z</time>
   </trkpt>
   <trkpt lat="46.2110824584961" lon="6.98230695724487">
    <ele>786.799987792969</ele>
    <time>2012-03-15T16:27:55Z</time>
   </trkpt>
   <trkpt lat="46.2111129760742" lon="6.98219299316406">
    <ele>786.799987792969</ele>
    <time>2012-03-15T16:27:58Z</time>
   </trkpt>
   <trkpt lat="46.211124420166" lon="6.98216152191162">
    <ele>787.239990234375</ele>
    <time>2012-03-15T16:27:59Z</time>
   </trkpt>
   <trkpt lat="46.2111320495606" lon="6.98212957382202">
    <ele>787.679992675781</ele>
    <time>2012-03-15T16:28:00Z</time>
   </trkpt>
   <trkpt lat="46.2111434936523" lon="6.98209142684936">
    <ele>788.119995117188</ele>
    <time>2012-03-15T16:28:01Z</time>
   </trkpt>
   <trkpt lat="46.2111511230469" lon="6.98205804824829">
    <ele>788.559997558594</ele>
    <time>2012-03-15T16:28:02Z</time>
   </trkpt>
   <trkpt lat="46.2111587524414" lon="6.98202753067017">
    <ele>789</ele>
    <time>2012-03-15T16:28:03Z</time>
   </trkpt>
   <trkpt lat="46.2112007141113" lon="6.98189449310303">
    <ele>789</ele>
    <time>2012-03-15T16:28:07Z</time>
   </trkpt>
   <trkpt lat="46.2112121582031" lon="6.98185634613037">
    <ele>789.440002441406</ele>
    <time>2012-03-15T16:28:08Z</time>
   </trkpt>
   <trkpt lat="46.2112274169922" lon="6.98182058334351">
    <ele>789.880004882812</ele>
    <time>2012-03-15T16:28:09Z</time>
   </trkpt>
   <trkpt lat="46.2112426757812" lon="6.98178052902222">
    <ele>790.320007324219</ele>
    <time>2012-03-15T16:28:10Z</time>
   </trkpt>
   <trkpt lat="46.2112693786621" lon="6.98173904418945">
    <ele>790.760009765625</ele>
    <time>2012-03-15T16:28:11Z</time>
   </trkpt>
   <trkpt lat="46.2112808227539" lon="6.98169612884522">
    <ele>791.200012207031</ele>
    <time>2012-03-15T16:28:12Z</time>
   </trkpt>
   <trkpt lat="46.211296081543" lon="6.9816632270813">
    <ele>791.200012207031</ele>
    <time>2012-03-15T16:28:13Z</time>
   </trkpt>
   <trkpt lat="46.2113304138184" lon="6.98160791397095">
    <ele>791.725036621094</ele>
    <time>2012-03-15T16:28:15Z</time>
   </trkpt>
   <trkpt lat="46.2113456726074" lon="6.98157453536987">
    <ele>791.987487792969</ele>
    <time>2012-03-15T16:28:16Z</time>
   </trkpt>
   <trkpt lat="46.2113647460938" lon="6.98154258728027">
    <ele>792.25</ele>
    <time>2012-03-15T16:28:17Z</time>
   </trkpt>
   <trkpt lat="46.2113800048828" lon="6.98151159286499">
    <ele>792.512512207031</ele>
    <time>2012-03-15T16:28:18Z</time>
   </trkpt>
   <trkpt lat="46.2115097045898" lon="6.98131084442139">
    <ele>794.350036621094</ele>
    <time>2012-03-15T16:28:25Z</time>
   </trkpt>
   <trkpt lat="46.2115287780762" lon="6.98128080368042">
    <ele>794.612548828125</ele>
    <time>2012-03-15T16:28:26Z</time>
   </trkpt>
   <trkpt lat="46.2115478515625" lon="6.9812502861023">
    <ele>794.875</ele>
    <time>2012-03-15T16:28:27Z</time>
   </trkpt>
   <trkpt lat="46.2115669250488" lon="6.98122119903564">
    <ele>795.137512207031</ele>
    <time>2012-03-15T16:28:28Z</time>
   </trkpt>
   <trkpt lat="46.2115859985352" lon="6.98119020462036">
    <ele>795.400024414062</ele>
    <time>2012-03-15T16:28:29Z</time>
   </trkpt>
   <trkpt lat="46.2116355895996" lon="6.98108005523682">
    <ele>795.400024414062</ele>
    <time>2012-03-15T16:28:32Z</time>
   </trkpt>
   <trkpt lat="46.2117500305176" lon="6.98090839385986">
    <ele>796.246154785156</ele>
    <time>2012-03-15T16:28:37Z</time>
   </trkpt>
   <trkpt lat="46.2118186950684" lon="6.98079586029053">
    <ele>796.753845214844</ele>
    <time>2012-03-15T16:28:40Z</time>
   </trkpt>
   <trkpt lat="46.2118682861328" lon="6.98072099685669">
    <ele>797.09228515625</ele>
    <time>2012-03-15T16:28:42Z</time>
   </trkpt>
   <trkpt lat="46.2118949890137" lon="6.98067951202393">
    <ele>797.261535644531</ele>
    <time>2012-03-15T16:28:43Z</time>
   </trkpt>
   <trkpt lat="46.2119216918945" lon="6.98063373565674">
    <ele>797.430725097656</ele>
    <time>2012-03-15T16:28:44Z</time>
   </trkpt>
   <trkpt lat="46.2119560241699" lon="6.9805965423584">
    <ele>797.599975585938</ele>
    <time>2012-03-15T16:28:45Z</time>
   </trkpt>
   <trkpt lat="46.2120170593262" lon="6.98051691055298">
    <ele>797.599975585938</ele>
    <time>2012-03-15T16:28:47Z</time>
   </trkpt>
   <trkpt lat="46.2122116088867" lon="6.98023366928101">
    <ele>798.474975585938</ele>
    <time>2012-03-15T16:28:54Z</time>
   </trkpt>
   <trkpt lat="46.2123374938965" lon="6.98005676269531">
    <ele>799.099975585938</ele>
    <time>2012-03-15T16:28:59Z</time>
   </trkpt>
   <trkpt lat="46.2123680114746" lon="6.9800238609314">
    <ele>799.224975585938</ele>
    <time>2012-03-15T16:29:00Z</time>
   </trkpt>
   <trkpt lat="46.2123908996582" lon="6.97998809814453">
    <ele>799.349975585938</ele>
    <time>2012-03-15T16:29:01Z</time>
   </trkpt>
   <trkpt lat="46.2124176025391" lon="6.97995471954346">
    <ele>799.474975585938</ele>
    <time>2012-03-15T16:29:02Z</time>
   </trkpt>
   <trkpt lat="46.2124404907227" lon="6.97991561889648">
    <ele>799.599975585938</ele>
    <time>2012-03-15T16:29:03Z</time>
   </trkpt>
   <trkpt lat="46.2125396728516" lon="6.9797887802124">
    <ele>799.599975585938</ele>
    <time>2012-03-15T16:29:07Z</time>
   </trkpt>
   <trkpt lat="46.2126655578613" lon="6.97962045669556">
    <ele>801.152954101562</ele>
    <time>2012-03-15T16:29:13Z</time>
   </trkpt>
   <trkpt lat="46.2126884460449" lon="6.97959136962891">
    <ele>801.411743164062</ele>
    <time>2012-03-15T16:29:14Z</time>
   </trkpt>
   <trkpt lat="46.2127113342285" lon="6.97955942153931">
    <ele>801.670593261719</ele>
    <time>2012-03-15T16:29:15Z</time>
   </trkpt>
   <trkpt lat="46.2127265930176" lon="6.97952890396118">
    <ele>801.929382324219</ele>
    <time>2012-03-15T16:29:16Z</time>
   </trkpt>
   <trkpt lat="46.2127494812012" lon="6.97949886322022">
    <ele>802.188232421875</ele>
    <time>2012-03-15T16:29:17Z</time>
   </trkpt>
   <trkpt lat="46.2127876281738" lon="6.97945070266724">
    <ele>802.705871582031</ele>
    <time>2012-03-15T16:29:19Z</time>
   </trkpt>
   <trkpt lat="46.2128028869629" lon="6.97942686080933">
    <ele>802.964721679688</ele>
    <time>2012-03-15T16:29:20Z</time>
   </trkpt>
   <trkpt lat="46.2128219604492" lon="6.97940063476562">
    <ele>803.223510742188</ele>
    <time>2012-03-15T16:29:21Z</time>
   </trkpt>
   <trkpt lat="46.2128410339356" lon="6.97937154769898">
    <ele>803.482360839844</ele>
    <time>2012-03-15T16:29:22Z</time>
   </trkpt>
   <trkpt lat="46.2128601074219" lon="6.97934627532959">
    <ele>803.741149902344</ele>
    <time>2012-03-15T16:29:23Z</time>
   </trkpt>
   <trkpt lat="46.212963104248" lon="6.97918701171875">
    <ele>805.294128417969</ele>
    <time>2012-03-15T16:29:29Z</time>
   </trkpt>
   <trkpt lat="46.2129745483398" lon="6.97915983200073">
    <ele>805.552978515625</ele>
    <time>2012-03-15T16:29:30Z</time>
   </trkpt>
   <trkpt lat="46.2129898071289" lon="6.97913360595703">
    <ele>805.811767578125</ele>
    <time>2012-03-15T16:29:31Z</time>
   </trkpt>
   <trkpt lat="46.213005065918" lon="6.97910451889038">
    <ele>806.070617675781</ele>
    <time>2012-03-15T16:29:32Z</time>
   </trkpt>
   <trkpt lat="46.2130851745606" lon="6.97898483276367">
    <ele>807.36474609375</ele>
    <time>2012-03-15T16:29:37Z</time>
   </trkpt>
   <trkpt lat="46.2131042480469" lon="6.97895765304565">
    <ele>807.62353515625</ele>
    <time>2012-03-15T16:29:38Z</time>
   </trkpt>
   <trkpt lat="46.2131195068359" lon="6.9789309501648">
    <ele>807.882385253906</ele>
    <time>2012-03-15T16:29:39Z</time>
   </trkpt>
   <trkpt lat="46.213134765625" lon="6.97890996932983">
    <ele>808.141174316406</ele>
    <time>2012-03-15T16:29:40Z</time>
   </trkpt>
   <trkpt lat="46.2131538391113" lon="6.97889184951782">
    <ele>808.400024414062</ele>
    <time>2012-03-15T16:29:41Z</time>
   </trkpt>
   <trkpt lat="46.213191986084" lon="6.9788498878479">
    <ele>808.400024414062</ele>
    <time>2012-03-15T16:29:43Z</time>
   </trkpt>
   <trkpt lat="46.2132415771484" lon="6.97879600524902">
    <ele>809.257141113281</ele>
    <time>2012-03-15T16:29:46Z</time>
   </trkpt>
   <trkpt lat="46.2132530212402" lon="6.9787802696228">
    <ele>809.542907714844</ele>
    <time>2012-03-15T16:29:47Z</time>
   </trkpt>
   <trkpt lat="46.2132682800293" lon="6.97875642776489">
    <ele>809.82861328125</ele>
    <time>2012-03-15T16:29:48Z</time>
   </trkpt>
   <trkpt lat="46.2132873535156" lon="6.97873067855835">
    <ele>810.114318847656</ele>
    <time>2012-03-15T16:29:49Z</time>
   </trkpt>
   <trkpt lat="46.213306427002" lon="6.97870445251465">
    <ele>810.400024414062</ele>
    <time>2012-03-15T16:29:50Z</time>
   </trkpt>
   <trkpt lat="46.2133903503418" lon="6.97862911224365">
    <ele>810.400024414062</ele>
    <time>2012-03-15T16:29:54Z</time>
   </trkpt>
   <trkpt lat="46.2134208679199" lon="6.97857475280762">
    <ele>810.986694335938</ele>
    <time>2012-03-15T16:29:56Z</time>
   </trkpt>
   <trkpt lat="46.213436126709" lon="6.97854375839233">
    <ele>811.280029296875</ele>
    <time>2012-03-15T16:29:57Z</time>
   </trkpt>
   <trkpt lat="46.2134552001953" lon="6.97851610183716">
    <ele>811.573364257812</ele>
    <time>2012-03-15T16:29:58Z</time>
   </trkpt>
   <trkpt lat="46.2134742736816" lon="6.9784836769104">
    <ele>811.86669921875</ele>
    <time>2012-03-15T16:29:59Z</time>
   </trkpt>
   <trkpt lat="46.2134857177734" lon="6.97845411300659">
    <ele>812.160034179688</ele>
    <time>2012-03-15T16:30:00Z</time>
   </trkpt>
   <trkpt lat="46.2135162353516" lon="6.97827816009522">
    <ele>813.626647949219</ele>
    <time>2012-03-15T16:30:05Z</time>
   </trkpt>
   <trkpt lat="46.2135238647461" lon="6.97824668884277">
    <ele>813.919982910156</ele>
    <time>2012-03-15T16:30:06Z</time>
   </trkpt>
   <trkpt lat="46.2135238647461" lon="6.97821521759033">
    <ele>814.213317871094</ele>
    <time>2012-03-15T16:30:07Z</time>
   </trkpt>
   <trkpt lat="46.2135238647461" lon="6.97818470001221">
    <ele>814.506652832031</ele>
    <time>2012-03-15T16:30:08Z</time>
   </trkpt>
   <trkpt lat="46.2135314941406" lon="6.97816324234009">
    <ele>814.799987792969</ele>
    <time>2012-03-15T16:30:09Z</time>
   </trkpt>
   <trkpt lat="46.2135276794434" lon="6.97812843322754">
    <ele>814.799987792969</ele>
    <time>2012-03-15T16:30:10Z</time>
   </trkpt>
   <trkpt lat="46.213508605957" lon="6.97809457778931">
    <ele>815.080017089844</ele>
    <time>2012-03-15T16:30:11Z</time>
   </trkpt>
   <trkpt lat="46.2134742736816" lon="6.97796058654785">
    <ele>816.200012207031</ele>
    <time>2012-03-15T16:30:15Z</time>
   </trkpt>
   <trkpt lat="46.2134590148926" lon="6.97793245315552">
    <ele>816.47998046875</ele>
    <time>2012-03-15T16:30:16Z</time>
   </trkpt>
   <trkpt lat="46.2134552001953" lon="6.9778995513916">
    <ele>816.760009765625</ele>
    <time>2012-03-15T16:30:17Z</time>
   </trkpt>
   <trkpt lat="46.2134437561035" lon="6.97786951065064">
    <ele>817.039978027344</ele>
    <time>2012-03-15T16:30:18Z</time>
   </trkpt>
   <trkpt lat="46.213451385498" lon="6.97785043716431">
    <ele>817.320007324219</ele>
    <time>2012-03-15T16:30:19Z</time>
   </trkpt>
   <trkpt lat="46.213451385498" lon="6.97779273986816">
    <ele>817.880004882812</ele>
    <time>2012-03-15T16:30:21Z</time>
   </trkpt>
   <trkpt lat="46.2134628295898" lon="6.97778129577637">
    <ele>818.159973144531</ele>
    <time>2012-03-15T16:30:22Z</time>
   </trkpt>
   <trkpt lat="46.2134666442871" lon="6.97776031494141">
    <ele>818.440002441406</ele>
    <time>2012-03-15T16:30:23Z</time>
   </trkpt>
   <trkpt lat="46.2134704589844" lon="6.97774887084961">
    <ele>818.719970703125</ele>
    <time>2012-03-15T16:30:24Z</time>
   </trkpt>
   <trkpt lat="46.2134780883789" lon="6.97775173187256">
    <ele>819</ele>
    <time>2012-03-15T16:30:25Z</time>
   </trkpt>
   <trkpt lat="46.213493347168" lon="6.97774505615234">
    <ele>819</ele>
    <time>2012-03-15T16:30:26Z</time>
   </trkpt>
   <trkpt lat="46.2135238647461" lon="6.97773122787476">
    <ele>819.5</ele>
    <time>2012-03-15T16:30:28Z</time>
   </trkpt>
   <trkpt lat="46.2135467529297" lon="6.97771263122559">
    <ele>820</ele>
    <time>2012-03-15T16:30:30Z</time>
   </trkpt>
   <trkpt lat="46.2135581970215" lon="6.97770547866821">
    <ele>820.25</ele>
    <time>2012-03-15T16:30:31Z</time>
   </trkpt>
   <trkpt lat="46.2135734558106" lon="6.97770261764526">
    <ele>820.5</ele>
    <time>2012-03-15T16:30:32Z</time>
   </trkpt>
   <trkpt lat="46.2135848999023" lon="6.97769117355347">
    <ele>820.75</ele>
    <time>2012-03-15T16:30:33Z</time>
   </trkpt>
   <trkpt lat="46.2135963439941" lon="6.97768926620483">
    <ele>821</ele>
    <time>2012-03-15T16:30:34Z</time>
   </trkpt>
   <trkpt lat="46.2136192321777" lon="6.97768688201904">
    <ele>821</ele>
    <time>2012-03-15T16:30:35Z</time>
   </trkpt>
   <trkpt lat="46.2136688232422" lon="6.97765207290649">
    <ele>822.226684570312</ele>
    <time>2012-03-15T16:30:39Z</time>
   </trkpt>
   <trkpt lat="46.2136993408203" lon="6.97762775421143">
    <ele>822.533325195312</ele>
    <time>2012-03-15T16:30:40Z</time>
   </trkpt>
   <trkpt lat="46.2137184143066" lon="6.97760200500488">
    <ele>822.839965820312</ele>
    <time>2012-03-15T16:30:41Z</time>
   </trkpt>
   <trkpt lat="46.2137489318848" lon="6.97757625579834">
    <ele>823.146667480469</ele>
    <time>2012-03-15T16:30:42Z</time>
   </trkpt>
   <trkpt lat="46.2137718200684" lon="6.9775562286377">
    <ele>823.453308105469</ele>
    <time>2012-03-15T16:30:43Z</time>
   </trkpt>
   <trkpt lat="46.2138710021973" lon="6.97749757766724">
    <ele>824.373291015625</ele>
    <time>2012-03-15T16:30:46Z</time>
   </trkpt>
   <trkpt lat="46.2138862609863" lon="6.97748565673828">
    <ele>824.679992675781</ele>
    <time>2012-03-15T16:30:47Z</time>
   </trkpt>
   <trkpt lat="46.2138938903809" lon="6.97747278213501">
    <ele>824.986633300781</ele>
    <time>2012-03-15T16:30:48Z</time>
   </trkpt>
   <trkpt lat="46.2139091491699" lon="6.97746658325195">
    <ele>825.293334960938</ele>
    <time>2012-03-15T16:30:49Z</time>
   </trkpt>
   <trkpt lat="46.2139167785644" lon="6.97746753692627">
    <ele>825.599975585938</ele>
    <time>2012-03-15T16:30:50Z</time>
   </trkpt>
   <trkpt lat="46.2139282226562" lon="6.97744989395142">
    <ele>825.599975585938</ele>
    <time>2012-03-15T16:30:51Z</time>
   </trkpt>
   <trkpt lat="46.2139930725098" lon="6.97744035720825">
    <ele>826.433288574219</ele>
    <time>2012-03-15T16:30:56Z</time>
   </trkpt>
   <trkpt lat="46.2140464782715" lon="6.97740793228149">
    <ele>826.933288574219</ele>
    <time>2012-03-15T16:30:59Z</time>
   </trkpt>
   <trkpt lat="46.2140617370606" lon="6.97740030288696">
    <ele>827.099975585938</ele>
    <time>2012-03-15T16:31:00Z</time>
   </trkpt>
   <trkpt lat="46.2140769958496" lon="6.97739410400391">
    <ele>827.266662597656</ele>
    <time>2012-03-15T16:31:01Z</time>
   </trkpt>
   <trkpt lat="46.2140922546387" lon="6.97737979888916">
    <ele>827.433288574219</ele>
    <time>2012-03-15T16:31:02Z</time>
   </trkpt>
   <trkpt lat="46.2140998840332" lon="6.97738313674927">
    <ele>827.599975585938</ele>
    <time>2012-03-15T16:31:03Z</time>
   </trkpt>
   <trkpt lat="46.214241027832" lon="6.97729635238648">
    <ele>827.599975585938</ele>
    <time>2012-03-15T16:31:06Z</time>
   </trkpt>
   <trkpt lat="46.2143058776856" lon="6.9772744178772">
    <ele>828.47998046875</ele>
    <time>2012-03-15T16:31:08Z</time>
   </trkpt>
   <trkpt lat="46.2143249511719" lon="6.97726917266846">
    <ele>828.919982910156</ele>
    <time>2012-03-15T16:31:09Z</time>
   </trkpt>
   <trkpt lat="46.2143440246582" lon="6.9772629737854">
    <ele>829.359985351562</ele>
    <time>2012-03-15T16:31:10Z</time>
   </trkpt>
   <trkpt lat="46.2143707275391" lon="6.97725486755371">
    <ele>829.799987792969</ele>
    <time>2012-03-15T16:31:11Z</time>
   </trkpt>
   <trkpt lat="46.2144088745117" lon="6.97724866867065">
    <ele>829.799987792969</ele>
    <time>2012-03-15T16:31:13Z</time>
   </trkpt>
   <trkpt lat="46.2145652770996" lon="6.97713613510132">
    <ele>831</ele>
    <time>2012-03-15T16:31:19Z</time>
   </trkpt>
   <trkpt lat="46.2145957946777" lon="6.97711753845215">
    <ele>831.200012207031</ele>
    <time>2012-03-15T16:31:20Z</time>
   </trkpt>
   <trkpt lat="46.2146148681641" lon="6.97709894180298">
    <ele>831.399963378906</ele>
    <time>2012-03-15T16:31:21Z</time>
   </trkpt>
   <trkpt lat="46.2146377563477" lon="6.97707271575928">
    <ele>831.599975585938</ele>
    <time>2012-03-15T16:31:22Z</time>
   </trkpt>
   <trkpt lat="46.2146606445312" lon="6.97704744338989">
    <ele>831.799987792969</ele>
    <time>2012-03-15T16:31:23Z</time>
   </trkpt>
   <trkpt lat="46.2148017883301" lon="6.97692394256592">
    <ele>831.799987792969</ele>
    <time>2012-03-15T16:31:29Z</time>
   </trkpt>
   <trkpt lat="46.2148323059082" lon="6.97689628601074">
    <ele>832.200012207031</ele>
    <time>2012-03-15T16:31:30Z</time>
   </trkpt>
   <trkpt lat="46.2148628234863" lon="6.9768705368042">
    <ele>832.599975585938</ele>
    <time>2012-03-15T16:31:31Z</time>
   </trkpt>
   <trkpt lat="46.2148895263672" lon="6.97684669494629">
    <ele>833</ele>
    <time>2012-03-15T16:31:32Z</time>
   </trkpt>
   <trkpt lat="46.2149124145508" lon="6.97682428359985">
    <ele>833.399963378906</ele>
    <time>2012-03-15T16:31:33Z</time>
   </trkpt>
   <trkpt lat="46.2149696350098" lon="6.97679233551025">
    <ele>833.799987792969</ele>
    <time>2012-03-15T16:31:34Z</time>
   </trkpt>
   <trkpt lat="46.2150268554688" lon="6.97674369812012">
    <ele>833.799987792969</ele>
    <time>2012-03-15T16:31:36Z</time>
   </trkpt>
   <trkpt lat="46.2151107788086" lon="6.97664070129394">
    <ele>834.900024414062</ele>
    <time>2012-03-15T16:31:40Z</time>
   </trkpt>
   <trkpt lat="46.2151260375977" lon="6.97661447525024">
    <ele>835.174987792969</ele>
    <time>2012-03-15T16:31:41Z</time>
   </trkpt>
   <trkpt lat="46.2151374816894" lon="6.97659111022949">
    <ele>835.450012207031</ele>
    <time>2012-03-15T16:31:42Z</time>
   </trkpt>
   <trkpt lat="46.2151489257812" lon="6.97657632827759">
    <ele>835.724975585938</ele>
    <time>2012-03-15T16:31:43Z</time>
   </trkpt>
   <trkpt lat="46.2151679992676" lon="6.97655916213989">
    <ele>836</ele>
    <time>2012-03-15T16:31:44Z</time>
   </trkpt>
   <trkpt lat="46.215202331543" lon="6.97653102874756">
    <ele>836</ele>
    <time>2012-03-15T16:31:46Z</time>
   </trkpt>
   <trkpt lat="46.215217590332" lon="6.97650957107544">
    <ele>836.275024414062</ele>
    <time>2012-03-15T16:31:47Z</time>
   </trkpt>
   <trkpt lat="46.2152671813965" lon="6.97641849517822">
    <ele>837.099975585938</ele>
    <time>2012-03-15T16:31:50Z</time>
   </trkpt>
   <trkpt lat="46.2152824401856" lon="6.9763879776001">
    <ele>837.375</ele>
    <time>2012-03-15T16:31:51Z</time>
   </trkpt>
   <trkpt lat="46.2153015136719" lon="6.9763593673706">
    <ele>837.650024414062</ele>
    <time>2012-03-15T16:31:52Z</time>
   </trkpt>
   <trkpt lat="46.2153167724609" lon="6.97633457183838">
    <ele>837.924987792969</ele>
    <time>2012-03-15T16:31:53Z</time>
   </trkpt>
   <trkpt lat="46.2153396606445" lon="6.97631311416626">
    <ele>838.200012207031</ele>
    <time>2012-03-15T16:31:54Z</time>
   </trkpt>
   <trkpt lat="46.2154006958008" lon="6.97626829147339">
    <ele>838.200012207031</ele>
    <time>2012-03-15T16:31:58Z</time>
   </trkpt>
   <trkpt lat="46.2154159545898" lon="6.97625732421875">
    <ele>838.600036621094</ele>
    <time>2012-03-15T16:31:59Z</time>
   </trkpt>
   <trkpt lat="46.2154388427734" lon="6.97624206542969">
    <ele>839</ele>
    <time>2012-03-15T16:32:00Z</time>
   </trkpt>
   <trkpt lat="46.2154502868652" lon="6.97621965408325">
    <ele>839.400024414062</ele>
    <time>2012-03-15T16:32:01Z</time>
   </trkpt>
   <trkpt lat="46.2154693603516" lon="6.97620296478272">
    <ele>839.799987792969</ele>
    <time>2012-03-15T16:32:02Z</time>
   </trkpt>
   <trkpt lat="46.2154846191406" lon="6.97618246078491">
    <ele>840.200012207031</ele>
    <time>2012-03-15T16:32:03Z</time>
   </trkpt>
   <trkpt lat="46.2154998779297" lon="6.9761552810669">
    <ele>840.200012207031</ele>
    <time>2012-03-15T16:32:04Z</time>
   </trkpt>
   <trkpt lat="46.2155876159668" lon="6.97604322433472">
    <ele>841.422241210938</ele>
    <time>2012-03-15T16:32:09Z</time>
   </trkpt>
   <trkpt lat="46.2156028747559" lon="6.97603034973144">
    <ele>841.666687011719</ele>
    <time>2012-03-15T16:32:10Z</time>
   </trkpt>
   <trkpt lat="46.2156105041504" lon="6.97600507736206">
    <ele>841.9111328125</ele>
    <time>2012-03-15T16:32:11Z</time>
   </trkpt>
   <trkpt lat="46.2156219482422" lon="6.97599029541016">
    <ele>842.155578613281</ele>
    <time>2012-03-15T16:32:12Z</time>
   </trkpt>
   <trkpt lat="46.2156372070312" lon="6.97597932815552">
    <ele>842.400024414062</ele>
    <time>2012-03-15T16:32:13Z</time>
   </trkpt>
   <trkpt lat="46.215648651123" lon="6.97596502304077">
    <ele>842.400024414062</ele>
    <time>2012-03-15T16:32:14Z</time>
   </trkpt>
   <trkpt lat="46.2157974243164" lon="6.9757981300354">
    <ele>843.600036621094</ele>
    <time>2012-03-15T16:32:20Z</time>
   </trkpt>
   <trkpt lat="46.2158241271973" lon="6.97577953338623">
    <ele>843.800048828125</ele>
    <time>2012-03-15T16:32:21Z</time>
   </trkpt>
   <trkpt lat="46.2158508300781" lon="6.97575616836548">
    <ele>844</ele>
    <time>2012-03-15T16:32:22Z</time>
   </trkpt>
   <trkpt lat="46.2159004211426" lon="6.97573232650757">
    <ele>844.200012207031</ele>
    <time>2012-03-15T16:32:23Z</time>
   </trkpt>
   <trkpt lat="46.2159309387207" lon="6.97571563720703">
    <ele>844.400024414062</ele>
    <time>2012-03-15T16:32:24Z</time>
   </trkpt>
   <trkpt lat="46.2160301208496" lon="6.97567462921143">
    <ele>844.400024414062</ele>
    <time>2012-03-15T16:32:28Z</time>
   </trkpt>
   <trkpt lat="46.2160606384277" lon="6.97566986083984">
    <ele>844.840026855469</ele>
    <time>2012-03-15T16:32:29Z</time>
   </trkpt>
   <trkpt lat="46.2160987854004" lon="6.97566032409668">
    <ele>845.280029296875</ele>
    <time>2012-03-15T16:32:30Z</time>
   </trkpt>
   <trkpt lat="46.2161331176758" lon="6.97564649581909">
    <ele>845.719970703125</ele>
    <time>2012-03-15T16:32:31Z</time>
   </trkpt>
   <trkpt lat="46.2161674499512" lon="6.97564172744751">
    <ele>846.159973144531</ele>
    <time>2012-03-15T16:32:32Z</time>
   </trkpt>
   <trkpt lat="46.216194152832" lon="6.97563743591309">
    <ele>846.599975585938</ele>
    <time>2012-03-15T16:32:33Z</time>
   </trkpt>
   <trkpt lat="46.2162246704102" lon="6.97563362121582">
    <ele>846.599975585938</ele>
    <time>2012-03-15T16:32:34Z</time>
   </trkpt>
   <trkpt lat="46.2163047790527" lon="6.97560405731201">
    <ele>847.260009765625</ele>
    <time>2012-03-15T16:32:37Z</time>
   </trkpt>
   <trkpt lat="46.2163543701172" lon="6.97558641433716">
    <ele>847.699951171875</ele>
    <time>2012-03-15T16:32:39Z</time>
   </trkpt>
   <trkpt lat="46.216381072998" lon="6.97557926177978">
    <ele>847.919982910156</ele>
    <time>2012-03-15T16:32:40Z</time>
   </trkpt>
   <trkpt lat="46.2164077758789" lon="6.97556447982788">
    <ele>848.140014648438</ele>
    <time>2012-03-15T16:32:41Z</time>
   </trkpt>
   <trkpt lat="46.2164344787598" lon="6.97555065155029">
    <ele>848.359985351562</ele>
    <time>2012-03-15T16:32:42Z</time>
   </trkpt>
   <trkpt lat="46.2164611816406" lon="6.97554206848144">
    <ele>848.579956054688</ele>
    <time>2012-03-15T16:32:43Z</time>
   </trkpt>
   <trkpt lat="46.2164840698242" lon="6.97552394866943">
    <ele>848.799987792969</ele>
    <time>2012-03-15T16:32:44Z</time>
   </trkpt>
   <trkpt lat="46.2165069580078" lon="6.9755072593689">
    <ele>848.799987792969</ele>
    <time>2012-03-15T16:32:45Z</time>
   </trkpt>
   <trkpt lat="46.2165832519531" lon="6.97540140151978">
    <ele>849.799987792969</ele>
    <time>2012-03-15T16:32:50Z</time>
   </trkpt>
   <trkpt lat="46.2165985107422" lon="6.9753737449646">
    <ele>850</ele>
    <time>2012-03-15T16:32:51Z</time>
   </trkpt>
   <trkpt lat="46.216609954834" lon="6.97534227371216">
    <ele>850.200012207031</ele>
    <time>2012-03-15T16:32:52Z</time>
   </trkpt>
   <trkpt lat="46.2166328430176" lon="6.97531318664551">
    <ele>850.399963378906</ele>
    <time>2012-03-15T16:32:53Z</time>
   </trkpt>
   <trkpt lat="46.2166481018066" lon="6.97528839111328">
    <ele>850.599975585938</ele>
    <time>2012-03-15T16:32:54Z</time>
   </trkpt>
   <trkpt lat="46.2166748046875" lon="6.97526168823242">
    <ele>850.799987792969</ele>
    <time>2012-03-15T16:32:55Z</time>
   </trkpt>
   <trkpt lat="46.2167205810547" lon="6.9752197265625">
    <ele>850.799987792969</ele>
    <time>2012-03-15T16:32:57Z</time>
   </trkpt>
   <trkpt lat="46.2168655395508" lon="6.97506952285767">
    <ele>852.200012207031</ele>
    <time>2012-03-15T16:33:04Z</time>
   </trkpt>
   <trkpt lat="46.2168807983398" lon="6.97506237030029">
    <ele>852.400024414062</ele>
    <time>2012-03-15T16:33:05Z</time>
   </trkpt>
   <trkpt lat="46.2168884277344" lon="6.97505283355713">
    <ele>852.599975585938</ele>
    <time>2012-03-15T16:33:06Z</time>
   </trkpt>
   <trkpt lat="46.2168998718262" lon="6.97505140304565">
    <ele>852.799987792969</ele>
    <time>2012-03-15T16:33:07Z</time>
   </trkpt>
   <trkpt lat="46.216911315918" lon="6.9750452041626">
    <ele>853</ele>
    <time>2012-03-15T16:33:08Z</time>
   </trkpt>
   <trkpt lat="46.216926574707" lon="6.97504997253418">
    <ele>853</ele>
    <time>2012-03-15T16:33:09Z</time>
   </trkpt>
   <trkpt lat="46.2169952392578" lon="6.97507858276367">
    <ele>854.099975585938</ele>
    <time>2012-03-15T16:33:13Z</time>
   </trkpt>
   <trkpt lat="46.2170104980469" lon="6.97509098052978">
    <ele>854.375</ele>
    <time>2012-03-15T16:33:14Z</time>
   </trkpt>
   <trkpt lat="46.2170372009277" lon="6.97510480880737">
    <ele>854.650024414062</ele>
    <time>2012-03-15T16:33:15Z</time>
   </trkpt>
   <trkpt lat="46.2170715332031" lon="6.97511529922485">
    <ele>854.924987792969</ele>
    <time>2012-03-15T16:33:16Z</time>
   </trkpt>
   <trkpt lat="46.217227935791" lon="6.97508811950684">
    <ele>856.300048828125</ele>
    <time>2012-03-15T16:33:21Z</time>
   </trkpt>
   <trkpt lat="46.2172584533691" lon="6.97508907318115">
    <ele>856.575012207031</ele>
    <time>2012-03-15T16:33:22Z</time>
   </trkpt>
   <trkpt lat="46.21728515625" lon="6.97509527206421">
    <ele>856.850036621094</ele>
    <time>2012-03-15T16:33:23Z</time>
   </trkpt>
   <trkpt lat="46.2173080444336" lon="6.97508811950684">
    <ele>857.125</ele>
    <time>2012-03-15T16:33:24Z</time>
   </trkpt>
   <trkpt lat="46.2173194885254" lon="6.97507858276367">
    <ele>857.400024414062</ele>
    <time>2012-03-15T16:33:25Z</time>
   </trkpt>
   <trkpt lat="46.2173347473144" lon="6.97505950927734">
    <ele>857.400024414062</ele>
    <time>2012-03-15T16:33:26Z</time>
   </trkpt>
   <trkpt lat="46.2174263000488" lon="6.97502994537354">
    <ele>858.511108398438</ele>
    <time>2012-03-15T16:33:31Z</time>
   </trkpt>
   <trkpt lat="46.2174415588379" lon="6.97501707077026">
    <ele>858.733337402344</ele>
    <time>2012-03-15T16:33:32Z</time>
   </trkpt>
   <trkpt lat="46.217456817627" lon="6.97501087188721">
    <ele>858.95556640625</ele>
    <time>2012-03-15T16:33:33Z</time>
   </trkpt>
   <trkpt lat="46.217472076416" lon="6.97499847412109">
    <ele>859.177795410156</ele>
    <time>2012-03-15T16:33:34Z</time>
   </trkpt>
   <trkpt lat="46.2174949645996" lon="6.97499370574951">
    <ele>859.400024414062</ele>
    <time>2012-03-15T16:33:35Z</time>
   </trkpt>
   <trkpt lat="46.2175140380859" lon="6.97498655319214">
    <ele>859.400024414062</ele>
    <time>2012-03-15T16:33:36Z</time>
   </trkpt>
   <trkpt lat="46.2175369262695" lon="6.9749698638916">
    <ele>860.342834472656</ele>
    <time>2012-03-15T16:33:39Z</time>
   </trkpt>
   <trkpt lat="46.2175559997559" lon="6.97496557235718">
    <ele>860.657165527344</ele>
    <time>2012-03-15T16:33:40Z</time>
   </trkpt>
   <trkpt lat="46.2175674438477" lon="6.97495460510254">
    <ele>860.971435546875</ele>
    <time>2012-03-15T16:33:41Z</time>
   </trkpt>
   <trkpt lat="46.217586517334" lon="6.97495937347412">
    <ele>861.285705566406</ele>
    <time>2012-03-15T16:33:42Z</time>
   </trkpt>
   <trkpt lat="46.2176055908203" lon="6.97495079040527">
    <ele>861.599975585938</ele>
    <time>2012-03-15T16:33:43Z</time>
   </trkpt>
   <trkpt lat="46.217658996582" lon="6.97492933273315">
    <ele>861.599975585938</ele>
    <time>2012-03-15T16:33:46Z</time>
   </trkpt>
   <trkpt lat="46.2176856994629" lon="6.97492170333862">
    <ele>862.246154785156</ele>
    <time>2012-03-15T16:33:48Z</time>
   </trkpt>
   <trkpt lat="46.2177124023438" lon="6.97490739822388">
    <ele>862.569213867188</ele>
    <time>2012-03-15T16:33:49Z</time>
   </trkpt>
   <trkpt lat="46.2177238464356" lon="6.97490310668945">
    <ele>862.892272949219</ele>
    <time>2012-03-15T16:33:50Z</time>
   </trkpt>
   <trkpt lat="46.2177238464356" lon="6.97489213943482">
    <ele>863.215393066406</ele>
    <time>2012-03-15T16:33:51Z</time>
   </trkpt>
   <trkpt lat="46.2177238464356" lon="6.97489213943482">
    <ele>863.538452148438</ele>
    <time>2012-03-15T16:33:52Z</time>
   </trkpt>
   <trkpt lat="46.2178153991699" lon="6.97487449645996">
    <ele>864.507690429688</ele>
    <time>2012-03-15T16:33:55Z</time>
   </trkpt>
   <trkpt lat="46.217845916748" lon="6.97485971450806">
    <ele>864.830749511719</ele>
    <time>2012-03-15T16:33:56Z</time>
   </trkpt>
   <trkpt lat="46.2178726196289" lon="6.97485303878784">
    <ele>865.15380859375</ele>
    <time>2012-03-15T16:33:57Z</time>
   </trkpt>
   <trkpt lat="46.2178916931152" lon="6.97482872009277">
    <ele>865.476928710938</ele>
    <time>2012-03-15T16:33:58Z</time>
   </trkpt>
   <trkpt lat="46.2179183959961" lon="6.97481489181518">
    <ele>865.799987792969</ele>
    <time>2012-03-15T16:33:59Z</time>
   </trkpt>
   <trkpt lat="46.2179412841797" lon="6.97480869293213">
    <ele>865.799987792969</ele>
    <time>2012-03-15T16:34:00Z</time>
   </trkpt>
   <trkpt lat="46.2180633544922" lon="6.97472953796387">
    <ele>866.527282714844</ele>
    <time>2012-03-15T16:34:04Z</time>
   </trkpt>
   <trkpt lat="46.2180938720703" lon="6.97472476959228">
    <ele>866.709106445312</ele>
    <time>2012-03-15T16:34:05Z</time>
   </trkpt>
   <trkpt lat="46.2181434631348" lon="6.97472620010376">
    <ele>867.072692871094</ele>
    <time>2012-03-15T16:34:07Z</time>
   </trkpt>
   <trkpt lat="46.2181549072266" lon="6.97472858428955">
    <ele>867.254516601562</ele>
    <time>2012-03-15T16:34:08Z</time>
   </trkpt>
   <trkpt lat="46.2181663513184" lon="6.97473382949829">
    <ele>867.436340332031</ele>
    <time>2012-03-15T16:34:09Z</time>
   </trkpt>
   <trkpt lat="46.2181816101074" lon="6.97474145889282">
    <ele>867.6181640625</ele>
    <time>2012-03-15T16:34:10Z</time>
   </trkpt>
   <trkpt lat="46.2181930541992" lon="6.97474431991577">
    <ele>867.799987792969</ele>
    <time>2012-03-15T16:34:11Z</time>
   </trkpt>
   <trkpt lat="46.2182121276856" lon="6.97473478317261">
    <ele>867.799987792969</ele>
    <time>2012-03-15T16:34:12Z</time>
   </trkpt>
   <trkpt lat="46.2183647155762" lon="6.97465801239014">
    <ele>868.900024414062</ele>
    <time>2012-03-15T16:34:17Z</time>
   </trkpt>
   <trkpt lat="46.2183990478516" lon="6.97463321685791">
    <ele>869.119995117188</ele>
    <time>2012-03-15T16:34:18Z</time>
   </trkpt>
   <trkpt lat="46.2184295654297" lon="6.97461128234863">
    <ele>869.339965820312</ele>
    <time>2012-03-15T16:34:19Z</time>
   </trkpt>
   <trkpt lat="46.2184677124023" lon="6.9745945930481">
    <ele>869.559997558594</ele>
    <time>2012-03-15T16:34:20Z</time>
   </trkpt>
   <trkpt lat="46.218505859375" lon="6.97457408905029">
    <ele>869.780029296875</ele>
    <time>2012-03-15T16:34:21Z</time>
   </trkpt>
   <trkpt lat="46.2185325622559" lon="6.97456789016724">
    <ele>870</ele>
    <time>2012-03-15T16:34:22Z</time>
   </trkpt>
   <trkpt lat="46.2185821533203" lon="6.97455644607544">
    <ele>870</ele>
    <time>2012-03-15T16:34:24Z</time>
   </trkpt>
   <trkpt lat="46.2186546325684" lon="6.97454881668091">
    <ele>870.857116699219</ele>
    <time>2012-03-15T16:34:27Z</time>
   </trkpt>
   <trkpt lat="46.2186737060547" lon="6.97453927993774">
    <ele>871.142883300781</ele>
    <time>2012-03-15T16:34:28Z</time>
   </trkpt>
   <trkpt lat="46.218692779541" lon="6.97454833984375">
    <ele>871.428588867188</ele>
    <time>2012-03-15T16:34:29Z</time>
   </trkpt>
   <trkpt lat="46.2187080383301" lon="6.97455072402954">
    <ele>871.714294433594</ele>
    <time>2012-03-15T16:34:30Z</time>
   </trkpt>
   <trkpt lat="46.2187919616699" lon="6.97456216812134">
    <ele>872.857116699219</ele>
    <time>2012-03-15T16:34:34Z</time>
   </trkpt>
   <trkpt lat="46.218807220459" lon="6.97455596923828">
    <ele>873.142883300781</ele>
    <time>2012-03-15T16:34:35Z</time>
   </trkpt>
   <trkpt lat="46.2188339233398" lon="6.97456216812134">
    <ele>873.428588867188</ele>
    <time>2012-03-15T16:34:36Z</time>
   </trkpt>
   <trkpt lat="46.2188491821289" lon="6.97456455230713">
    <ele>873.714294433594</ele>
    <time>2012-03-15T16:34:37Z</time>
   </trkpt>
   <trkpt lat="46.218864440918" lon="6.97456502914429">
    <ele>874</ele>
    <time>2012-03-15T16:34:38Z</time>
   </trkpt>
   <trkpt lat="46.2189331054688" lon="6.97457838058472">
    <ele>874</ele>
    <time>2012-03-15T16:34:41Z</time>
   </trkpt>
   <trkpt lat="46.2190093994141" lon="6.97454977035522">
    <ele>874.666687011719</ele>
    <time>2012-03-15T16:34:43Z</time>
   </trkpt>
   <trkpt lat="46.2190399169922" lon="6.97454690933228">
    <ele>875</ele>
    <time>2012-03-15T16:34:44Z</time>
   </trkpt>
   <trkpt lat="46.2190551757812" lon="6.97454929351807">
    <ele>875.333312988281</ele>
    <time>2012-03-15T16:34:45Z</time>
   </trkpt>
   <trkpt lat="46.219066619873" lon="6.97455644607544">
    <ele>875.666687011719</ele>
    <time>2012-03-15T16:34:46Z</time>
   </trkpt>
   <trkpt lat="46.2190818786621" lon="6.97456121444702">
    <ele>876</ele>
    <time>2012-03-15T16:34:47Z</time>
   </trkpt>
   <trkpt lat="46.219108581543" lon="6.97454738616943">
    <ele>876</ele>
    <time>2012-03-15T16:34:48Z</time>
   </trkpt>
   <trkpt lat="46.2191772460938" lon="6.97449445724487">
    <ele>876.825012207031</ele>
    <time>2012-03-15T16:34:51Z</time>
   </trkpt>
   <trkpt lat="46.2192115783691" lon="6.9744610786438">
    <ele>877.375</ele>
    <time>2012-03-15T16:34:53Z</time>
   </trkpt>
   <trkpt lat="46.2192268371582" lon="6.97443914413452">
    <ele>877.650024414062</ele>
    <time>2012-03-15T16:34:54Z</time>
   </trkpt>
   <trkpt lat="46.2192459106445" lon="6.9744348526001">
    <ele>877.924987792969</ele>
    <time>2012-03-15T16:34:55Z</time>
   </trkpt>
   <trkpt lat="46.2192726135254" lon="6.97442197799683">
    <ele>878.200012207031</ele>
    <time>2012-03-15T16:34:56Z</time>
   </trkpt>
   <trkpt lat="46.2192993164062" lon="6.97440958023071">
    <ele>878.200012207031</ele>
    <time>2012-03-15T16:34:57Z</time>
   </trkpt>
   <trkpt lat="46.2194290161133" lon="6.97430801391602">
    <ele>879.311096191406</ele>
    <time>2012-03-15T16:35:02Z</time>
   </trkpt>
   <trkpt lat="46.2194442749023" lon="6.97429275512695">
    <ele>879.533325195312</ele>
    <time>2012-03-15T16:35:03Z</time>
   </trkpt>
   <trkpt lat="46.2194633483887" lon="6.9742865562439">
    <ele>879.755554199219</ele>
    <time>2012-03-15T16:35:04Z</time>
   </trkpt>
   <trkpt lat="46.2194709777832" lon="6.97427272796631">
    <ele>879.977783203125</ele>
    <time>2012-03-15T16:35:05Z</time>
   </trkpt>
   <trkpt lat="46.2194938659668" lon="6.97425651550293">
    <ele>880.200012207031</ele>
    <time>2012-03-15T16:35:06Z</time>
   </trkpt>
   <trkpt lat="46.219539642334" lon="6.97423648834228">
    <ele>880.200012207031</ele>
    <time>2012-03-15T16:35:08Z</time>
   </trkpt>
   <trkpt lat="46.2196197509766" lon="6.9742112159729">
    <ele>880.976501464844</ele>
    <time>2012-03-15T16:35:11Z</time>
   </trkpt>
   <trkpt lat="46.2196502685547" lon="6.97420120239258">
    <ele>881.235290527344</ele>
    <time>2012-03-15T16:35:12Z</time>
   </trkpt>
   <trkpt lat="46.2196578979492" lon="6.97419548034668">
    <ele>881.494140625</ele>
    <time>2012-03-15T16:35:13Z</time>
   </trkpt>
   <trkpt lat="46.2196731567383" lon="6.97419309616089">
    <ele>881.7529296875</ele>
    <time>2012-03-15T16:35:14Z</time>
   </trkpt>
   <trkpt lat="46.2196922302246" lon="6.97418308258057">
    <ele>882.011779785156</ele>
    <time>2012-03-15T16:35:15Z</time>
   </trkpt>
   <trkpt lat="46.2197952270508" lon="6.97414970397949">
    <ele>883.564697265625</ele>
    <time>2012-03-15T16:35:21Z</time>
   </trkpt>
   <trkpt lat="46.2198066711426" lon="6.97414064407349">
    <ele>883.823486328125</ele>
    <time>2012-03-15T16:35:22Z</time>
   </trkpt>
   <trkpt lat="46.2198219299316" lon="6.97412824630737">
    <ele>884.082336425781</ele>
    <time>2012-03-15T16:35:23Z</time>
   </trkpt>
   <trkpt lat="46.2198486328125" lon="6.97411870956421">
    <ele>884.341125488281</ele>
    <time>2012-03-15T16:35:24Z</time>
   </trkpt>
   <trkpt lat="46.2198638916016" lon="6.9741039276123">
    <ele>884.599975585938</ele>
    <time>2012-03-15T16:35:25Z</time>
   </trkpt>
   <trkpt lat="46.2199287414551" lon="6.9740629196167">
    <ele>884.599975585938</ele>
    <time>2012-03-15T16:35:27Z</time>
   </trkpt>
   <trkpt lat="46.2200164794922" lon="6.974036693573">
    <ele>885.457092285156</ele>
    <time>2012-03-15T16:35:30Z</time>
   </trkpt>
   <trkpt lat="46.2200393676758" lon="6.97402429580688">
    <ele>885.742858886719</ele>
    <time>2012-03-15T16:35:31Z</time>
   </trkpt>
   <trkpt lat="46.2200698852539" lon="6.97402286529541">
    <ele>886.028564453125</ele>
    <time>2012-03-15T16:35:32Z</time>
   </trkpt>
   <trkpt lat="46.2201194763184" lon="6.97400522232056">
    <ele>886.314270019531</ele>
    <time>2012-03-15T16:35:33Z</time>
   </trkpt>
   <trkpt lat="46.2201499938965" lon="6.97399044036865">
    <ele>886.599975585938</ele>
    <time>2012-03-15T16:35:34Z</time>
   </trkpt>
   <trkpt lat="46.2202377319336" lon="6.97396659851074">
    <ele>886.599975585938</ele>
    <time>2012-03-15T16:35:37Z</time>
   </trkpt>
   <trkpt lat="46.2202949523926" lon="6.97395515441894">
    <ele>887.47998046875</ele>
    <time>2012-03-15T16:35:39Z</time>
   </trkpt>
   <trkpt lat="46.2203178405762" lon="6.97395896911621">
    <ele>887.919982910156</ele>
    <time>2012-03-15T16:35:40Z</time>
   </trkpt>
   <trkpt lat="46.2203330993652" lon="6.97397089004517">
    <ele>888.359985351562</ele>
    <time>2012-03-15T16:35:41Z</time>
   </trkpt>
   <trkpt lat="46.2203521728516" lon="6.97397375106812">
    <ele>888.799987792969</ele>
    <time>2012-03-15T16:35:42Z</time>
   </trkpt>
   <trkpt lat="46.220401763916" lon="6.97398376464844">
    <ele>888.799987792969</ele>
    <time>2012-03-15T16:35:44Z</time>
   </trkpt>
   <trkpt lat="46.2204360961914" lon="6.97400140762329">
    <ele>889.399963378906</ele>
    <time>2012-03-15T16:35:46Z</time>
   </trkpt>
   <trkpt lat="46.2204475402832" lon="6.97401189804077">
    <ele>889.700012207031</ele>
    <time>2012-03-15T16:35:47Z</time>
   </trkpt>
   <trkpt lat="46.2204627990723" lon="6.97402143478394">
    <ele>890</ele>
    <time>2012-03-15T16:35:48Z</time>
   </trkpt>
   <trkpt lat="46.2204856872559" lon="6.97402763366699">
    <ele>890.299987792969</ele>
    <time>2012-03-15T16:35:49Z</time>
   </trkpt>
   <trkpt lat="46.220516204834" lon="6.9740252494812">
    <ele>890.599975585938</ele>
    <time>2012-03-15T16:35:50Z</time>
   </trkpt>
   <trkpt lat="46.2206726074219" lon="6.97398948669434">
    <ele>891.799987792969</ele>
    <time>2012-03-15T16:35:54Z</time>
   </trkpt>
   <trkpt lat="46.220703125" lon="6.9739818572998">
    <ele>892.099975585938</ele>
    <time>2012-03-15T16:35:55Z</time>
   </trkpt>
   <trkpt lat="46.2207221984863" lon="6.97398090362549">
    <ele>892.400024414062</ele>
    <time>2012-03-15T16:35:56Z</time>
   </trkpt>
   <trkpt lat="46.2207489013672" lon="6.97398805618286">
    <ele>892.700012207031</ele>
    <time>2012-03-15T16:35:57Z</time>
   </trkpt>
   <trkpt lat="46.2207717895508" lon="6.97398662567139">
    <ele>893</ele>
    <time>2012-03-15T16:35:58Z</time>
   </trkpt>
   <trkpt lat="46.2208480834961" lon="6.97400951385498">
    <ele>893</ele>
    <time>2012-03-15T16:36:02Z</time>
   </trkpt>
   <trkpt lat="46.2208862304688" lon="6.97400617599487">
    <ele>893.349975585938</ele>
    <time>2012-03-15T16:36:03Z</time>
   </trkpt>
   <trkpt lat="46.2208938598633" lon="6.97400665283203">
    <ele>893.700012207031</ele>
    <time>2012-03-15T16:36:04Z</time>
   </trkpt>
   <trkpt lat="46.2209167480469" lon="6.97400951385498">
    <ele>894.049987792969</ele>
    <time>2012-03-15T16:36:05Z</time>
   </trkpt>
   <trkpt lat="46.2209320068359" lon="6.97400808334351">
    <ele>894.400024414062</ele>
    <time>2012-03-15T16:36:06Z</time>
   </trkpt>
   <trkpt lat="46.2209587097168" lon="6.97401189804077">
    <ele>894.75</ele>
    <time>2012-03-15T16:36:07Z</time>
   </trkpt>
   <trkpt lat="46.221019744873" lon="6.97402763366699">
    <ele>895.799987792969</ele>
    <time>2012-03-15T16:36:10Z</time>
   </trkpt>
   <trkpt lat="46.2210273742676" lon="6.97403287887573">
    <ele>896.150024414062</ele>
    <time>2012-03-15T16:36:11Z</time>
   </trkpt>
   <trkpt lat="46.2210426330566" lon="6.97403049468994">
    <ele>896.5</ele>
    <time>2012-03-15T16:36:12Z</time>
   </trkpt>
   <trkpt lat="46.2210540771484" lon="6.97403478622436">
    <ele>896.850036621094</ele>
    <time>2012-03-15T16:36:13Z</time>
   </trkpt>
   <trkpt lat="46.2210807800293" lon="6.97402620315552">
    <ele>897.200012207031</ele>
    <time>2012-03-15T16:36:14Z</time>
   </trkpt>
   <trkpt lat="46.2211074829102" lon="6.97402954101562">
    <ele>897.200012207031</ele>
    <time>2012-03-15T16:36:15Z</time>
   </trkpt>
   <trkpt lat="46.2211494445801" lon="6.97405004501343">
    <ele>898.142883300781</ele>
    <time>2012-03-15T16:36:18Z</time>
   </trkpt>
   <trkpt lat="46.2211723327637" lon="6.97404623031616">
    <ele>898.457153320312</ele>
    <time>2012-03-15T16:36:19Z</time>
   </trkpt>
   <trkpt lat="46.2212066650391" lon="6.97403240203857">
    <ele>898.771423339844</ele>
    <time>2012-03-15T16:36:20Z</time>
   </trkpt>
   <trkpt lat="46.2212409973144" lon="6.97402191162109">
    <ele>899.085754394531</ele>
    <time>2012-03-15T16:36:21Z</time>
   </trkpt>
   <trkpt lat="46.2212753295898" lon="6.97400999069214">
    <ele>899.400024414062</ele>
    <time>2012-03-15T16:36:22Z</time>
   </trkpt>
   <trkpt lat="46.2213325500488" lon="6.97399139404297">
    <ele>899.400024414062</ele>
    <time>2012-03-15T16:36:24Z</time>
   </trkpt>
   <trkpt lat="46.2213973999023" lon="6.9739933013916">
    <ele>900.150024414062</ele>
    <time>2012-03-15T16:36:27Z</time>
   </trkpt>
   <trkpt lat="46.2214241027832" lon="6.97400140762329">
    <ele>900.650024414062</ele>
    <time>2012-03-15T16:36:29Z</time>
   </trkpt>
   <trkpt lat="46.2214469909668" lon="6.97399663925171">
    <ele>900.900024414062</ele>
    <time>2012-03-15T16:36:30Z</time>
   </trkpt>
   <trkpt lat="46.2214622497559" lon="6.97400712966919">
    <ele>901.150024414062</ele>
    <time>2012-03-15T16:36:31Z</time>
   </trkpt>
   <trkpt lat="46.2214851379394" lon="6.97398614883423">
    <ele>901.400024414062</ele>
    <time>2012-03-15T16:36:32Z</time>
   </trkpt>
   <trkpt lat="46.2215270996094" lon="6.97396516799927">
    <ele>901.400024414062</ele>
    <time>2012-03-15T16:36:33Z</time>
   </trkpt>
   <trkpt lat="46.2216987609863" lon="6.97388935089111">
    <ele>902.5</ele>
    <time>2012-03-15T16:36:37Z</time>
   </trkpt>
   <trkpt lat="46.221736907959" lon="6.97388172149658">
    <ele>902.775024414062</ele>
    <time>2012-03-15T16:36:38Z</time>
   </trkpt>
   <trkpt lat="46.2217636108398" lon="6.97386646270752">
    <ele>903.049987792969</ele>
    <time>2012-03-15T16:36:39Z</time>
   </trkpt>
   <trkpt lat="46.2217864990234" lon="6.9738621711731">
    <ele>903.324951171875</ele>
    <time>2012-03-15T16:36:40Z</time>
   </trkpt>
   <trkpt lat="46.2218055725098" lon="6.97386693954468">
    <ele>903.599975585938</ele>
    <time>2012-03-15T16:36:41Z</time>
   </trkpt>
   <trkpt lat="46.221851348877" lon="6.97386312484741">
    <ele>903.599975585938</ele>
    <time>2012-03-15T16:36:43Z</time>
   </trkpt>
   <trkpt lat="46.2218971252441" lon="6.97384357452393">
    <ele>904.542846679688</ele>
    <time>2012-03-15T16:36:46Z</time>
   </trkpt>
   <trkpt lat="46.221923828125" lon="6.97385025024414">
    <ele>904.857116699219</ele>
    <time>2012-03-15T16:36:47Z</time>
   </trkpt>
   <trkpt lat="46.2219734191894" lon="6.97382926940918">
    <ele>905.17138671875</ele>
    <time>2012-03-15T16:36:48Z</time>
   </trkpt>
   <trkpt lat="46.2220191955566" lon="6.97381544113159">
    <ele>905.485717773438</ele>
    <time>2012-03-15T16:36:49Z</time>
   </trkpt>
   <trkpt lat="46.2220420837402" lon="6.97381401062012">
    <ele>905.799987792969</ele>
    <time>2012-03-15T16:36:50Z</time>
   </trkpt>
   <trkpt lat="46.2222099304199" lon="6.97375392913818">
    <ele>905.799987792969</ele>
    <time>2012-03-15T16:36:55Z</time>
   </trkpt>
   <trkpt lat="46.222225189209" lon="6.97374773025513">
    <ele>906.299987792969</ele>
    <time>2012-03-15T16:36:56Z</time>
   </trkpt>
   <trkpt lat="46.222240447998" lon="6.97374248504639">
    <ele>906.799987792969</ele>
    <time>2012-03-15T16:36:57Z</time>
   </trkpt>
   <trkpt lat="46.2222633361816" lon="6.97373628616333">
    <ele>907.299987792969</ele>
    <time>2012-03-15T16:36:58Z</time>
   </trkpt>
   <trkpt lat="46.2222938537598" lon="6.97373247146606">
    <ele>907.799987792969</ele>
    <time>2012-03-15T16:36:59Z</time>
   </trkpt>
   <trkpt lat="46.222339630127" lon="6.97371435165405">
    <ele>907.799987792969</ele>
    <time>2012-03-15T16:37:01Z</time>
   </trkpt>
   <trkpt lat="46.2224388122559" lon="6.97368574142456">
    <ele>908.657104492188</ele>
    <time>2012-03-15T16:37:04Z</time>
   </trkpt>
   <trkpt lat="46.2224731445312" lon="6.97367238998413">
    <ele>908.94287109375</ele>
    <time>2012-03-15T16:37:05Z</time>
   </trkpt>
   <trkpt lat="46.2225227355957" lon="6.97365617752075">
    <ele>909.228576660156</ele>
    <time>2012-03-15T16:37:06Z</time>
   </trkpt>
   <trkpt lat="46.2225341796875" lon="6.97365093231201">
    <ele>909.514282226562</ele>
    <time>2012-03-15T16:37:07Z</time>
   </trkpt>
   <trkpt lat="46.2225685119629" lon="6.97363615036011">
    <ele>909.799987792969</ele>
    <time>2012-03-15T16:37:08Z</time>
   </trkpt>
   <trkpt lat="46.2227058410644" lon="6.9735860824585">
    <ele>909.799987792969</ele>
    <time>2012-03-15T16:37:12Z</time>
   </trkpt>
   <trkpt lat="46.2227325439453" lon="6.97357416152954">
    <ele>910.066650390625</ele>
    <time>2012-03-15T16:37:13Z</time>
   </trkpt>
   <trkpt lat="46.2227973937988" lon="6.97355365753174">
    <ele>910.599975585938</ele>
    <time>2012-03-15T16:37:15Z</time>
   </trkpt>
   <trkpt lat="46.2228202819824" lon="6.97354555130005">
    <ele>910.866638183594</ele>
    <time>2012-03-15T16:37:16Z</time>
   </trkpt>
   <trkpt lat="46.2228393554688" lon="6.97353744506836">
    <ele>911.13330078125</ele>
    <time>2012-03-15T16:37:17Z</time>
   </trkpt>
   <trkpt lat="46.2228775024414" lon="6.97353029251099">
    <ele>911.400024414062</ele>
    <time>2012-03-15T16:37:18Z</time>
   </trkpt>
   <trkpt lat="46.2229042053223" lon="6.97351598739624">
    <ele>911.666687011719</ele>
    <time>2012-03-15T16:37:19Z</time>
   </trkpt>
   <trkpt lat="46.2229919433594" lon="6.97349309921265">
    <ele>912.466674804688</ele>
    <time>2012-03-15T16:37:22Z</time>
   </trkpt>
   <trkpt lat="46.2230224609375" lon="6.97347402572632">
    <ele>912.733337402344</ele>
    <time>2012-03-15T16:37:23Z</time>
   </trkpt>
   <trkpt lat="46.2230453491211" lon="6.97346305847168">
    <ele>913</ele>
    <time>2012-03-15T16:37:24Z</time>
   </trkpt>
   <trkpt lat="46.223072052002" lon="6.97344779968262">
    <ele>913.266662597656</ele>
    <time>2012-03-15T16:37:25Z</time>
   </trkpt>
   <trkpt lat="46.2230987548828" lon="6.97343349456787">
    <ele>913.533325195312</ele>
    <time>2012-03-15T16:37:26Z</time>
   </trkpt>
   <trkpt lat="46.223258972168" lon="6.9733076095581">
    <ele>915.133361816406</ele>
    <time>2012-03-15T16:37:32Z</time>
   </trkpt>
   <trkpt lat="46.2232780456543" lon="6.97328758239746">
    <ele>915.400024414062</ele>
    <time>2012-03-15T16:37:33Z</time>
   </trkpt>
   <trkpt lat="46.2233047485352" lon="6.9732666015625">
    <ele>915.666687011719</ele>
    <time>2012-03-15T16:37:34Z</time>
   </trkpt>
   <trkpt lat="46.2233352661133" lon="6.97323894500732">
    <ele>915.933349609375</ele>
    <time>2012-03-15T16:37:35Z</time>
   </trkpt>
   <trkpt lat="46.2233657836914" lon="6.9732141494751">
    <ele>916.200012207031</ele>
    <time>2012-03-15T16:37:36Z</time>
   </trkpt>
   <trkpt lat="46.2234153747559" lon="6.97317218780518">
    <ele>916.200012207031</ele>
    <time>2012-03-15T16:37:38Z</time>
   </trkpt>
   <trkpt lat="46.2236366271973" lon="6.97304248809814">
    <ele>917.666687011719</ele>
    <time>2012-03-15T16:37:44Z</time>
   </trkpt>
   <trkpt lat="46.2236633300781" lon="6.97302198410034">
    <ele>917.9111328125</ele>
    <time>2012-03-15T16:37:45Z</time>
   </trkpt>
   <trkpt lat="46.2236862182617" lon="6.97300434112549">
    <ele>918.155578613281</ele>
    <time>2012-03-15T16:37:46Z</time>
   </trkpt>
   <trkpt lat="46.2237091064453" lon="6.97299098968506">
    <ele>918.400024414062</ele>
    <time>2012-03-15T16:37:47Z</time>
   </trkpt>
   <trkpt lat="46.2238159179688" lon="6.97293949127197">
    <ele>918.400024414062</ele>
    <time>2012-03-15T16:37:51Z</time>
   </trkpt>
   <trkpt lat="46.2238578796387" lon="6.97292470932007">
    <ele>919.133361816406</ele>
    <time>2012-03-15T16:37:53Z</time>
   </trkpt>
   <trkpt lat="46.2238807678223" lon="6.97292709350586">
    <ele>919.5</ele>
    <time>2012-03-15T16:37:54Z</time>
   </trkpt>
   <trkpt lat="46.2238998413086" lon="6.97292613983154">
    <ele>919.866638183594</ele>
    <time>2012-03-15T16:37:55Z</time>
   </trkpt>
   <trkpt lat="46.2239227294922" lon="6.97292232513428">
    <ele>920.233337402344</ele>
    <time>2012-03-15T16:37:56Z</time>
   </trkpt>
   <trkpt lat="46.2239418029785" lon="6.97291326522827">
    <ele>920.599975585938</ele>
    <time>2012-03-15T16:37:57Z</time>
   </trkpt>
   <trkpt lat="46.2239646911621" lon="6.97290802001953">
    <ele>920.599975585938</ele>
    <time>2012-03-15T16:37:58Z</time>
   </trkpt>
   <trkpt lat="46.2240371704102" lon="6.97287940979004">
    <ele>921.457092285156</ele>
    <time>2012-03-15T16:38:01Z</time>
   </trkpt>
   <trkpt lat="46.224063873291" lon="6.97286558151245">
    <ele>921.742858886719</ele>
    <time>2012-03-15T16:38:02Z</time>
   </trkpt>
   <trkpt lat="46.2240867614746" lon="6.97284746170044">
    <ele>922.028564453125</ele>
    <time>2012-03-15T16:38:03Z</time>
   </trkpt>
   <trkpt lat="46.2241134643555" lon="6.97282409667969">
    <ele>922.314270019531</ele>
    <time>2012-03-15T16:38:04Z</time>
   </trkpt>
   <trkpt lat="46.2241363525391" lon="6.97280883789062">
    <ele>922.599975585938</ele>
    <time>2012-03-15T16:38:05Z</time>
   </trkpt>
   <trkpt lat="46.2241554260254" lon="6.97278881072998">
    <ele>922.599975585938</ele>
    <time>2012-03-15T16:38:06Z</time>
   </trkpt>
   <trkpt lat="46.2242240905762" lon="6.97271871566772">
    <ele>923.699951171875</ele>
    <time>2012-03-15T16:38:10Z</time>
   </trkpt>
   <trkpt lat="46.224235534668" lon="6.97271013259888">
    <ele>923.974975585938</ele>
    <time>2012-03-15T16:38:11Z</time>
   </trkpt>
   <trkpt lat="46.224250793457" lon="6.97270679473877">
    <ele>924.25</ele>
    <time>2012-03-15T16:38:12Z</time>
   </trkpt>
   <trkpt lat="46.2242622375488" lon="6.97270345687866">
    <ele>924.524963378906</ele>
    <time>2012-03-15T16:38:13Z</time>
   </trkpt>
   <trkpt lat="46.2242774963379" lon="6.9726972579956">
    <ele>924.799987792969</ele>
    <time>2012-03-15T16:38:14Z</time>
   </trkpt>
   <trkpt lat="46.2243232727051" lon="6.97265863418579">
    <ele>924.799987792969</ele>
    <time>2012-03-15T16:38:17Z</time>
   </trkpt>
   <trkpt lat="46.2243385314941" lon="6.97264528274536">
    <ele>925.099975585938</ele>
    <time>2012-03-15T16:38:18Z</time>
   </trkpt>
   <trkpt lat="46.2243576049805" lon="6.97263717651367">
    <ele>925.399963378906</ele>
    <time>2012-03-15T16:38:19Z</time>
   </trkpt>
   <trkpt lat="46.2243804931641" lon="6.97262048721314">
    <ele>925.700012207031</ele>
    <time>2012-03-15T16:38:20Z</time>
   </trkpt>
   <trkpt lat="46.2244033813477" lon="6.97261381149292">
    <ele>926</ele>
    <time>2012-03-15T16:38:21Z</time>
   </trkpt>
   <trkpt lat="46.2244300842285" lon="6.9726071357727">
    <ele>926.299987792969</ele>
    <time>2012-03-15T16:38:22Z</time>
   </trkpt>
   <trkpt lat="46.2244529724121" lon="6.97260284423828">
    <ele>926.599975585938</ele>
    <time>2012-03-15T16:38:23Z</time>
   </trkpt>
   <trkpt lat="46.2245101928711" lon="6.97259521484375">
    <ele>927.799987792969</ele>
    <time>2012-03-15T16:38:27Z</time>
   </trkpt>
   <trkpt lat="46.2245292663574" lon="6.97259616851807">
    <ele>928.099975585938</ele>
    <time>2012-03-15T16:38:28Z</time>
   </trkpt>
   <trkpt lat="46.224552154541" lon="6.97259950637817">
    <ele>928.400024414062</ele>
    <time>2012-03-15T16:38:29Z</time>
   </trkpt>
   <trkpt lat="46.2245712280273" lon="6.97260284423828">
    <ele>928.700012207031</ele>
    <time>2012-03-15T16:38:30Z</time>
   </trkpt>
   <trkpt lat="46.2245941162109" lon="6.9726071357727">
    <ele>929</ele>
    <time>2012-03-15T16:38:31Z</time>
   </trkpt>
   <trkpt lat="46.2246513366699" lon="6.97260904312134">
    <ele>929</ele>
    <time>2012-03-15T16:38:33Z</time>
   </trkpt>
   <trkpt lat="46.2247314453125" lon="6.97261810302734">
    <ele>930.099975585938</ele>
    <time>2012-03-15T16:38:37Z</time>
   </trkpt>
   <trkpt lat="46.2247581481934" lon="6.97261714935303">
    <ele>930.375</ele>
    <time>2012-03-15T16:38:38Z</time>
   </trkpt>
   <trkpt lat="46.224781036377" lon="6.97261810302734">
    <ele>930.650024414062</ele>
    <time>2012-03-15T16:38:39Z</time>
   </trkpt>
   <trkpt lat="46.2248039245606" lon="6.97261714935303">
    <ele>930.924987792969</ele>
    <time>2012-03-15T16:38:40Z</time>
   </trkpt>
   <trkpt lat="46.2248268127441" lon="6.97261571884155">
    <ele>931.200012207031</ele>
    <time>2012-03-15T16:38:41Z</time>
   </trkpt>
   <trkpt lat="46.2249374389648" lon="6.97263669967651">
    <ele>931.200012207031</ele>
    <time>2012-03-15T16:38:45Z</time>
   </trkpt>
   <trkpt lat="46.2249717712402" lon="6.97264051437378">
    <ele>931.640014648438</ele>
    <time>2012-03-15T16:38:46Z</time>
   </trkpt>
   <trkpt lat="46.2249946594238" lon="6.97264575958252">
    <ele>932.080017089844</ele>
    <time>2012-03-15T16:38:47Z</time>
   </trkpt>
   <trkpt lat="46.2250175476074" lon="6.9726448059082">
    <ele>932.52001953125</ele>
    <time>2012-03-15T16:38:48Z</time>
   </trkpt>
   <trkpt lat="46.2250442504883" lon="6.9726448059082">
    <ele>932.960021972656</ele>
    <time>2012-03-15T16:38:49Z</time>
   </trkpt>
   <trkpt lat="46.2250785827637" lon="6.9726390838623">
    <ele>933.400024414062</ele>
    <time>2012-03-15T16:38:50Z</time>
   </trkpt>
   <trkpt lat="46.2252540588379" lon="6.97259473800659">
    <ele>933.400024414062</ele>
    <time>2012-03-15T16:38:55Z</time>
   </trkpt>
   <trkpt lat="46.225284576416" lon="6.97257661819458">
    <ele>933.800048828125</ele>
    <time>2012-03-15T16:38:56Z</time>
   </trkpt>
   <trkpt lat="46.2253265380859" lon="6.97255659103394">
    <ele>934.200012207031</ele>
    <time>2012-03-15T16:38:57Z</time>
   </trkpt>
   <trkpt lat="46.2253494262695" lon="6.97253608703613">
    <ele>934.600036621094</ele>
    <time>2012-03-15T16:38:58Z</time>
   </trkpt>
   <trkpt lat="46.2253723144531" lon="6.97251319885254">
    <ele>935</ele>
    <time>2012-03-15T16:38:59Z</time>
   </trkpt>
   <trkpt lat="46.2253837585449" lon="6.97249126434326">
    <ele>935.400024414062</ele>
    <time>2012-03-15T16:39:00Z</time>
   </trkpt>
   <trkpt lat="46.2253952026367" lon="6.97246599197388">
    <ele>935.400024414062</ele>
    <time>2012-03-15T16:39:01Z</time>
   </trkpt>
   <trkpt lat="46.2254104614258" lon="6.97243881225586">
    <ele>935.675048828125</ele>
    <time>2012-03-15T16:39:02Z</time>
   </trkpt>
   <trkpt lat="46.2254409790039" lon="6.97235774993896">
    <ele>936.5</ele>
    <time>2012-03-15T16:39:05Z</time>
   </trkpt>
   <trkpt lat="46.225456237793" lon="6.9723334312439">
    <ele>936.775024414062</ele>
    <time>2012-03-15T16:39:06Z</time>
   </trkpt>
   <trkpt lat="46.2254676818848" lon="6.9723072052002">
    <ele>937.049987792969</ele>
    <time>2012-03-15T16:39:07Z</time>
   </trkpt>
   <trkpt lat="46.2254829406738" lon="6.97227668762207">
    <ele>937.324951171875</ele>
    <time>2012-03-15T16:39:08Z</time>
   </trkpt>
   <trkpt lat="46.2255020141602" lon="6.97225141525268">
    <ele>937.599975585938</ele>
    <time>2012-03-15T16:39:09Z</time>
   </trkpt>
   <trkpt lat="46.225513458252" lon="6.97222566604614">
    <ele>937.599975585938</ele>
    <time>2012-03-15T16:39:10Z</time>
   </trkpt>
   <trkpt lat="46.2256126403809" lon="6.97214889526367">
    <ele>938.488891601562</ele>
    <time>2012-03-15T16:39:14Z</time>
   </trkpt>
   <trkpt lat="46.2256393432617" lon="6.97213268280029">
    <ele>938.711059570312</ele>
    <time>2012-03-15T16:39:15Z</time>
   </trkpt>
   <trkpt lat="46.2256622314453" lon="6.97211408615112">
    <ele>938.933288574219</ele>
    <time>2012-03-15T16:39:16Z</time>
   </trkpt>
   <trkpt lat="46.2256813049316" lon="6.97209930419922">
    <ele>939.155517578125</ele>
    <time>2012-03-15T16:39:17Z</time>
   </trkpt>
   <trkpt lat="46.2257041931152" lon="6.97208547592163">
    <ele>939.377746582031</ele>
    <time>2012-03-15T16:39:18Z</time>
   </trkpt>
   <trkpt lat="46.2257194519043" lon="6.97206735610962">
    <ele>939.599975585938</ele>
    <time>2012-03-15T16:39:19Z</time>
   </trkpt>
   <trkpt lat="46.2257423400879" lon="6.97205018997192">
    <ele>939.599975585938</ele>
    <time>2012-03-15T16:39:20Z</time>
   </trkpt>
   <trkpt lat="46.2258567810059" lon="6.97194623947144">
    <ele>940.849975585938</ele>
    <time>2012-03-15T16:39:25Z</time>
   </trkpt>
   <trkpt lat="46.2258682250977" lon="6.97190475463867">
    <ele>941.099975585938</ele>
    <time>2012-03-15T16:39:26Z</time>
   </trkpt>
   <trkpt lat="46.2258720397949" lon="6.97186326980591">
    <ele>941.349975585938</ele>
    <time>2012-03-15T16:39:27Z</time>
   </trkpt>
   <trkpt lat="46.2258796691894" lon="6.97182989120483">
    <ele>941.599975585938</ele>
    <time>2012-03-15T16:39:28Z</time>
   </trkpt>
   <trkpt lat="46.2259063720703" lon="6.97176647186279">
    <ele>941.599975585938</ele>
    <time>2012-03-15T16:39:32Z</time>
   </trkpt>
   <trkpt lat="46.2259216308594" lon="6.97176027297974">
    <ele>942.039978027344</ele>
    <time>2012-03-15T16:39:33Z</time>
   </trkpt>
   <trkpt lat="46.2259330749512" lon="6.97176027297974">
    <ele>942.47998046875</ele>
    <time>2012-03-15T16:39:34Z</time>
   </trkpt>
   <trkpt lat="46.2259483337402" lon="6.97175168991089">
    <ele>942.919982910156</ele>
    <time>2012-03-15T16:39:35Z</time>
   </trkpt>
   <trkpt lat="46.2259559631348" lon="6.97174310684204">
    <ele>943.359985351562</ele>
    <time>2012-03-15T16:39:36Z</time>
   </trkpt>
   <trkpt lat="46.2259674072266" lon="6.97173070907593">
    <ele>943.799987792969</ele>
    <time>2012-03-15T16:39:37Z</time>
   </trkpt>
   <trkpt lat="46.2259941101074" lon="6.97171926498413">
    <ele>943.799987792969</ele>
    <time>2012-03-15T16:39:39Z</time>
   </trkpt>
   <trkpt lat="46.2260360717773" lon="6.97170782089233">
    <ele>944.533325195312</ele>
    <time>2012-03-15T16:39:41Z</time>
   </trkpt>
   <trkpt lat="46.2260627746582" lon="6.97169637680054">
    <ele>944.900024414062</ele>
    <time>2012-03-15T16:39:42Z</time>
   </trkpt>
   <trkpt lat="46.2260894775391" lon="6.9716854095459">
    <ele>945.266662597656</ele>
    <time>2012-03-15T16:39:43Z</time>
   </trkpt>
   <trkpt lat="46.2261161804199" lon="6.97167921066284">
    <ele>945.63330078125</ele>
    <time>2012-03-15T16:39:44Z</time>
   </trkpt>
   <trkpt lat="46.2261505126953" lon="6.97168016433716">
    <ele>946</ele>
    <time>2012-03-15T16:39:45Z</time>
   </trkpt>
   <trkpt lat="46.2262077331543" lon="6.97168254852295">
    <ele>946</ele>
    <time>2012-03-15T16:39:47Z</time>
   </trkpt>
   <trkpt lat="46.2262916564941" lon="6.97168922424316">
    <ele>947.099975585938</ele>
    <time>2012-03-15T16:39:51Z</time>
   </trkpt>
   <trkpt lat="46.2263145446777" lon="6.9716968536377">
    <ele>947.375</ele>
    <time>2012-03-15T16:39:52Z</time>
   </trkpt>
   <trkpt lat="46.2263374328613" lon="6.9717059135437">
    <ele>947.650024414062</ele>
    <time>2012-03-15T16:39:53Z</time>
   </trkpt>
   <trkpt lat="46.2263526916504" lon="6.97172403335571">
    <ele>947.924987792969</ele>
    <time>2012-03-15T16:39:54Z</time>
   </trkpt>
   <trkpt lat="46.2263793945312" lon="6.97173643112183">
    <ele>948.200012207031</ele>
    <time>2012-03-15T16:39:55Z</time>
   </trkpt>
   <trkpt lat="46.2264595031738" lon="6.97177791595459">
    <ele>948.200012207031</ele>
    <time>2012-03-15T16:39:58Z</time>
   </trkpt>
   <trkpt lat="46.2265129089356" lon="6.97181272506714">
    <ele>949.142883300781</ele>
    <time>2012-03-15T16:40:01Z</time>
   </trkpt>
   <trkpt lat="46.2265281677246" lon="6.9718222618103">
    <ele>949.457153320312</ele>
    <time>2012-03-15T16:40:02Z</time>
   </trkpt>
   <trkpt lat="46.2265548706055" lon="6.97183275222778">
    <ele>949.771423339844</ele>
    <time>2012-03-15T16:40:03Z</time>
   </trkpt>
   <trkpt lat="46.2265701293945" lon="6.97185134887695">
    <ele>950.085754394531</ele>
    <time>2012-03-15T16:40:04Z</time>
   </trkpt>
   <trkpt lat="46.2265930175781" lon="6.97186660766602">
    <ele>950.400024414062</ele>
    <time>2012-03-15T16:40:05Z</time>
   </trkpt>
   <trkpt lat="46.2267150878906" lon="6.97195100784302">
    <ele>950.400024414062</ele>
    <time>2012-03-15T16:40:10Z</time>
   </trkpt>
   <trkpt lat="46.2267417907715" lon="6.97196912765503">
    <ele>951</ele>
    <time>2012-03-15T16:40:11Z</time>
   </trkpt>
   <trkpt lat="46.2267723083496" lon="6.97198915481567">
    <ele>951.599975585938</ele>
    <time>2012-03-15T16:40:12Z</time>
   </trkpt>
   <trkpt lat="46.2267913818359" lon="6.9720048904419">
    <ele>952.200012207031</ele>
    <time>2012-03-15T16:40:13Z</time>
   </trkpt>
   <trkpt lat="46.2268180847168" lon="6.97202348709106">
    <ele>952.799987792969</ele>
    <time>2012-03-15T16:40:14Z</time>
   </trkpt>
   <trkpt lat="46.2268371582031" lon="6.97204399108887">
    <ele>952.799987792969</ele>
    <time>2012-03-15T16:40:15Z</time>
   </trkpt>
   <trkpt lat="46.2269058227539" lon="6.9721531867981">
    <ele>953.900024414062</ele>
    <time>2012-03-15T16:40:19Z</time>
   </trkpt>
   <trkpt lat="46.226921081543" lon="6.97218370437622">
    <ele>954.174987792969</ele>
    <time>2012-03-15T16:40:20Z</time>
   </trkpt>
   <trkpt lat="46.226936340332" lon="6.97220659255982">
    <ele>954.450012207031</ele>
    <time>2012-03-15T16:40:21Z</time>
   </trkpt>
   <trkpt lat="46.2269592285156" lon="6.97222757339478">
    <ele>954.724975585938</ele>
    <time>2012-03-15T16:40:22Z</time>
   </trkpt>
   <trkpt lat="46.2269859313965" lon="6.97224569320679">
    <ele>955</ele>
    <time>2012-03-15T16:40:23Z</time>
   </trkpt>
   <trkpt lat="46.2270278930664" lon="6.97226762771606">
    <ele>955</ele>
    <time>2012-03-15T16:40:25Z</time>
   </trkpt>
   <trkpt lat="46.2271270751953" lon="6.97228336334228">
    <ele>955.857116699219</ele>
    <time>2012-03-15T16:40:28Z</time>
   </trkpt>
   <trkpt lat="46.227165222168" lon="6.97229099273682">
    <ele>956.142883300781</ele>
    <time>2012-03-15T16:40:29Z</time>
   </trkpt>
   <trkpt lat="46.2271957397461" lon="6.97229862213135">
    <ele>956.428588867188</ele>
    <time>2012-03-15T16:40:30Z</time>
   </trkpt>
   <trkpt lat="46.227222442627" lon="6.9723014831543">
    <ele>956.714294433594</ele>
    <time>2012-03-15T16:40:31Z</time>
   </trkpt>
   <trkpt lat="46.2272415161133" lon="6.97230339050293">
    <ele>957</ele>
    <time>2012-03-15T16:40:32Z</time>
   </trkpt>
   <trkpt lat="46.2272758483887" lon="6.97230672836304">
    <ele>957</ele>
    <time>2012-03-15T16:40:34Z</time>
   </trkpt>
   <trkpt lat="46.2272987365723" lon="6.9723072052002">
    <ele>957.285705566406</ele>
    <time>2012-03-15T16:40:35Z</time>
   </trkpt>
   <trkpt lat="46.2273635864258" lon="6.97230529785156">
    <ele>958.142883300781</ele>
    <time>2012-03-15T16:40:38Z</time>
   </trkpt>
   <trkpt lat="46.2273902893066" lon="6.97230625152588">
    <ele>958.428588867188</ele>
    <time>2012-03-15T16:40:39Z</time>
   </trkpt>
   <trkpt lat="46.227409362793" lon="6.97230052947998">
    <ele>958.714294433594</ele>
    <time>2012-03-15T16:40:40Z</time>
   </trkpt>
   <trkpt lat="46.2274322509766" lon="6.97229957580566">
    <ele>959</ele>
    <time>2012-03-15T16:40:41Z</time>
   </trkpt>
   <trkpt lat="46.2274742126465" lon="6.97230434417725">
    <ele>959</ele>
    <time>2012-03-15T16:40:43Z</time>
   </trkpt>
   <trkpt lat="46.2275085449219" lon="6.97231388092041">
    <ele>959.628601074219</ele>
    <time>2012-03-15T16:40:45Z</time>
   </trkpt>
   <trkpt lat="46.2275238037109" lon="6.97232532501221">
    <ele>959.94287109375</ele>
    <time>2012-03-15T16:40:46Z</time>
   </trkpt>
   <trkpt lat="46.2275390625" lon="6.97233486175537">
    <ele>960.257141113281</ele>
    <time>2012-03-15T16:40:47Z</time>
   </trkpt>
   <trkpt lat="46.2275581359863" lon="6.97234773635864">
    <ele>960.571411132812</ele>
    <time>2012-03-15T16:40:48Z</time>
   </trkpt>
   <trkpt lat="46.2275810241699" lon="6.9723596572876">
    <ele>960.8857421875</ele>
    <time>2012-03-15T16:40:49Z</time>
   </trkpt>
   <trkpt lat="46.2276000976562" lon="6.97237253189087">
    <ele>961.200012207031</ele>
    <time>2012-03-15T16:40:50Z</time>
   </trkpt>
   <trkpt lat="46.2276153564453" lon="6.97238636016846">
    <ele>961.200012207031</ele>
    <time>2012-03-15T16:40:51Z</time>
   </trkpt>
   <trkpt lat="46.2276763916016" lon="6.9724178314209">
    <ele>962.142883300781</ele>
    <time>2012-03-15T16:40:54Z</time>
   </trkpt>
   <trkpt lat="46.2276992797852" lon="6.97242784500122">
    <ele>962.457153320312</ele>
    <time>2012-03-15T16:40:55Z</time>
   </trkpt>
   <trkpt lat="46.2277221679688" lon="6.97243356704712">
    <ele>962.771423339844</ele>
    <time>2012-03-15T16:40:56Z</time>
   </trkpt>
   <trkpt lat="46.2277450561523" lon="6.97244167327881">
    <ele>963.085754394531</ele>
    <time>2012-03-15T16:40:57Z</time>
   </trkpt>
   <trkpt lat="46.2277641296387" lon="6.97244882583618">
    <ele>963.400024414062</ele>
    <time>2012-03-15T16:40:58Z</time>
   </trkpt>
   <trkpt lat="46.2278099060059" lon="6.97246885299683">
    <ele>963.400024414062</ele>
    <time>2012-03-15T16:41:00Z</time>
   </trkpt>
   <trkpt lat="46.2278633117676" lon="6.97248458862305">
    <ele>964.066711425781</ele>
    <time>2012-03-15T16:41:02Z</time>
   </trkpt>
   <trkpt lat="46.2278900146484" lon="6.97249174118042">
    <ele>964.400024414062</ele>
    <time>2012-03-15T16:41:03Z</time>
   </trkpt>
   <trkpt lat="46.2279205322266" lon="6.97249603271484">
    <ele>964.733337402344</ele>
    <time>2012-03-15T16:41:04Z</time>
   </trkpt>
   <trkpt lat="46.2279434204102" lon="6.97250127792358">
    <ele>965.066711425781</ele>
    <time>2012-03-15T16:41:05Z</time>
   </trkpt>
   <trkpt lat="46.227970123291" lon="6.97251081466675">
    <ele>965.400024414062</ele>
    <time>2012-03-15T16:41:06Z</time>
   </trkpt>
   <trkpt lat="46.2281455993652" lon="6.97253131866455">
    <ele>965.400024414062</ele>
    <time>2012-03-15T16:41:11Z</time>
   </trkpt>
   <trkpt lat="46.2281723022461" lon="6.97253131866455">
    <ele>965.800048828125</ele>
    <time>2012-03-15T16:41:12Z</time>
   </trkpt>
   <trkpt lat="46.2281951904297" lon="6.97253274917602">
    <ele>966.200012207031</ele>
    <time>2012-03-15T16:41:13Z</time>
   </trkpt>
   <trkpt lat="46.2282180786133" lon="6.97253704071045">
    <ele>966.600036621094</ele>
    <time>2012-03-15T16:41:14Z</time>
   </trkpt>
   <trkpt lat="46.2282447814941" lon="6.97254419326782">
    <ele>967</ele>
    <time>2012-03-15T16:41:15Z</time>
   </trkpt>
   <trkpt lat="46.228271484375" lon="6.97255086898804">
    <ele>967.400024414062</ele>
    <time>2012-03-15T16:41:16Z</time>
   </trkpt>
   <trkpt lat="46.2282943725586" lon="6.97255659103394">
    <ele>967.400024414062</ele>
    <time>2012-03-15T16:41:17Z</time>
   </trkpt>
   <trkpt lat="46.2283630371094" lon="6.9725489616394">
    <ele>968.5</ele>
    <time>2012-03-15T16:41:21Z</time>
   </trkpt>
   <trkpt lat="46.228385925293" lon="6.97254943847656">
    <ele>968.775024414062</ele>
    <time>2012-03-15T16:41:22Z</time>
   </trkpt>
   <trkpt lat="46.2284049987793" lon="6.97254848480225">
    <ele>969.049987792969</ele>
    <time>2012-03-15T16:41:23Z</time>
   </trkpt>
   <trkpt lat="46.2284202575684" lon="6.97254037857056">
    <ele>969.324951171875</ele>
    <time>2012-03-15T16:41:24Z</time>
   </trkpt>
   <trkpt lat="46.2284355163574" lon="6.97253179550171">
    <ele>969.599975585938</ele>
    <time>2012-03-15T16:41:25Z</time>
   </trkpt>
   <trkpt lat="46.2284812927246" lon="6.9725136756897">
    <ele>969.599975585938</ele>
    <time>2012-03-15T16:41:27Z</time>
   </trkpt>
   <trkpt lat="46.2285614013672" lon="6.97245740890503">
    <ele>970.457092285156</ele>
    <time>2012-03-15T16:41:30Z</time>
   </trkpt>
   <trkpt lat="46.2285957336426" lon="6.97242832183838">
    <ele>970.742858886719</ele>
    <time>2012-03-15T16:41:31Z</time>
   </trkpt>
   <trkpt lat="46.2286338806152" lon="6.97239685058594">
    <ele>971.028564453125</ele>
    <time>2012-03-15T16:41:32Z</time>
   </trkpt>
   <trkpt lat="46.2286682128906" lon="6.97237014770508">
    <ele>971.314270019531</ele>
    <time>2012-03-15T16:41:33Z</time>
   </trkpt>
   <trkpt lat="46.228702545166" lon="6.9723424911499">
    <ele>971.599975585938</ele>
    <time>2012-03-15T16:41:34Z</time>
   </trkpt>
   <trkpt lat="46.2288208007812" lon="6.97226190567017">
    <ele>971.599975585938</ele>
    <time>2012-03-15T16:41:38Z</time>
   </trkpt>
   <trkpt lat="46.2288665771484" lon="6.97222375869751">
    <ele>972.266662597656</ele>
    <time>2012-03-15T16:41:40Z</time>
   </trkpt>
   <trkpt lat="46.2288970947266" lon="6.97219848632812">
    <ele>972.599975585938</ele>
    <time>2012-03-15T16:41:41Z</time>
   </trkpt>
   <trkpt lat="46.2289276123047" lon="6.97217702865601">
    <ele>972.933288574219</ele>
    <time>2012-03-15T16:41:42Z</time>
   </trkpt>
   <trkpt lat="46.2289581298828" lon="6.97215461730957">
    <ele>973.266662597656</ele>
    <time>2012-03-15T16:41:43Z</time>
   </trkpt>
   <trkpt lat="46.2289848327637" lon="6.97213745117188">
    <ele>973.599975585938</ele>
    <time>2012-03-15T16:41:44Z</time>
   </trkpt>
   <trkpt lat="46.2290573120117" lon="6.97208738327026">
    <ele>973.599975585938</ele>
    <time>2012-03-15T16:41:47Z</time>
   </trkpt>
   <trkpt lat="46.2291259765625" lon="6.97204685211182">
    <ele>974.699951171875</ele>
    <time>2012-03-15T16:41:50Z</time>
   </trkpt>
   <trkpt lat="46.2291412353516" lon="6.97203636169434">
    <ele>975.066650390625</ele>
    <time>2012-03-15T16:41:51Z</time>
   </trkpt>
   <trkpt lat="46.2291641235352" lon="6.9720196723938">
    <ele>975.433349609375</ele>
    <time>2012-03-15T16:41:52Z</time>
   </trkpt>
   <trkpt lat="46.2291870117188" lon="6.97200298309326">
    <ele>975.799987792969</ele>
    <time>2012-03-15T16:41:53Z</time>
   </trkpt>
   <trkpt lat="46.2292709350586" lon="6.97191762924194">
    <ele>975.799987792969</ele>
    <time>2012-03-15T16:41:57Z</time>
   </trkpt>
   <trkpt lat="46.2293243408203" lon="6.97185325622559">
    <ele>976.625</ele>
    <time>2012-03-15T16:42:00Z</time>
   </trkpt>
   <trkpt lat="46.2293510437012" lon="6.97183704376221">
    <ele>976.900024414062</ele>
    <time>2012-03-15T16:42:01Z</time>
   </trkpt>
   <trkpt lat="46.2293739318848" lon="6.97182083129883">
    <ele>977.174987792969</ele>
    <time>2012-03-15T16:42:02Z</time>
   </trkpt>
   <trkpt lat="46.2293968200684" lon="6.97180366516113">
    <ele>977.450012207031</ele>
    <time>2012-03-15T16:42:03Z</time>
   </trkpt>
   <trkpt lat="46.2294311523438" lon="6.97178506851196">
    <ele>977.724975585938</ele>
    <time>2012-03-15T16:42:04Z</time>
   </trkpt>
   <trkpt lat="46.2295455932617" lon="6.97165679931641">
    <ele>979.099975585938</ele>
    <time>2012-03-15T16:42:09Z</time>
   </trkpt>
   <trkpt lat="46.229564666748" lon="6.9716272354126">
    <ele>979.375</ele>
    <time>2012-03-15T16:42:10Z</time>
   </trkpt>
   <trkpt lat="46.2295799255371" lon="6.97159242630005">
    <ele>979.650024414062</ele>
    <time>2012-03-15T16:42:11Z</time>
   </trkpt>
   <trkpt lat="46.2295951843262" lon="6.97155904769898">
    <ele>979.924987792969</ele>
    <time>2012-03-15T16:42:12Z</time>
   </trkpt>
   <trkpt lat="46.2296028137207" lon="6.97152328491211">
    <ele>980.200012207031</ele>
    <time>2012-03-15T16:42:13Z</time>
   </trkpt>
   <trkpt lat="46.2296142578125" lon="6.9714503288269">
    <ele>980.200012207031</ele>
    <time>2012-03-15T16:42:15Z</time>
   </trkpt>
   <trkpt lat="46.2296142578125" lon="6.9713454246521">
    <ele>981.05712890625</ele>
    <time>2012-03-15T16:42:18Z</time>
   </trkpt>
   <trkpt lat="46.2296142578125" lon="6.97131299972534">
    <ele>981.342895507812</ele>
    <time>2012-03-15T16:42:19Z</time>
   </trkpt>
   <trkpt lat="46.2296142578125" lon="6.97127771377564">
    <ele>981.628601074219</ele>
    <time>2012-03-15T16:42:20Z</time>
   </trkpt>
   <trkpt lat="46.2296104431152" lon="6.97124290466309">
    <ele>981.914306640625</ele>
    <time>2012-03-15T16:42:21Z</time>
   </trkpt>
   <trkpt lat="46.2296104431152" lon="6.97120571136475">
    <ele>982.200012207031</ele>
    <time>2012-03-15T16:42:22Z</time>
   </trkpt>
   <trkpt lat="46.2296104431152" lon="6.97116708755493">
    <ele>982.200012207031</ele>
    <time>2012-03-15T16:42:23Z</time>
   </trkpt>
   <trkpt lat="46.2296142578125" lon="6.97098684310913">
    <ele>983.400024414062</ele>
    <time>2012-03-15T16:42:28Z</time>
   </trkpt>
   <trkpt lat="46.2296180725098" lon="6.9709529876709">
    <ele>983.640014648438</ele>
    <time>2012-03-15T16:42:29Z</time>
   </trkpt>
   <trkpt lat="46.229621887207" lon="6.97091960906982">
    <ele>983.880004882812</ele>
    <time>2012-03-15T16:42:30Z</time>
   </trkpt>
   <trkpt lat="46.229621887207" lon="6.97088527679443">
    <ele>984.119995117188</ele>
    <time>2012-03-15T16:42:31Z</time>
   </trkpt>
   <trkpt lat="46.2296257019043" lon="6.97084903717041">
    <ele>984.359985351562</ele>
    <time>2012-03-15T16:42:32Z</time>
   </trkpt>
   <trkpt lat="46.2296257019043" lon="6.97066926956177">
    <ele>985.559997558594</ele>
    <time>2012-03-15T16:42:37Z</time>
   </trkpt>
   <trkpt lat="46.2296257019043" lon="6.97063446044922">
    <ele>985.799987792969</ele>
    <time>2012-03-15T16:42:38Z</time>
   </trkpt>
   <trkpt lat="46.2296257019043" lon="6.9705982208252">
    <ele>986.039978027344</ele>
    <time>2012-03-15T16:42:39Z</time>
   </trkpt>
   <trkpt lat="46.2296295166016" lon="6.9705662727356">
    <ele>986.279968261719</ele>
    <time>2012-03-15T16:42:40Z</time>
   </trkpt>
   <trkpt lat="46.2296333312988" lon="6.97053384780884">
    <ele>986.52001953125</ele>
    <time>2012-03-15T16:42:41Z</time>
   </trkpt>
   <trkpt lat="46.2296409606934" lon="6.97042989730835">
    <ele>987.239990234375</ele>
    <time>2012-03-15T16:42:44Z</time>
   </trkpt>
   <trkpt lat="46.2296409606934" lon="6.97039365768433">
    <ele>987.47998046875</ele>
    <time>2012-03-15T16:42:45Z</time>
   </trkpt>
   <trkpt lat="46.2296447753906" lon="6.97035837173462">
    <ele>987.719970703125</ele>
    <time>2012-03-15T16:42:46Z</time>
   </trkpt>
   <trkpt lat="46.2296485900879" lon="6.97032499313354">
    <ele>987.9599609375</ele>
    <time>2012-03-15T16:42:47Z</time>
   </trkpt>
   <trkpt lat="46.2296485900879" lon="6.97029161453247">
    <ele>988.200012207031</ele>
    <time>2012-03-15T16:42:48Z</time>
   </trkpt>
   <trkpt lat="46.2296295166016" lon="6.97008895874024">
    <ele>989.639953613281</ele>
    <time>2012-03-15T16:42:54Z</time>
   </trkpt>
   <trkpt lat="46.229621887207" lon="6.97005558013916">
    <ele>989.880004882812</ele>
    <time>2012-03-15T16:42:55Z</time>
   </trkpt>
   <trkpt lat="46.2296142578125" lon="6.97002172470093">
    <ele>990.119995117188</ele>
    <time>2012-03-15T16:42:56Z</time>
   </trkpt>
   <trkpt lat="46.2296028137207" lon="6.9699912071228">
    <ele>990.359985351562</ele>
    <time>2012-03-15T16:42:57Z</time>
   </trkpt>
   <trkpt lat="46.2295951843262" lon="6.96996259689331">
    <ele>990.599975585938</ele>
    <time>2012-03-15T16:42:58Z</time>
   </trkpt>
   <trkpt lat="46.2295608520508" lon="6.96987533569336">
    <ele>990.599975585938</ele>
    <time>2012-03-15T16:43:01Z</time>
   </trkpt>
   <trkpt lat="46.2295227050781" lon="6.96979665756226">
    <ele>991.47998046875</ele>
    <time>2012-03-15T16:43:04Z</time>
   </trkpt>
   <trkpt lat="46.2295074462891" lon="6.96977090835571">
    <ele>991.773315429688</ele>
    <time>2012-03-15T16:43:05Z</time>
   </trkpt>
   <trkpt lat="46.2294845581055" lon="6.96974229812622">
    <ele>992.066650390625</ele>
    <time>2012-03-15T16:43:06Z</time>
   </trkpt>
   <trkpt lat="46.2294616699219" lon="6.96971559524536">
    <ele>992.359985351562</ele>
    <time>2012-03-15T16:43:07Z</time>
   </trkpt>
   <trkpt lat="46.229362487793" lon="6.96959018707275">
    <ele>993.82666015625</ele>
    <time>2012-03-15T16:43:12Z</time>
   </trkpt>
   <trkpt lat="46.2293434143066" lon="6.96957063674927">
    <ele>994.119995117188</ele>
    <time>2012-03-15T16:43:13Z</time>
   </trkpt>
   <trkpt lat="46.2293243408203" lon="6.96955108642578">
    <ele>994.413330078125</ele>
    <time>2012-03-15T16:43:14Z</time>
   </trkpt>
   <trkpt lat="46.2293014526367" lon="6.96953105926514">
    <ele>994.706665039062</ele>
    <time>2012-03-15T16:43:15Z</time>
   </trkpt>
   <trkpt lat="46.2292823791504" lon="6.96950912475586">
    <ele>995</ele>
    <time>2012-03-15T16:43:16Z</time>
   </trkpt>
   <trkpt lat="46.2292022705078" lon="6.96941518783569">
    <ele>995</ele>
    <time>2012-03-15T16:43:20Z</time>
   </trkpt>
   <trkpt lat="46.2291374206543" lon="6.96933841705322">
    <ele>995.857116699219</ele>
    <time>2012-03-15T16:43:23Z</time>
   </trkpt>
   <trkpt lat="46.2291145324707" lon="6.96931028366089">
    <ele>996.142883300781</ele>
    <time>2012-03-15T16:43:24Z</time>
   </trkpt>
   <trkpt lat="46.2290954589844" lon="6.96928596496582">
    <ele>996.428588867188</ele>
    <time>2012-03-15T16:43:25Z</time>
   </trkpt>
   <trkpt lat="46.2290725708008" lon="6.96926259994507">
    <ele>996.714294433594</ele>
    <time>2012-03-15T16:43:26Z</time>
   </trkpt>
   <trkpt lat="46.2290496826172" lon="6.96923542022705">
    <ele>997</ele>
    <time>2012-03-15T16:43:27Z</time>
   </trkpt>
   <trkpt lat="46.228889465332" lon="6.96904468536377">
    <ele>997</ele>
    <time>2012-03-15T16:43:33Z</time>
   </trkpt>
   <trkpt lat="46.2287178039551" lon="6.9688138961792">
    <ele>997.260864257812</ele>
    <time>2012-03-15T16:43:39Z</time>
   </trkpt>
   <trkpt lat="46.2285461425781" lon="6.96855926513672">
    <ele>997.521728515625</ele>
    <time>2012-03-15T16:43:45Z</time>
   </trkpt>
   <trkpt lat="46.2283897399902" lon="6.96834707260132">
    <ele>997.739135742188</ele>
    <time>2012-03-15T16:43:50Z</time>
   </trkpt>
   <trkpt lat="46.2283134460449" lon="6.96826791763306">
    <ele>997.826110839844</ele>
    <time>2012-03-15T16:43:52Z</time>
   </trkpt>
   <trkpt lat="46.2281188964844" lon="6.96811866760254">
    <ele>998.04345703125</ele>
    <time>2012-03-15T16:43:57Z</time>
   </trkpt>
   <trkpt lat="46.2280807495117" lon="6.96808767318726">
    <ele>998.086975097656</ele>
    <time>2012-03-15T16:43:58Z</time>
   </trkpt>
   <trkpt lat="46.2278709411621" lon="6.96787357330322">
    <ele>998.347839355469</ele>
    <time>2012-03-15T16:44:04Z</time>
   </trkpt>
   <trkpt lat="46.2277297973633" lon="6.96769714355469">
    <ele>998.521728515625</ele>
    <time>2012-03-15T16:44:08Z</time>
   </trkpt>
   <trkpt lat="46.2276458740234" lon="6.9675989151001">
    <ele>998.608703613281</ele>
    <time>2012-03-15T16:44:10Z</time>
   </trkpt>
   <trkpt lat="46.2275276184082" lon="6.96746015548706">
    <ele>998.739135742188</ele>
    <time>2012-03-15T16:44:13Z</time>
   </trkpt>
   <trkpt lat="46.2274627685547" lon="6.967360496521">
    <ele>998.826110839844</ele>
    <time>2012-03-15T16:44:15Z</time>
   </trkpt>
   <trkpt lat="46.2274322509766" lon="6.96730852127075">
    <ele>998.869567871094</ele>
    <time>2012-03-15T16:44:16Z</time>
   </trkpt>
   <trkpt lat="46.227409362793" lon="6.96725225448608">
    <ele>998.913024902344</ele>
    <time>2012-03-15T16:44:17Z</time>
   </trkpt>
   <trkpt lat="46.2273826599121" lon="6.96719741821289">
    <ele>998.95654296875</ele>
    <time>2012-03-15T16:44:18Z</time>
   </trkpt>
   <trkpt lat="46.2273445129394" lon="6.96713876724243">
    <ele>999</ele>
    <time>2012-03-15T16:44:19Z</time>
   </trkpt>
   <trkpt lat="46.2272071838379" lon="6.96691656112671">
    <ele>999</ele>
    <time>2012-03-15T16:44:23Z</time>
   </trkpt>
   <trkpt lat="46.227165222168" lon="6.96687269210815">
    <ele>999.177795410156</ele>
    <time>2012-03-15T16:44:24Z</time>
   </trkpt>
   <trkpt lat="46.2270164489746" lon="6.96675872802734">
    <ele>999.711120605469</ele>
    <time>2012-03-15T16:44:27Z</time>
   </trkpt>
   <trkpt lat="46.2269325256348" lon="6.9666862487793">
    <ele>1000.06665039062</ele>
    <time>2012-03-15T16:44:29Z</time>
   </trkpt>
   <trkpt lat="46.2268562316894" lon="6.96661710739136">
    <ele>1000.42224121094</ele>
    <time>2012-03-15T16:44:31Z</time>
   </trkpt>
   <trkpt lat="46.2267570495606" lon="6.96654605865478">
    <ele>1000.77777099609</ele>
    <time>2012-03-15T16:44:33Z</time>
   </trkpt>
   <trkpt lat="46.2265014648438" lon="6.96639013290405">
    <ele>1001.84448242188</ele>
    <time>2012-03-15T16:44:39Z</time>
   </trkpt>
   <trkpt lat="46.2263565063477" lon="6.9663519859314">
    <ele>1002.37780761719</ele>
    <time>2012-03-15T16:44:42Z</time>
   </trkpt>
   <trkpt lat="46.2263107299805" lon="6.96634578704834">
    <ele>1002.55554199219</ele>
    <time>2012-03-15T16:44:43Z</time>
   </trkpt>
   <trkpt lat="46.2262687683106" lon="6.9663405418396">
    <ele>1002.73333740234</ele>
    <time>2012-03-15T16:44:44Z</time>
   </trkpt>
   <trkpt lat="46.2262306213379" lon="6.96633577346802">
    <ele>1002.9111328125</ele>
    <time>2012-03-15T16:44:45Z</time>
   </trkpt>
   <trkpt lat="46.226188659668" lon="6.9663290977478">
    <ele>1003.08892822266</ele>
    <time>2012-03-15T16:44:46Z</time>
   </trkpt>
   <trkpt lat="46.2260398864746" lon="6.96628475189209">
    <ele>1003.80004882812</ele>
    <time>2012-03-15T16:44:50Z</time>
   </trkpt>
   <trkpt lat="46.2260093688965" lon="6.9662766456604">
    <ele>1003.97778320312</ele>
    <time>2012-03-15T16:44:51Z</time>
   </trkpt>
   <trkpt lat="46.2259788513184" lon="6.96626138687134">
    <ele>1004.15557861328</ele>
    <time>2012-03-15T16:44:52Z</time>
   </trkpt>
   <trkpt lat="46.225944519043" lon="6.96624755859375">
    <ele>1004.33337402344</ele>
    <time>2012-03-15T16:44:53Z</time>
   </trkpt>
   <trkpt lat="46.2259140014648" lon="6.966233253479">
    <ele>1004.51110839844</ele>
    <time>2012-03-15T16:44:54Z</time>
   </trkpt>
   <trkpt lat="46.225887298584" lon="6.96620988845825">
    <ele>1004.68890380859</ele>
    <time>2012-03-15T16:44:55Z</time>
   </trkpt>
   <trkpt lat="46.2258644104004" lon="6.96618127822876">
    <ele>1004.86669921875</ele>
    <time>2012-03-15T16:44:56Z</time>
   </trkpt>
   <trkpt lat="46.2258415222168" lon="6.96614837646484">
    <ele>1005.04449462891</ele>
    <time>2012-03-15T16:44:57Z</time>
   </trkpt>
   <trkpt lat="46.2258186340332" lon="6.96611309051514">
    <ele>1005.22222900391</ele>
    <time>2012-03-15T16:44:58Z</time>
   </trkpt>
   <trkpt lat="46.2257919311523" lon="6.96606826782226">
    <ele>1005.40002441406</ele>
    <time>2012-03-15T16:44:59Z</time>
   </trkpt>
   <trkpt lat="46.2257652282715" lon="6.96602201461792">
    <ele>1005.40002441406</ele>
    <time>2012-03-15T16:45:00Z</time>
   </trkpt>
   <trkpt lat="46.2257423400879" lon="6.96597480773926">
    <ele>1005.84002685547</ele>
    <time>2012-03-15T16:45:01Z</time>
   </trkpt>
   <trkpt lat="46.2257232666016" lon="6.96593189239502">
    <ele>1006.28002929688</ele>
    <time>2012-03-15T16:45:02Z</time>
   </trkpt>
   <trkpt lat="46.2257041931152" lon="6.96588754653931">
    <ele>1006.71997070312</ele>
    <time>2012-03-15T16:45:03Z</time>
   </trkpt>
   <trkpt lat="46.2256889343262" lon="6.96584558486938">
    <ele>1007.15997314453</ele>
    <time>2012-03-15T16:45:04Z</time>
   </trkpt>
   <trkpt lat="46.2256736755371" lon="6.96580505371094">
    <ele>1007.59997558594</ele>
    <time>2012-03-15T16:45:05Z</time>
   </trkpt>
   <trkpt lat="46.225658416748" lon="6.96576881408691">
    <ele>1007.59997558594</ele>
    <time>2012-03-15T16:45:06Z</time>
   </trkpt>
   <trkpt lat="46.2256240844727" lon="6.96570634841919">
    <ele>1008.39996337891</ele>
    <time>2012-03-15T16:45:08Z</time>
   </trkpt>
   <trkpt lat="46.2256050109863" lon="6.96567249298096">
    <ele>1008.79998779297</ele>
    <time>2012-03-15T16:45:09Z</time>
   </trkpt>
   <trkpt lat="46.2255859375" lon="6.9656400680542">
    <ele>1009.19995117188</ele>
    <time>2012-03-15T16:45:10Z</time>
   </trkpt>
   <trkpt lat="46.2255668640137" lon="6.96560955047607">
    <ele>1009.59997558594</ele>
    <time>2012-03-15T16:45:11Z</time>
   </trkpt>
   <trkpt lat="46.2255477905273" lon="6.96557664871216">
    <ele>1009.59997558594</ele>
    <time>2012-03-15T16:45:12Z</time>
   </trkpt>
   <trkpt lat="46.2254524230957" lon="6.96542406082153">
    <ele>1010.85711669922</ele>
    <time>2012-03-15T16:45:16Z</time>
   </trkpt>
   <trkpt lat="46.2254257202148" lon="6.96537971496582">
    <ele>1011.17138671875</ele>
    <time>2012-03-15T16:45:17Z</time>
   </trkpt>
   <trkpt lat="46.225399017334" lon="6.96534109115601">
    <ele>1011.48571777344</ele>
    <time>2012-03-15T16:45:18Z</time>
   </trkpt>
   <trkpt lat="46.2253799438477" lon="6.96529293060303">
    <ele>1011.79998779297</ele>
    <time>2012-03-15T16:45:19Z</time>
   </trkpt>
   <trkpt lat="46.2253570556641" lon="6.96525192260742">
    <ele>1012.1142578125</ele>
    <time>2012-03-15T16:45:20Z</time>
   </trkpt>
   <trkpt lat="46.2253265380859" lon="6.96518754959106">
    <ele>1012.74285888672</ele>
    <time>2012-03-15T16:45:22Z</time>
   </trkpt>
   <trkpt lat="46.2253112792969" lon="6.96516418457031">
    <ele>1013.05712890625</ele>
    <time>2012-03-15T16:45:23Z</time>
   </trkpt>
   <trkpt lat="46.2252922058106" lon="6.96513843536377">
    <ele>1013.37139892578</ele>
    <time>2012-03-15T16:45:24Z</time>
   </trkpt>
   <trkpt lat="46.2252731323242" lon="6.96510696411133">
    <ele>1013.68572998047</ele>
    <time>2012-03-15T16:45:25Z</time>
   </trkpt>
   <trkpt lat="46.2252464294434" lon="6.96506929397583">
    <ele>1014</ele>
    <time>2012-03-15T16:45:26Z</time>
   </trkpt>
   <trkpt lat="46.2251625061035" lon="6.96493577957153">
    <ele>1014</ele>
    <time>2012-03-15T16:45:30Z</time>
   </trkpt>
   <trkpt lat="46.2251472473144" lon="6.96490621566772">
    <ele>1014.34997558594</ele>
    <time>2012-03-15T16:45:31Z</time>
   </trkpt>
   <trkpt lat="46.2251358032227" lon="6.96487379074097">
    <ele>1014.70001220703</ele>
    <time>2012-03-15T16:45:32Z</time>
   </trkpt>
   <trkpt lat="46.2251205444336" lon="6.96483564376831">
    <ele>1015.04998779297</ele>
    <time>2012-03-15T16:45:33Z</time>
   </trkpt>
   <trkpt lat="46.2251014709473" lon="6.96479749679565">
    <ele>1015.40002441406</ele>
    <time>2012-03-15T16:45:34Z</time>
   </trkpt>
   <trkpt lat="46.2250709533691" lon="6.96474981307983">
    <ele>1015.75</ele>
    <time>2012-03-15T16:45:35Z</time>
   </trkpt>
   <trkpt lat="46.2249870300293" lon="6.96465492248535">
    <ele>1016.79998779297</ele>
    <time>2012-03-15T16:45:38Z</time>
   </trkpt>
   <trkpt lat="46.2249717712402" lon="6.96461963653564">
    <ele>1017.15002441406</ele>
    <time>2012-03-15T16:45:39Z</time>
   </trkpt>
   <trkpt lat="46.2249488830566" lon="6.9645824432373">
    <ele>1017.5</ele>
    <time>2012-03-15T16:45:40Z</time>
   </trkpt>
   <trkpt lat="46.224925994873" lon="6.96454048156738">
    <ele>1017.85003662109</ele>
    <time>2012-03-15T16:45:41Z</time>
   </trkpt>
   <trkpt lat="46.2248992919922" lon="6.96450138092041">
    <ele>1018.20001220703</ele>
    <time>2012-03-15T16:45:42Z</time>
   </trkpt>
   <trkpt lat="46.2248191833496" lon="6.96437788009644">
    <ele>1018.20001220703</ele>
    <time>2012-03-15T16:45:45Z</time>
   </trkpt>
   <trkpt lat="46.2247772216797" lon="6.96430397033691">
    <ele>1018.93334960938</ele>
    <time>2012-03-15T16:45:47Z</time>
   </trkpt>
   <trkpt lat="46.2247467041016" lon="6.96426677703857">
    <ele>1019.30004882812</ele>
    <time>2012-03-15T16:45:48Z</time>
   </trkpt>
   <trkpt lat="46.2247276306152" lon="6.96422481536865">
    <ele>1019.66668701172</ele>
    <time>2012-03-15T16:45:49Z</time>
   </trkpt>
   <trkpt lat="46.2247123718262" lon="6.96418142318726">
    <ele>1020.03332519531</ele>
    <time>2012-03-15T16:45:50Z</time>
   </trkpt>
   <trkpt lat="46.2246932983398" lon="6.96413564682007">
    <ele>1020.40002441406</ele>
    <time>2012-03-15T16:45:51Z</time>
   </trkpt>
   <trkpt lat="46.2246284484863" lon="6.96396780014038">
    <ele>1020.40002441406</ele>
    <time>2012-03-15T16:45:55Z</time>
   </trkpt>
   <trkpt lat="46.2246131896973" lon="6.96392869949341">
    <ele>1020.84002685547</ele>
    <time>2012-03-15T16:45:56Z</time>
   </trkpt>
   <trkpt lat="46.2246017456055" lon="6.96389055252075">
    <ele>1021.28002929688</ele>
    <time>2012-03-15T16:45:57Z</time>
   </trkpt>
   <trkpt lat="46.2245941162109" lon="6.96385145187378">
    <ele>1021.71997070312</ele>
    <time>2012-03-15T16:45:58Z</time>
   </trkpt>
   <trkpt lat="46.2245864868164" lon="6.96381187438965">
    <ele>1022.15997314453</ele>
    <time>2012-03-15T16:45:59Z</time>
   </trkpt>
   <trkpt lat="46.2245788574219" lon="6.9637713432312">
    <ele>1022.59997558594</ele>
    <time>2012-03-15T16:46:00Z</time>
   </trkpt>
   <trkpt lat="46.2245712280273" lon="6.96369361877441">
    <ele>1022.59997558594</ele>
    <time>2012-03-15T16:46:02Z</time>
   </trkpt>
   <trkpt lat="46.2245712280273" lon="6.96365547180176">
    <ele>1023.03997802734</ele>
    <time>2012-03-15T16:46:03Z</time>
   </trkpt>
   <trkpt lat="46.2245635986328" lon="6.9636173248291">
    <ele>1023.47998046875</ele>
    <time>2012-03-15T16:46:04Z</time>
   </trkpt>
   <trkpt lat="46.2245597839356" lon="6.96357870101929">
    <ele>1023.92004394531</ele>
    <time>2012-03-15T16:46:05Z</time>
   </trkpt>
   <trkpt lat="46.2245559692383" lon="6.96353912353516">
    <ele>1024.35998535156</ele>
    <time>2012-03-15T16:46:06Z</time>
   </trkpt>
   <trkpt lat="46.2245559692383" lon="6.96349811553955">
    <ele>1024.80004882812</ele>
    <time>2012-03-15T16:46:07Z</time>
   </trkpt>
   <trkpt lat="46.2245483398438" lon="6.96341800689697">
    <ele>1024.80004882812</ele>
    <time>2012-03-15T16:46:09Z</time>
   </trkpt>
   <trkpt lat="46.2245483398438" lon="6.96325063705444">
    <ele>1025.90002441406</ele>
    <time>2012-03-15T16:46:13Z</time>
   </trkpt>
   <trkpt lat="46.224552154541" lon="6.9632158279419">
    <ele>1026.17504882812</ele>
    <time>2012-03-15T16:46:14Z</time>
   </trkpt>
   <trkpt lat="46.2245597839356" lon="6.9631814956665">
    <ele>1026.44995117188</ele>
    <time>2012-03-15T16:46:15Z</time>
   </trkpt>
   <trkpt lat="46.2245635986328" lon="6.96314668655396">
    <ele>1026.72497558594</ele>
    <time>2012-03-15T16:46:16Z</time>
   </trkpt>
   <trkpt lat="46.2245712280273" lon="6.96311378479004">
    <ele>1027</ele>
    <time>2012-03-15T16:46:17Z</time>
   </trkpt>
   <trkpt lat="46.224609375" lon="6.96294927597046">
    <ele>1027</ele>
    <time>2012-03-15T16:46:22Z</time>
   </trkpt>
   <trkpt lat="46.2246322631836" lon="6.96288251876831">
    <ele>1028</ele>
    <time>2012-03-15T16:46:25Z</time>
   </trkpt>
   <trkpt lat="46.2246437072754" lon="6.96286773681641">
    <ele>1028.33337402344</ele>
    <time>2012-03-15T16:46:26Z</time>
   </trkpt>
   <trkpt lat="46.2246513366699" lon="6.96285629272461">
    <ele>1028.66662597656</ele>
    <time>2012-03-15T16:46:27Z</time>
   </trkpt>
   <trkpt lat="46.2246627807617" lon="6.96284103393555">
    <ele>1029</ele>
    <time>2012-03-15T16:46:28Z</time>
   </trkpt>
   <trkpt lat="46.2246780395508" lon="6.96280813217163">
    <time>2012-03-15T16:46:30Z</time>
   </trkpt>
  </trkseg>
 </trk>
</gpx>